[[{"header":{"parameterUnit":"m.s-1","parameterCategory":1,"la1":31.0,"la2":29.5877,"lo1":-88.7671,"lo2":-86.6584,"dy":0.0162,"dx":0.0185,"nx":115,"ny":88,"refTime":"2023-08-16T12:00:00:Z","depth":0,"parameterNumber":2,"parameterNumberName":"U-component_of_WINDS"},"data":[0.0,0.0,0.0,0.0,0.0,0.0,0.0,0.0,0.0,0.0,0.0,0.0,0.0,0.0,0.0,0.0,0.0,0.0,0.0,0.0,0.0,0.0,0.0,0.0,0.0,0.0,0.0,0.0,0.0,0.0,0.0,0.0,0.0,0.0,0.0,0.0,0.0,0.0,0.0,0.0,0.0,0.0,0.0,0.0,0.0,0.0,0.0,0.0,0.0,0.0,0.0,0.0,0.0,0.0,0.0,0.0,0.0,0.0,0.0,0.0,0.0,0.0,0.0,0.0,0.0,0.0,0.0,0.0,0.0,0.0,0.0,0.0,0.0,0.0,0.0,0.0,0.0,0.0,0.0,0.0,0.0,0.0,0.0,0.0,0.0,0.0,0.0,0.0,0.0,0.0,0.0,0.0,0.0,0.0,0.0,0.0,0.0,0.0,0.0,0.0,0.0,0.0,0.0,0.0,0.0,0.0,0.0,0.0,0.0,0.0,0.0,0.0,0.0,0.0,0.0,0.0,0.0,0.0,0.0,0.0,0.0,0.0,0.0,0.0,0.0,0.0,0.0,0.0,0.0,0.0,0.0,0.0,0.0,0.0,0.0,0.0,0.0,0.0,0.0,0.0,0.0,0.0,0.0,0.0,0.0,0.0,0.0,0.0,0.0,0.0,0.0,0.0,0.0,0.0,0.0,0.0,0.0,0.0,0.0,0.0,0.0,0.0,0.0,0.0,0.0,0.0,0.0,0.0,0.0,0.0,0.0,0.0,0.0,0.0,0.0,0.0,0.0,0.0,0.0,0.0,0.0,0.0,0.0,0.0,0.0,0.0,0.0,0.0,0.0,0.0,0.0,0.0,0.0,0.0,0.0,0.0,0.0,0.0,0.0,0.0,0.0,0.0,0.0,0.0,0.0,0.0,0.0,0.0,0.0,0.0,0.0,0.0,0.0,0.0,0.0,0.0,0.0,0.0,0.0,0.0,0.0,0.0,0.0,0.0,0.0,0.0,0.0,0.0,0.0,0.0,0.0,0.0,0.0,0.0,0.0,0.0,0.0,0.0,0.0,0.0,0.0,0.0,0.0,0.0,0.0,0.0,0.0,0.0,0.0,0.0,0.0,0.0,0.0,0.0,0.0,0.0,0.0,0.0,0.0,0.0,0.0,0.0,0.0,0.0,0.0,0.0,0.0,0.0,0.0,0.0,0.0,0.0,0.0,0.0,0.0,0.0,0.0,0.0,0.0,0.0,0.0,0.0,0.0,0.0,0.0,0.0,0.0,0.0,0.0,0.0,0.0,0.0,0.0,0.0,0.0,0.0,0.0,0.0,0.0,0.0,0.0,0.0,0.0,0.0,0.0,0.0,0.0,0.0,0.0,0.0,0.0,0.0,0.0,0.0,0.0,0.0,0.0,0.0,0.0,0.0,0.0,0.0,0.0,0.0,0.0,0.0,0.0,0.0,0.0,0.0,0.0,0.0,0.0,0.0,0.0,0.0,0.0,0.0,0.0,0.0,0.0,0.0,0.0,0.0,0.0,0.0,0.0,0.0,0.0,0.0,0.0,0.0,0.0,0.0,0.0,0.0,0.0,0.0,0.0,0.0,0.0,0.0,0.0,0.0,0.0,0.0,0.0,0.0,0.0,0.0,0.0,0.0,0.0,0.0,0.0,0.0,0.0,0.0,0.0,0.0,0.0,0.0,0.0,0.0,0.0,0.0,0.0,0.0,0.0,0.0,0.0,0.0,0.0,0.0,0.0,0.0,0.0,0.0,0.0,0.0,0.0,0.0,0.0,0.0,0.0,0.0,0.0,0.0,0.0,0.0,0.0,0.0,0.0,0.0,0.0,0.0,0.0,0.0,0.0,0.0,0.0,0.0,0.0,0.0,0.0,0.0,0.0,0.0,0.0,0.0,0.0,0.0,0.0,0.0,0.0,0.0,0.0,0.0,0.0,0.0,0.0,0.0,0.0,0.0,0.0,0.0,0.0,0.0,0.0,0.0,0.0,0.0,0.0,0.0,0.0,0.0,0.0,0.0,0.0,0.0,0.0,0.0,0.0,0.0,0.0,0.0,0.0,0.0,0.0,0.0,0.0,0.0,0.0,0.0,0.0,0.0,0.0,0.0,0.0,0.0,0.0,0.0,0.0,0.0,0.0,0.0,0.0,0.0,0.0,0.0,0.0,0.0,0.0,0.0,0.0,0.0,0.0,0.0,0.0,0.0,0.0,0.0,0.0,0.0,0.0,0.0,0.0,0.0,0.0,0.0,0.0,0.0,0.0,0.0,0.0,0.0,0.0,0.0,0.0,0.0,0.0,0.0,0.0,0.0,0.0,0.0,0.0,0.0,0.0,0.0,0.0,0.0,0.0,0.0,0.0,0.0,0.0,0.0,0.0,0.0,0.0,0.0,0.0,0.0,0.0,0.0,0.0,0.0,0.0,0.0,0.0,0.0,0.0,0.0,0.0,0.0,0.0,0.0,0.0,0.0,0.0,0.0,0.0,0.0,0.0,0.0,0.0,0.0,0.0,0.0,0.0,0.0,0.0,0.0,0.0,0.0,0.0,0.0,0.0,0.0,0.0,0.0,0.0,0.0,0.0,0.0,0.0,0.0,0.0,0.0,0.0,0.0,0.0,0.0,0.0,0.0,0.0,0.0,0.0,0.0,0.0,0.0,0.0,0.0,0.0,0.0,0.0,0.0,0.0,0.0,0.0,0.0,0.0,0.0,0.0,0.0,0.0,0.0,0.0,0.0,0.0,0.0,0.0,0.0,0.0,0.0,0.0,0.0,0.0,0.0,0.0,0.0,0.0,0.0,0.0,0.0,0.0,0.0,0.0,0.0,0.0,0.0,0.0,0.0,0.0,0.0,0.0,0.0,0.0,0.0,0.0,0.0,0.0,0.0,0.0,0.0,0.0,0.0,0.0,0.0,0.0,0.0,0.0,0.0,0.0,0.0,0.0,0.0,0.0,0.0,0.0,0.0,0.0,0.0,0.0,0.0,0.0,0.0,0.0,0.0,0.0,0.0,0.0,0.0,0.0,0.0,0.0,0.0,0.0,0.0,0.0,0.0,0.0,0.0,0.0,0.0,0.0,0.0,0.0,0.0,0.0,0.0,0.0,0.0,0.0,0.0,0.0,0.0,0.0,0.0,0.0,0.0,0.0,0.0,0.0,0.0,0.0,0.0,0.0,0.0,0.0,0.0,0.0,0.0,0.0,0.0,0.0,0.0,0.0,0.0,0.0,0.0,0.0,0.0,0.0,0.0,0.0,0.0,0.0,0.0,0.0,0.0,0.0,0.0,0.0,0.0,0.0,0.0,0.0,0.0,0.0,0.0,0.0,0.0,0.0,0.0,0.0,0.0,0.0,0.0,0.0,0.0,0.0,0.0,0.0,0.0,0.0,0.0,0.0,0.0,0.0,0.0,0.0,0.0,0.0,0.0,0.0,0.0,0.0,0.0,0.0,0.0,0.0,0.0,0.0,0.0,0.0,0.0,0.0,0.0,0.0,0.0,0.0,0.0,0.0,0.0,0.0,0.0,0.0,0.0,0.0,0.0,0.0,0.0,0.0,0.0,0.0,0.0,0.0,0.0,0.0,0.0,0.0,0.0,0.0,0.0,0.0,0.0,0.0,0.0,0.0,0.0,0.0,0.0,0.0,0.0,0.0,0.0,0.0,0.0,0.0,0.0,0.0,0.0,0.0,0.0,0.0,0.0,0.0,0.0,0.0,0.0,0.0,0.0,0.0,0.0,0.0,0.0,0.0,0.0,0.0,0.0,0.0,0.0,0.0,0.0,0.0,0.0,0.0,0.0,0.0,0.0,0.0,0.0,0.0,0.0,0.0,0.0,0.0,0.0,0.0,0.0,0.0,0.0,0.0,0.0,0.0,0.0,0.0,0.0,0.0,0.0,0.0,0.0,0.0,0.0,0.0,0.0,0.0,0.0,0.0,0.0,0.0,0.0,0.0,0.0,0.0,0.0,0.0,0.0,0.0,0.0,0.0,0.0,0.0,0.0,0.0,0.0,0.0,0.0,0.0,0.0,0.0,0.0,0.0,0.0,0.0,0.0,0.0,0.0,0.0,0.0,0.0,0.0,0.0,0.0,0.0,0.0,0.0,0.0,0.0,0.0,0.0,0.0,0.0,0.0,0.0,0.0,0.0,0.0,0.0,0.0,0.0,0.0,0.0,0.0,0.0,0.0,0.0,0.0,0.0,0.0,0.0,0.0,0.0,0.0,0.0,0.0,0.0,0.0,0.0,0.0,0.0,0.0,0.0,0.0,1.0102,0.0,0.0,0.0,0.0,0.0,0.0,0.0,0.0,0.0,0.0,0.0,0.0,0.0,0.0,0.0,0.0,0.0,0.0,0.0,0.0,0.0,0.0,0.0,0.0,0.0,0.0,0.0,0.0,0.0,0.0,0.0,0.0,0.0,0.0,0.0,0.0,0.0,0.0,0.0,0.0,0.0,0.0,0.0,0.0,0.0,0.0,0.0,0.0,0.0,0.0,0.0,0.0,0.0,0.0,0.0,0.0,0.0,0.0,0.0,0.0,0.0,0.0,0.0,0.0,0.0,0.0,0.0,0.0,0.0,0.0,0.0,0.0,0.0,0.0,0.0,0.0,0.0,0.0,0.0,0.0,0.0,0.0,0.0,0.0,0.0,0.0,0.0,0.0,0.0,0.0,0.0,0.0,0.0,0.0,0.0,0.0,0.0,0.0,0.0,0.0,0.0,0.0,0.0,0.0,0.0,0.0,0.0,0.0,0.0,0.0,1.0226,1.0185,1.0234,1.0219,1.015,0.0,0.0,0.0,0.0,0.0,0.0,0.0,0.0,0.0,0.0,0.0,0.0,0.0,0.0,0.0,0.0,0.0,0.0,0.0,0.0,0.0,0.0,0.0,0.0,0.0,0.0,0.0,0.0,0.0,0.0,0.0,0.0,0.0,0.0,0.0,0.0,0.0,0.0,0.0,0.0,0.0,0.0,0.0,0.0,0.0,0.0,0.0,0.0,0.0,0.0,0.0,0.0,0.0,0.0,0.0,0.0,0.0,0.0,0.0,0.0,0.0,0.0,0.0,0.0,0.0,0.0,0.0,0.0,0.0,0.0,0.0,0.0,0.0,0.0,0.0,0.0,0.0,0.0,0.0,0.0,0.0,0.0,0.0,0.0,0.0,0.0,0.0,0.0,0.0,0.0,0.0,0.0,0.0,0.0,0.0,0.0,0.0,0.0,0.0,0.0,0.0,0.0,0.0,0.0,0.0,0.0,0.0,0.0,0.0,0.0,0.0,0.0,1.0554,1.0558,1.0479,0.0,0.0,0.0,0.0,0.0,0.0,0.0,0.0,0.0,0.0,0.0,0.0,0.0,0.0,0.0,0.0,0.0,0.0,0.0,0.0,0.0,0.0,0.0,0.0,0.0,0.0,0.0,0.0,0.0,0.0,0.0,0.0,0.0,0.0,0.0,0.0,0.0,0.0,0.0,0.0,0.0,0.0,0.0,0.0,0.0,0.0,0.0,0.0,0.0,0.0,0.0,0.0,0.0,0.0,0.0,0.0,0.0,0.0,0.0,0.0,0.0,0.0,0.0,0.0,0.0,0.0,0.0,0.0,0.0,0.0,0.0,0.0,0.0,0.0,0.0,0.0,0.0,0.0,0.0,0.0,0.0,0.0,0.0,0.0,0.0,0.0,0.0,0.0,0.0,0.0,0.0,0.0,0.0,0.0,0.0,0.0,0.0,0.0,0.0,0.0,0.0,0.0,0.0,0.0,0.0,0.0,0.0,0.0,0.0,0.0,1.0579,1.1344,1.1374,0.0,1.127,0.0,0.0,0.0,0.0,0.0,0.0,0.0,0.0,0.0,0.0,0.0,0.0,0.0,0.0,0.0,0.0,0.0,0.0,0.0,0.0,0.0,0.0,0.0,0.0,0.0,0.0,0.0,0.0,0.0,0.0,0.0,0.0,0.0,0.0,0.0,0.0,0.0,0.0,0.0,0.0,0.0,0.0,0.0,0.0,0.0,0.0,0.0,0.0,0.0,0.0,0.0,0.0,0.0,0.0,0.0,0.0,0.0,0.0,0.0,0.0,0.0,0.0,0.0,0.0,0.0,0.0,0.0,0.0,0.0,0.0,0.0,0.0,0.0,0.0,0.0,0.0,0.0,0.0,0.0,0.0,0.0,0.0,0.0,0.0,0.0,0.0,0.0,0.0,0.0,0.0,0.0,0.0,0.0,0.0,0.0,0.0,0.0,0.0,0.0,0.0,0.0,0.0,0.0,0.0,0.0,0.0,0.0,0.0,0.0,0.0,1.062,1.1489,1.1503,1.1246,0.0,0.0,0.0,0.0,0.0,0.0,0.0,0.0,0.0,0.0,0.0,0.0,0.0,0.0,0.0,0.0,0.0,0.0,0.0,0.0,0.0,0.0,0.0,0.0,0.0,0.0,0.0,0.0,0.0,0.0,0.0,0.0,0.0,0.0,0.0,0.0,0.0,0.0,0.0,0.0,0.0,0.0,0.0,0.0,0.0,0.0,0.0,0.0,0.0,0.0,0.0,0.0,0.0,0.0,0.0,0.0,0.0,0.0,0.0,0.0,0.0,0.0,0.0,0.0,0.0,0.0,0.0,0.0,0.0,0.0,0.0,0.0,0.0,0.0,0.0,0.0,0.0,0.0,0.0,0.0,0.0,0.0,0.0,0.0,0.0,0.0,0.0,0.0,0.0,0.0,0.0,0.0,0.0,0.0,0.0,0.0,0.0,0.0,0.0,0.0,0.0,0.0,0.0,0.0,0.0,0.0,0.0,0.0,0.0,0.0,1.0449,1.0606,1.143,1.129,1.0971,1.0561,0.0,0.0,0.0,0.0,0.0,0.0,0.0,0.0,0.0,0.0,0.0,0.0,0.0,0.0,0.0,0.0,0.0,0.0,0.0,0.0,0.0,0.0,0.0,0.0,0.0,0.0,0.0,0.0,0.0,0.0,0.0,0.0,0.0,0.0,0.0,0.0,0.0,0.0,0.0,0.0,0.0,0.0,0.0,0.0,0.0,0.0,0.0,0.0,0.0,0.0,0.0,0.0,0.0,0.0,0.0,0.0,0.0,0.0,0.0,0.0,0.0,0.0,0.0,0.0,0.0,0.0,0.0,0.0,0.0,0.0,0.0,0.0,0.0,0.0,0.0,0.0,0.0,0.0,0.0,0.0,0.0,0.0,0.0,0.0,0.0,0.0,0.0,0.0,0.0,0.0,0.0,0.0,0.0,0.0,0.0,0.0,0.0,0.0,0.0,0.0,0.0,0.0,0.0,0.0,0.0,0.0,0.0,0.0,1.2423,1.1008,1.0621,1.1422,1.0748,1.0701,0.0,0.0,0.0,0.0,0.0,0.0,0.0,0.0,0.0,0.0,0.0,0.0,0.0,0.0,0.0,0.0,0.0,0.0,0.0,0.0,0.0,0.0,0.0,0.0,0.0,0.0,0.0,0.0,0.0,0.0,0.0,0.0,0.0,0.0,0.0,0.0,0.0,0.0,0.0,0.0,0.0,0.0,0.0,0.0,0.0,0.0,0.0,0.0,0.0,0.0,0.0,0.0,0.0,0.0,0.0,0.0,0.0,0.0,0.0,0.0,0.0,0.0,0.0,0.0,0.0,0.0,0.0,0.0,0.0,0.0,0.0,0.0,0.0,0.0,0.0,0.0,0.0,0.0,0.0,0.0,0.0,0.0,0.0,0.0,0.0,0.0,0.0,0.0,0.0,0.0,0.0,0.0,0.0,0.0,0.0,0.0,0.0,0.0,0.0,0.0,0.0,0.0,0.0,0.0,0.0,0.0,0.0,0.0,0.0,1.1054,1.1034,1.0911,1.0688,1.0915,1.0951,0.0,0.0,0.0,0.0,0.0,0.0,0.0,0.0,0.0,0.0,0.0,0.0,0.0,0.0,0.0,0.0,0.0,0.0,0.0,0.0,0.0,0.0,0.0,0.0,0.0,0.0,0.0,0.0,0.0,0.0,0.0,0.0,0.0,0.0,0.0,0.0,0.0,0.0,0.0,0.0,0.0,0.0,0.0,0.0,0.0,0.0,0.0,0.0,0.0,0.0,0.0,0.0,0.0,0.0,0.0,0.0,0.0,0.0,0.0,0.0,0.0,0.0,0.0,0.0,0.0,0.0,0.0,0.0,0.0,0.0,0.0,0.0,0.0,0.0,0.0,0.0,0.0,0.0,0.0,0.0,0.0,0.0,0.0,0.0,0.0,0.0,0.0,0.0,0.0,0.0,0.0,0.0,0.0,0.0,0.0,0.0,0.0,0.0,0.0,0.0,0.0,0.0,0.0,0.0,0.0,0.0,0.0,0.0,0.0,1.0228,0.0,1.1354,1.0277,1.078,1.082,0.0,0.0,0.0,0.0,0.0,0.0,0.0,0.0,0.0,0.0,0.0,0.0,0.0,0.0,0.0,0.0,0.0,0.0,0.0,0.0,0.0,0.0,0.0,0.0,0.0,0.0,0.0,0.0,0.0,0.0,0.0,0.0,0.0,0.0,0.0,0.0,0.0,0.0,0.0,0.0,0.0,0.0,0.0,0.0,0.0,0.0,0.0,0.0,0.0,0.0,0.0,0.0,0.0,0.0,0.0,0.0,0.0,0.0,0.0,0.0,0.0,0.0,0.0,0.0,0.0,0.0,0.0,0.0,0.0,0.0,0.0,0.0,0.0,0.0,0.0,0.0,0.0,0.0,0.0,0.0,0.0,0.0,0.0,0.0,0.0,0.0,0.0,0.0,0.0,0.0,0.0,0.0,0.0,0.0,0.0,0.0,0.0,0.0,0.0,0.0,0.0,0.0,0.0,0.0,0.0,0.0,0.0,0.0,1.0197,1.0292,1.1833,1.188,1.0288,1.0273,1.0282,0.0,0.0,0.0,0.0,0.0,0.0,0.0,0.0,0.0,0.0,0.0,0.0,0.0,0.0,0.0,0.0,0.0,0.0,0.0,0.0,0.0,0.0,0.0,0.0,0.0,0.0,0.0,0.0,0.0,0.0,0.0,0.0,0.0,0.0,0.0,0.0,0.0,0.0,0.0,0.0,0.0,0.0,0.0,0.0,0.0,0.0,0.0,0.0,0.0,0.0,0.0,0.0,0.0,0.0,0.0,0.0,0.0,0.0,0.0,0.0,0.0,0.0,0.0,0.0,0.0,0.0,0.0,0.0,0.0,0.0,0.0,0.0,0.0,0.0,0.0,0.0,0.0,0.0,0.0,0.0,0.0,0.0,0.0,0.0,0.0,0.0,0.0,0.0,0.0,0.0,0.0,0.0,0.0,0.0,0.0,0.0,0.0,0.0,0.0,0.0,0.0,0.0,0.0,0.0,0.0,0.0,0.0,0.0,0.0,1.1655,1.2022,1.2053,1.1708,1.1127,1.0917,0.0,0.0,0.0,0.0,0.0,0.0,0.0,0.0,0.0,0.0,0.0,0.0,0.0,0.0,0.0,0.0,0.0,0.0,0.0,0.0,0.0,0.0,0.0,0.0,0.0,0.0,0.0,0.0,0.0,0.0,0.0,0.0,0.0,0.0,0.0,0.0,0.0,0.0,0.0,0.0,0.0,0.0,0.0,0.0,0.0,0.0,0.0,0.0,0.0,0.0,0.0,0.0,0.0,0.0,0.0,0.0,0.0,0.0,0.0,0.0,0.0,0.0,0.0,0.0,0.0,0.0,0.0,0.0,0.0,0.0,0.0,0.0,0.0,0.0,0.0,0.0,0.0,0.0,0.0,0.0,0.0,0.0,0.0,0.0,0.0,0.0,0.0,0.0,0.0,0.0,0.0,0.0,0.0,0.0,0.0,0.0,0.0,0.0,0.0,0.0,0.0,0.0,0.0,0.0,0.0,0.0,0.0,0.0,0.0,1.2746,1.2662,1.254,1.2448,1.196,1.1602,1.1432,0.0,0.0,0.0,0.0,0.0,0.0,0.0,0.0,0.0,0.0,0.0,0.0,0.0,0.0,0.0,0.0,0.0,0.0,0.0,0.0,0.0,0.0,0.0,0.0,0.0,0.0,0.0,0.0,0.0,0.0,0.0,0.0,0.0,0.0,0.0,0.0,0.0,0.0,0.0,0.0,0.0,0.0,0.0,0.0,0.0,0.0,0.0,0.0,0.0,0.0,0.0,0.0,0.0,0.0,0.0,0.0,0.0,0.0,0.0,0.0,0.0,0.0,0.0,0.0,0.0,0.0,0.0,0.0,0.0,0.0,0.0,0.0,0.0,0.0,0.0,0.0,0.0,0.0,0.0,0.0,0.0,0.0,0.0,0.0,0.0,0.0,0.0,0.0,0.0,0.0,0.0,0.0,0.0,0.0,0.0,0.0,0.0,0.0,0.0,0.0,0.0,0.0,0.0,0.0,0.0,0.0,0.0,0.0,1.3605,1.3641,1.3361,1.2678,1.2717,1.2326,0.0,0.0,0.0,0.0,0.0,0.0,0.0,0.0,0.0,0.0,0.0,0.0,0.0,0.0,0.0,0.0,0.0,0.0,0.0,0.0,0.0,0.0,0.0,0.0,0.0,0.0,0.0,0.0,0.0,0.0,0.0,0.0,0.0,0.0,0.0,0.0,0.0,0.0,0.0,0.0,0.0,0.0,0.0,0.0,0.0,0.0,0.0,0.0,0.0,0.0,0.0,0.0,0.0,0.0,0.0,0.0,0.0,0.0,0.0,0.0,0.0,0.0,0.0,0.0,0.0,0.0,0.0,0.0,0.0,0.0,0.0,0.0,0.0,0.0,0.0,0.0,0.0,0.0,0.0,0.0,0.0,0.0,0.0,0.0,0.0,0.0,0.0,0.0,0.0,0.0,0.0,0.0,0.0,0.0,0.0,0.0,0.0,0.0,0.0,0.0,0.0,0.0,0.0,0.0,0.0,0.0,0.0,0.0,0.0,1.4777,1.4709,1.4549,1.4349,1.372,1.3055,0.0,0.0,0.0,0.0,0.0,0.0,0.0,0.0,0.0,0.0,0.0,0.0,0.0,0.0,0.0,0.0,0.0,0.0,0.0,0.0,0.0,0.0,0.0,0.0,0.0,0.0,0.0,0.0,0.0,0.0,0.0,0.0,0.0,0.0,0.0,0.0,0.0,0.0,0.0,0.0,0.0,0.0,0.0,0.0,0.0,0.0,0.0,0.0,0.0,0.0,0.0,0.0,0.0,0.0,0.0,0.0,0.0,0.0,0.0,0.0,0.0,0.0,0.0,0.0,0.0,0.0,0.0,0.0,0.0,0.0,0.0,0.0,0.0,0.0,0.0,0.0,0.0,0.0,0.0,0.0,0.0,0.0,0.0,0.0,0.0,0.0,0.0,0.0,0.0,0.0,0.0,0.0,0.0,0.0,0.0,0.0,0.0,0.0,0.0,0.0,0.0,0.0,0.0,0.0,0.0,0.0,0.0,0.0,1.4436,1.5113,1.5877,1.6099,1.5734,1.4748,1.376,0.0,0.0,0.0,0.0,0.0,0.0,0.0,0.0,0.0,0.0,0.0,0.0,0.0,0.0,0.0,0.0,0.0,0.0,0.0,0.0,0.0,0.0,0.0,0.0,0.0,0.0,0.0,0.0,0.0,0.0,0.0,0.0,0.0,0.0,0.0,0.0,0.0,0.0,0.0,0.0,0.0,0.0,0.0,0.0,0.0,0.0,0.0,0.0,0.0,0.0,0.0,0.0,0.0,0.0,0.0,0.0,0.0,0.0,0.0,0.0,0.0,0.0,0.0,0.0,0.0,0.0,0.0,0.0,0.0,0.0,0.0,0.0,0.0,0.0,0.0,0.0,0.0,0.0,0.0,0.0,0.0,0.0,0.0,0.0,0.0,0.0,0.0,0.0,0.0,0.0,0.0,0.0,0.0,0.0,0.0,0.0,0.0,0.0,0.0,0.0,0.0,0.0,0.0,0.0,0.0,0.0,0.0,0.0,1.5115,1.5115,1.6991,1.7618,1.6832,1.5779,1.4393,0.0,0.0,0.0,0.0,0.0,0.0,0.0,0.0,0.0,0.0,0.0,0.0,0.0,0.0,0.0,0.0,0.0,0.0,0.0,0.0,0.0,0.0,0.0,0.0,0.0,0.0,0.0,0.0,0.0,0.0,0.0,0.0,0.0,0.0,0.0,0.0,0.0,0.0,0.0,0.0,0.0,0.0,0.0,0.0,0.0,0.0,0.0,0.0,0.0,0.0,0.0,0.0,0.0,0.0,0.0,0.0,0.0,0.0,0.0,0.0,0.0,0.0,0.0,0.0,0.0,0.0,0.0,0.0,0.0,0.0,0.0,0.0,0.0,0.0,0.0,0.0,0.0,0.0,0.0,0.0,0.0,0.0,0.0,0.0,0.0,0.0,0.0,0.0,0.0,0.0,0.0,0.0,0.0,0.0,0.0,0.0,0.0,0.0,0.0,0.0,0.0,0.0,0.0,0.0,0.0,0.0,0.0,0.0,1.6087,1.6264,1.7382,1.7905,1.7721,1.6536,1.4889,0.0,0.0,0.0,0.0,0.0,0.0,0.0,0.0,0.0,0.0,0.0,0.0,0.0,0.0,0.0,0.0,0.0,0.0,0.0,0.0,0.0,0.0,0.0,0.0,0.0,0.0,0.0,0.0,0.0,0.0,0.0,0.0,0.0,0.0,0.0,0.0,0.0,0.0,0.0,0.0,0.0,0.0,0.0,0.0,0.0,0.0,0.0,0.0,1.1873,0.0,0.0,0.0,0.0,0.0,0.0,0.0,0.0,0.0,0.0,0.0,0.0,0.0,0.0,0.0,0.0,0.0,0.0,0.0,0.0,0.0,0.0,0.0,0.0,0.0,0.0,0.0,0.0,0.0,0.0,0.0,0.0,0.0,0.0,0.0,0.0,0.0,0.0,0.0,0.0,0.0,0.0,0.0,0.0,0.0,0.0,0.0,0.0,0.0,0.0,0.0,0.0,0.0,0.0,0.0,0.0,0.0,0.0,0.0,1.7138,1.7637,1.8664,1.8845,1.8041,1.7221,1.5683,0.0,0.0,0.0,0.0,0.0,0.0,0.0,0.0,0.0,0.0,0.0,0.0,0.0,0.0,0.0,0.0,0.0,0.0,0.0,0.0,0.0,0.0,0.0,0.0,0.0,0.0,0.0,0.0,0.0,0.0,0.0,0.0,0.0,0.0,0.0,0.0,0.0,0.0,0.0,0.0,0.0,0.0,0.0,0.0,0.0,0.0,0.0,0.0,0.0,0.0,0.0,0.0,0.0,0.0,0.0,0.0,0.0,0.0,0.0,0.0,0.0,0.0,0.0,0.0,0.0,0.0,0.0,0.0,0.0,0.0,0.0,0.0,0.0,0.0,0.0,0.0,0.0,0.0,0.0,0.0,0.0,0.0,0.0,0.0,0.0,0.0,0.0,0.0,0.0,0.0,0.0,0.0,0.0,0.0,0.0,0.0,0.0,0.0,0.0,0.0,0.0,0.0,0.0,0.0,0.0,0.0,0.0,1.6861,1.7866,1.8871,1.9869,1.9628,1.8061,1.7713,1.6422,1.3995,0.0,0.0,0.0,0.0,0.0,0.0,0.0,0.0,0.0,0.0,0.0,0.0,0.0,0.0,0.0,0.0,0.0,0.0,0.0,0.0,0.0,0.0,0.0,0.0,0.0,0.0,0.0,0.0,0.0,0.0,0.0,0.0,0.0,0.0,0.0,0.0,0.0,0.0,1.3786,1.3396,0.0,0.0,0.0,0.0,0.0,0.0,0.0,0.0,1.0132,0.0,0.0,0.0,0.0,0.0,0.0,0.0,0.0,0.0,0.0,0.0,0.0,0.0,0.0,0.0,0.0,0.0,0.0,0.0,0.0,0.0,0.0,0.0,0.0,0.0,0.0,0.0,0.0,0.0,0.0,0.0,0.0,0.0,0.0,0.0,0.0,0.0,0.0,0.0,0.0,0.0,0.0,0.0,0.0,0.0,0.0,0.0,0.0,0.0,0.0,0.0,0.0,0.0,0.0,0.0,0.0,1.6111,1.6224,1.7215,1.9155,1.9413,1.9023,1.804,1.7569,1.6546,1.4849,0.0,0.0,0.0,0.0,0.0,0.0,0.0,0.0,0.0,0.0,0.0,0.0,0.0,0.0,0.0,0.0,0.0,0.0,0.0,0.0,0.0,0.0,0.0,0.0,0.0,0.0,0.0,0.0,0.0,0.0,0.0,0.0,0.0,0.0,0.0,0.0,0.0,0.0,0.0,1.3164,1.3124,0.0,0.0,0.0,0.0,0.0,0.0,0.0,0.0,1.0822,0.0,0.0,0.0,0.0,0.0,0.0,0.0,0.0,0.0,0.0,0.0,0.0,0.0,0.0,0.0,0.0,0.0,0.0,0.0,0.0,0.0,0.0,0.0,0.0,0.0,0.0,0.0,0.0,0.0,0.0,0.0,0.0,0.0,0.0,0.0,0.0,0.0,0.0,0.0,0.0,0.0,0.0,0.0,0.0,0.0,0.0,0.0,0.0,0.0,0.0,0.0,0.0,0.0,0.0,0.0,1.6213,1.6692,1.7716,1.9256,1.9746,1.9355,1.8043,1.735,1.6439,0.0,0.0,0.0,0.0,0.0,0.0,0.0,0.0,0.0,0.0,0.0,0.0,0.0,0.0,0.0,0.0,0.0,0.0,0.0,0.0,0.0,0.0,0.0,0.0,0.0,0.0,0.0,0.0,0.0,0.0,0.0,0.0,0.0,0.0,0.0,0.0,0.0,0.0,0.0,0.0,1.3213,1.3175,1.3257,0.0,0.0,0.0,0.0,0.0,0.0,1.1388,1.0931,0.0,0.0,0.0,0.0,0.0,0.0,0.0,0.0,0.0,0.0,0.0,0.0,0.0,0.0,0.0,0.0,0.0,0.0,0.0,0.0,0.0,0.0,0.0,0.0,0.0,0.0,0.0,0.0,0.0,0.0,0.0,0.0,0.0,0.0,0.0,0.0,0.0,0.0,0.0,0.0,0.0,0.0,0.0,0.0,0.0,0.0,0.0,0.0,0.0,0.0,0.0,0.0,0.0,0.0,0.0,1.6276,1.708,1.807,1.925,1.9996,1.9588,1.8045,1.7179,1.621,0.0,0.0,0.0,0.0,0.0,0.0,0.0,0.0,0.0,0.0,0.0,0.0,0.0,0.0,0.0,0.0,0.0,0.0,0.0,0.0,0.0,0.0,0.0,0.0,0.0,0.0,0.0,0.0,0.0,0.0,0.0,0.0,0.0,0.0,0.0,0.0,0.0,0.0,0.0,0.0,0.0,1.3435,1.3474,1.3357,0.0,0.0,0.0,0.0,1.1801,1.1416,0.0,0.0,0.0,0.0,0.0,0.0,0.0,0.0,0.0,0.0,0.0,0.0,0.0,0.0,0.0,0.0,0.0,0.0,0.0,0.0,0.0,0.0,0.0,0.0,0.0,0.0,0.0,0.0,0.0,0.0,0.0,0.0,0.0,0.0,0.0,0.0,0.0,0.0,0.0,0.0,0.0,0.0,0.0,0.0,0.0,0.0,0.0,0.0,0.0,0.0,0.0,0.0,0.0,0.0,0.0,0.0,1.6249,1.6353,1.7339,1.919,1.9384,1.8992,1.8013,1.7217,1.599,0.0,0.0,0.0,0.0,0.0,0.0,0.0,0.0,0.0,0.0,0.0,0.0,0.0,0.0,0.0,0.0,0.0,0.0,0.0,0.0,0.0,0.0,0.0,0.0,0.0,0.0,0.0,0.0,0.0,0.0,0.0,0.0,0.0,0.0,0.0,0.0,0.0,0.0,0.0,0.0,0.0,1.4331,1.3812,1.4021,1.4009,0.0,0.0,1.3581,1.3136,1.3129,0.0,0.0,0.0,0.0,0.0,0.0,0.0,0.0,0.0,0.0,0.0,0.0,0.0,0.0,0.0,0.0,0.0,0.0,0.0,0.0,0.0,0.0,0.0,0.0,0.0,0.0,0.0,0.0,0.0,0.0,0.0,0.0,0.0,0.0,0.0,0.0,0.0,0.0,0.0,0.0,0.0,0.0,0.0,0.0,0.0,0.0,0.0,0.0,0.0,0.0,0.0,0.0,0.0,0.0,0.0,1.4927,1.5564,1.6166,1.6926,1.7808,1.878,1.8641,1.7291,1.6687,1.5676,0.0,0.0,0.0,0.0,0.0,0.0,0.0,0.0,0.0,0.0,0.0,0.0,0.0,0.0,0.0,0.0,0.0,0.0,0.0,0.0,0.0,0.0,0.0,0.0,0.0,0.0,0.0,0.0,0.0,0.0,0.0,0.0,0.0,0.0,0.0,0.0,0.0,0.0,0.0,0.0,0.0,0.0,1.4966,1.4729,0.0,0.0,0.0,1.3914,1.3441,0.0,0.0,0.0,0.0,0.0,0.0,0.0,0.0,0.0,0.0,0.0,0.0,0.0,0.0,0.0,0.0,0.0,0.0,0.0,0.0,0.0,0.0,0.0,0.0,0.0,0.0,0.0,0.0,0.0,0.0,0.0,0.0,0.0,0.0,0.0,0.0,0.0,0.0,0.0,0.0,0.0,0.0,0.0,0.0,0.0,0.0,0.0,0.0,0.0,0.0,0.0,0.0,0.0,0.0,0.0,0.0,0.0,1.5317,1.6222,1.6893,1.7363,1.8628,1.8585,1.7077,1.665,0.0,0.0,0.0,0.0,0.0,0.0,0.0,0.0,0.0,0.0,0.0,0.0,0.0,0.0,0.0,0.0,0.0,0.0,0.0,0.0,0.0,0.0,0.0,0.0,0.0,0.0,0.0,0.9633,0.0,0.0,0.0,0.0,0.0,0.0,0.0,0.0,0.0,0.0,0.0,0.0,0.0,0.0,1.5146,1.5866,1.528,1.4806,0.0,0.0,1.4207,1.355,1.3652,1.3472,0.0,0.0,0.0,0.0,0.0,0.0,0.0,0.0,0.0,0.0,0.0,0.0,0.0,0.0,0.0,0.0,0.0,0.0,0.0,0.0,0.0,0.0,0.0,0.0,0.0,0.0,0.0,0.0,0.0,0.0,0.0,0.0,0.0,0.0,0.0,0.0,0.0,0.0,0.0,0.0,0.0,0.0,0.0,0.0,0.0,0.0,0.0,0.0,0.0,0.0,0.0,0.0,0.0,0.0,0.0,1.6096,1.6508,1.7478,1.9043,1.9237,1.8858,1.7957,1.7527,1.6105,0.0,0.0,0.0,0.0,0.0,0.0,0.0,0.0,0.0,0.0,0.0,0.0,0.0,0.0,0.0,0.0,0.0,0.0,0.0,0.0,0.0,0.0,0.0,0.0,0.0,0.0,0.0,0.0,0.0,0.0,0.0,0.0,0.0,0.0,0.0,0.0,0.0,0.0,0.0,0.0,0.0,1.5523,1.6008,1.5625,1.5304,0.0,0.0,1.4768,1.374,1.5023,1.5206,1.2416,0.0,0.0,0.0,0.0,0.0,0.0,0.0,0.0,0.0,0.0,0.0,0.0,0.0,0.0,0.0,0.0,0.0,0.0,0.0,0.0,0.0,0.0,0.0,0.0,0.0,0.0,0.0,0.0,0.0,0.0,0.0,0.0,0.0,0.0,0.0,0.0,0.0,0.0,0.0,0.0,0.0,0.0,0.0,0.0,0.0,0.0,0.0,0.0,0.0,0.0,0.0,0.0,0.0,1.5743,1.5415,1.6227,1.6973,1.7691,1.8222,1.832,1.8006,1.8176,1.6762,0.0,0.0,0.0,0.0,0.0,0.0,0.0,0.0,0.0,0.0,0.0,0.0,0.0,0.0,0.0,0.0,0.0,0.0,0.0,0.0,0.0,0.0,0.0,0.0,0.0,0.0,0.0,0.0,0.9878,1.0615,1.1642,0.0,0.0,0.0,0.0,0.0,0.0,0.0,0.0,0.0,0.0,1.548,1.6072,1.639,0.0,0.0,1.6391,1.614,1.4796,1.505,1.4765,1.2883,1.2838,0.0,0.0,0.0,0.0,0.0,0.0,0.0,0.0,0.0,0.0,0.0,0.0,0.0,0.0,0.0,0.0,0.0,0.0,0.0,0.0,0.0,0.0,0.0,0.0,0.0,0.0,0.0,0.0,0.0,0.0,0.0,0.0,0.0,0.0,0.0,0.0,0.0,0.0,0.0,0.0,0.0,0.0,0.0,0.0,0.0,0.0,0.0,0.0,0.0,0.0,0.0,0.0,1.635,1.5643,1.6532,1.7274,1.7833,1.8193,1.8373,1.839,1.8749,1.7466,0.0,0.0,0.0,0.0,0.0,0.0,0.0,0.0,0.0,0.0,0.0,0.0,0.0,0.0,0.0,0.0,0.0,0.0,0.0,0.0,0.0,0.0,0.0,0.0,0.0,0.0,0.0,0.0,1.0468,1.1063,1.1181,0.0,0.0,0.0,0.0,0.0,0.0,0.0,0.0,0.0,0.0,1.5559,1.5817,1.6515,1.6781,1.6102,1.6448,1.6316,1.4943,1.4698,1.4298,1.3344,0.0,0.0,0.0,0.0,0.0,0.0,0.0,0.0,0.0,0.0,0.0,0.0,0.0,0.0,0.0,0.0,0.0,0.0,0.0,0.0,0.0,0.0,0.0,0.0,0.0,0.0,0.0,0.0,0.0,0.0,0.9666,0.0,0.0,0.0,0.0,0.0,0.0,0.0,0.0,0.0,0.0,0.0,0.0,0.0,0.0,0.0,0.0,0.0,0.0,0.0,0.0,0.0,0.0,1.6885,1.7327,1.765,1.8668,2.0252,1.9595,1.9207,1.9285,1.9294,1.8213,1.5915,0.0,0.0,0.0,0.0,0.0,0.0,0.0,0.0,0.0,0.0,0.0,0.0,0.0,0.0,0.0,0.0,0.0,0.0,0.0,0.0,0.0,0.0,0.0,0.0,0.0,0.0,1.0238,1.1111,1.1169,0.0,0.0,0.0,0.0,0.0,0.0,0.0,0.0,0.0,0.0,1.5284,1.5831,1.5168,1.5704,1.5945,1.5141,1.5107,1.4817,1.3854,1.4026,1.4153,0.0,0.0,0.0,0.0,0.0,0.0,0.0,0.0,0.0,0.0,0.0,0.0,0.0,0.0,0.0,0.0,0.0,0.0,0.0,0.0,0.0,0.0,0.0,0.0,0.0,0.0,0.0,0.9643,0.9696,0.0,0.0,0.0,0.0,0.0,0.0,0.0,0.0,0.0,0.0,0.0,1.253,1.2702,0.0,0.0,0.0,0.0,0.0,0.0,0.0,0.0,0.0,0.0,0.0,0.0,1.664,1.5815,1.7626,1.8644,1.8718,1.9025,1.9484,2.0075,2.0094,1.9016,1.6769,0.0,0.0,0.0,0.0,0.0,0.0,0.0,0.0,0.0,0.0,0.0,0.0,0.0,0.0,0.0,0.0,0.0,0.0,0.0,0.0,0.0,0.0,0.0,0.0,0.0,1.0204,0.0,0.0,0.0,0.0,0.0,0.0,0.0,0.0,0.0,0.0,0.0,1.4578,1.513,1.4803,1.4776,1.543,1.5531,1.56,0.0,0.0,0.0,0.0,0.0,0.0,0.0,0.0,0.0,0.0,0.0,0.0,0.0,0.0,1.2618,1.2373,1.2533,1.2869,1.3443,0.0,0.0,0.0,0.0,0.0,0.0,0.0,0.0,0.0,0.0,0.0,0.0,0.0,0.0,1.0585,0.0,0.9851,0.0,0.0,0.0,0.0,0.0,0.0,0.0,0.0,1.2234,1.2894,1.3514,1.3489,1.3697,0.0,1.4175,1.391,0.0,0.0,0.0,0.0,0.0,0.0,0.0,0.0,1.6672,1.5685,1.807,1.9142,1.8685,1.9259,1.9852,2.041,2.0161,1.9318,1.7836,1.6016,1.4544,0.0,0.0,0.0,0.0,0.0,0.0,0.0,0.0,0.0,0.0,0.0,0.0,0.0,0.0,0.0,0.0,0.0,0.0,0.0,0.0,0.0,0.0,0.0,1.0933,0.0,0.0,0.0,0.0,0.0,0.0,0.0,0.0,0.0,1.3946,1.4289,1.4795,1.5552,1.4979,1.4738,1.5336,0.0,0.0,0.0,0.0,0.0,0.0,0.0,1.3413,1.3011,1.2975,1.3056,1.3261,1.3144,1.3216,1.377,0.0,0.0,1.24,1.2396,1.2743,1.3395,1.3097,1.2901,1.3411,1.2871,1.2212,0.0,0.0,0.0,0.0,0.0,0.0,0.0,0.0,1.2178,1.1586,0.0,1.0268,0.0,0.0,0.0,0.0,0.0,1.3701,0.0,0.0,1.4785,1.5268,1.4447,1.4549,1.4812,1.5135,1.4457,1.4374,1.4941,1.5567,0.0,0.0,0.0,0.0,0.0,0.0,1.7003,1.6941,1.898,2.0096,2.0112,2.0215,2.0289,2.0283,1.9529,1.907,1.8968,1.6962,1.6176,1.6853,1.4806,0.0,0.0,0.0,0.0,0.0,0.0,0.0,0.0,0.0,0.0,0.0,0.0,0.0,0.0,0.0,0.0,0.0,0.0,0.0,0.0,1.1586,0.0,0.0,0.0,0.0,0.0,0.0,0.0,0.0,0.0,0.0,1.3573,1.4298,1.5034,1.55,0.0,0.0,0.0,0.0,1.5238,1.3275,1.3279,1.3361,1.2815,1.2973,1.3413,1.4074,0.0,0.0,1.5112,1.4907,1.4622,1.4516,1.4504,1.4112,1.2859,1.2582,1.2673,1.2995,1.3003,1.3046,1.342,1.2946,1.243,1.1319,0.0,0.0,0.0,0.0,1.2127,1.2215,1.28,1.2625,1.2283,1.1834,1.1757,0.0,0.0,0.0,0.0,0.0,0.0,1.3313,1.4128,1.4499,1.5368,1.666,1.6551,1.6766,1.7222,1.6795,1.6823,1.7233,1.7407,1.6597,1.4799,0.0,0.0,0.0,0.0,1.668,1.7071,1.8877,1.9625,1.9057,1.9782,2.0175,2.0231,1.9391,1.8698,1.8113,1.806,1.7395,1.6007,1.6597,0.0,0.0,0.0,0.0,0.0,0.0,0.0,0.0,0.0,0.0,0.0,0.0,0.0,0.0,0.0,0.0,0.0,0.0,0.0,1.025,1.1726,1.2319,0.0,0.0,0.0,0.0,0.0,0.0,0.0,0.0,0.0,1.3768,1.3932,1.4195,0.0,0.0,1.3742,1.4028,1.4685,1.5119,1.5075,1.4864,0.0,1.5756,1.4904,1.4238,1.4383,1.4322,1.4479,1.5207,1.5184,1.523,1.5789,1.5531,1.4992,1.4386,1.4025,1.3891,1.3789,1.3626,1.3472,1.3424,1.2974,1.2519,1.156,1.2054,1.1526,1.2055,1.3194,1.2479,1.2892,1.3998,1.3381,1.2998,1.279,1.2792,1.2549,1.2091,1.2374,0.0,0.0,0.0,1.4238,1.5343,1.5232,1.5959,1.7256,1.7272,1.7455,1.7845,1.7681,1.7726,1.8,1.7429,1.6693,1.5733,0.0,0.0,1.5783,1.6572,1.7082,1.7343,1.8851,1.9438,1.8938,1.959,1.9962,2.0022,1.9544,1.8922,1.8149,1.8535,1.8134,1.6851,1.7795,1.6867,0.0,0.0,0.0,0.0,0.0,0.0,0.0,0.0,0.0,0.0,0.0,1.1392,0.0,0.0,0.0,0.0,1.0783,1.0731,1.0684,1.1707,0.0,0.0,0.0,0.0,0.0,0.0,0.0,1.2475,1.3383,1.4078,1.4327,1.4604,1.4915,1.5286,1.4805,1.4555,1.4888,0.0,1.6104,1.6246,1.5636,1.5454,1.6174,1.5612,1.5113,1.5391,1.5413,1.55,1.5968,1.6059,1.6297,1.6678,1.6441,1.5943,1.5663,1.5339,1.4967,1.4545,1.4275,1.4097,1.4124,1.3455,1.2821,1.1784,1.1937,1.1704,1.2419,1.3605,1.3388,1.4087,1.5268,1.4219,1.3663,1.3497,1.3521,1.2733,1.1462,1.2274,0.0,1.5913,1.5318,1.5538,1.6432,1.6565,1.6706,1.685,1.7027,1.7265,1.7485,1.7394,1.7439,1.7528,1.6376,1.6153,1.7011,1.7311,1.701,1.6254,1.7253,1.7794,1.7731,1.88,1.9397,1.9364,1.9561,1.967,1.9763,1.9839,1.9487,1.8731,1.8574,1.8555,1.8592,1.8486,1.7467,1.5415,0.0,0.0,0.0,0.0,0.0,0.0,0.0,0.0,0.0,0.0,0.0,0.0,0.0,0.0,0.0,1.2118,0.0,1.1631,1.1907,0.0,0.0,0.0,1.2797,1.442,1.368,1.3555,1.4918,0.0,0.0,1.5275,1.5991,1.6608,1.6901,1.7021,1.6969,1.6728,1.7393,1.7721,1.6909,1.6061,1.5503,1.5799,1.5853,1.6115,1.6739,1.7213,1.7195,1.706,1.7194,1.7383,1.7435,1.7144,1.6808,1.6705,1.6188,1.5755,1.5109,1.4751,1.4656,1.4901,1.4032,1.312,1.167,1.2406,1.2666,1.2884,1.3032,1.3351,1.3832,1.4416,1.4349,1.435,1.4387,1.4554,1.4393,1.4113,1.4607,1.5,1.5315,1.5462,1.565,1.5811,1.5851,1.6047,1.6351,1.6474,1.6807,1.7319,1.7074,1.688,1.6735,1.6969,1.6824,1.6467,1.6851,1.6858,1.6479,1.6435,1.6877,1.784,1.8228,1.8664,1.9159,1.9206,1.9286,1.9328,1.9508,1.9233,1.8521,1.922,1.9057,1.788,1.8184,1.7233,1.4703,1.4423,0.0,0.0,0.0,0.0,0.0,0.0,0.0,0.0,0.0,1.1511,1.0554,0.0,1.0497,0.0,1.1442,1.2732,1.359,1.4149,0.0,0.0,1.3411,1.3615,1.3843,1.4642,1.5082,1.4897,1.6121,1.696,1.6851,1.7074,1.749,1.8118,1.7423,1.6756,1.6666,1.7611,1.8291,1.8032,1.7861,1.7978,1.8136,1.7799,1.7348,1.7273,1.7012,1.6834,1.6995,1.6979,1.7063,1.7313,1.7128,1.6833,1.6565,1.6076,1.5644,1.5381,1.5147,1.4812,1.4514,1.3619,1.288,1.1427,1.2026,1.2353,1.2501,1.2489,1.3619,1.4224,1.4359,1.4334,1.431,1.4286,1.4423,1.479,1.5343,1.5287,1.5128,1.4967,1.5501,1.5741,1.5657,1.5997,1.6318,1.6623,1.65,1.6594,1.6874,1.6519,1.6296,1.626,1.6594,1.6574,1.618,1.6499,1.6515,1.6211,1.5937,1.6224,1.709,1.749,1.8017,1.8717,1.8735,1.8717,1.8664,1.859,1.8164,1.7365,1.9045,1.8851,1.6586,1.6392,1.5631,1.4053,1.3556,1.2373,0.0,0.0,0.0,0.0,0.0,0.0,0.0,0.0,0.0,0.0,0.0,1.1612,1.0992,1.2546,1.3677,1.394,1.4379,1.4512,1.4132,1.4436,1.489,1.546,1.598,1.6503,1.696,1.7616,1.8128,1.8326,1.8659,1.8742,1.8608,1.8186,1.7892,1.7903,1.8437,1.8869,1.9061,1.8862,1.8738,1.8905,1.8259,1.7763,1.771,1.7298,1.6959,1.7076,1.6903,1.6859,1.7076,1.6876,1.6565,1.6238,1.5712,1.5266,1.5108,1.4834,1.4558,1.4305,1.3487,1.2764,1.1124,1.1318,1.1619,1.1819,1.2107,1.3899,1.4571,1.4435,1.4127,1.3895,1.3795,1.3838,1.4494,1.5554,1.5043,1.475,1.4699,1.551,1.5741,1.5585,1.6346,1.6801,1.6978,1.6693,1.6481,1.6321,1.595,1.5827,1.5953,1.5838,1.5807,1.5805,1.601,1.5859,1.5404,1.5309,1.5521,1.6004,1.671,1.7394,1.7958,1.7889,1.7757,1.7543,1.7238,1.6643,1.5867,1.779,1.7682,1.5044,1.3922,1.3453,1.3606,1.2427,1.164,0.0,1.0199,0.0,0.0,0.0,0.0,0.0,0.0,0.0,0.0,1.3823,1.3869,1.3481,1.4296,1.4613,1.3974,1.4165,1.4576,1.5253,1.5545,1.624,1.7511,1.7231,1.759,1.9341,1.8981,1.8826,1.9421,2.0061,1.9838,1.8951,1.898,1.9175,1.9362,1.9188,1.9259,1.9884,1.9261,1.8697,1.8426,1.7982,1.7762,1.7972,1.7599,1.7284,1.7188,1.6892,1.6705,1.6833,1.6552,1.6151,1.5844,1.5266,1.4823,1.4616,1.4244,1.4057,1.4122,1.344,1.269,1.0777,1.1318,1.1642,1.1972,1.2374,1.3054,1.3294,1.3188,1.3202,1.3371,1.3653,1.3882,1.4172,1.4502,1.4684,1.4614,1.4505,1.521,1.5265,1.4754,1.5772,1.6089,1.5851,1.6207,1.6243,1.5978,1.5745,1.5663,1.567,1.5354,1.4852,1.4274,1.4488,1.4314,1.3716,0.0,0.0,0.0,1.6082,1.6378,1.6346,1.5767,1.5379,1.5164,1.5257,0.0,1.4467,1.3987,1.3722,1.351,1.1904,0.0,0.0,0.0,0.0,0.0,0.0,0.0,0.0,0.0,0.0,0.0,1.2374,1.314,1.3806,1.3464,1.367,1.472,1.5112,1.5695,1.6604,1.6629,1.6593,1.6642,1.6616,1.6697,1.6855,1.718,1.7641,1.7943,1.8324,1.878,1.942,1.9541,1.9644,1.9765,1.9449,1.9265,1.9582,1.9189,1.9098,1.9602,1.9251,1.8777,1.8384,1.8085,1.7771,1.7666,1.7447,1.7199,1.7144,1.682,1.6565,1.668,1.6293,1.5869,1.5623,1.5108,1.4558,1.4316,1.3941,1.3668,1.3742,1.3083,1.2433,1.0462,0.0,1.1158,1.1392,0.0,1.1999,1.2138,1.2089,1.2589,1.2929,1.3142,1.3351,1.3596,1.3844,1.4138,1.4247,1.4161,1.4894,1.5032,1.4724,1.5569,1.5931,1.5903,1.589,1.5964,1.6022,1.5468,1.5189,1.5087,1.4761,1.4279,1.3709,1.3868,1.3835,1.3656,1.3809,1.4306,1.511,1.553,1.5878,1.6138,1.582,1.5469,1.511,1.5031,0.0,0.0,0.0,0.0,0.0,0.0,0.0,0.0,0.0,0.0,1.3616,1.2999,1.2516,1.2291,1.2327,1.2684,1.336,1.4306,1.4809,1.4852,1.5055,1.546,1.6177,1.6322,1.6669,1.7299,1.7239,1.7142,1.7034,1.6924,1.6907,1.7108,1.709,1.7462,1.8297,1.8377,1.8687,1.969,1.9713,1.963,1.9626,1.9231,1.8955,1.9126,1.8955,1.8921,1.9302,1.8988,1.8567,1.8319,1.7868,1.7544,1.7297,1.6892,1.6637,1.6595,1.6337,1.6175,1.612,1.5812,1.5457,1.5153,1.4662,1.4244,1.3999,1.361,1.3218,1.3054,1.2575,1.1947,0.9991,1.036,1.0506,1.0608,1.082,1.1074,1.1175,1.1276,0.0,0.0,0.0,1.2735,1.2957,1.3362,1.3627,1.3804,1.3905,1.453,1.4775,1.4695,1.535,1.576,1.5917,1.564,1.5661,1.599,1.5229,1.4739,1.4593,1.4297,1.3995,1.3731,1.3706,1.3773,1.3934,1.4283,1.4526,1.4699,1.4941,1.5345,1.5905,1.5905,1.5635,1.5152,1.4901,1.4409,1.3695,1.2676,1.2496,1.3272,1.4182,1.4658,1.4467,1.388,1.3648,1.3839,1.3185,1.3068,1.3728,1.384,1.4391,1.5664,1.6423,1.6538,1.5933,1.6795,1.7296,1.7199,1.7296,1.7305,1.7208,1.7134,1.7059,1.7016,1.6969,1.7109,1.7354,1.7003,1.7208,1.8455,1.813,1.8221,1.9275,1.9478,1.9451,1.9072,1.8916,1.8743,1.8708,1.8767,1.8773,1.8797,1.8475,1.8201,1.7988,1.7544,1.706,1.6837,1.6324,1.5988,1.5901,1.578,1.5603,1.5513,1.5334,1.5028,1.4616,1.4208,1.3831,1.3621,1.317,1.2628,1.2141,1.1649,1.1098,0.9249,0.9718,0.9873,1.0087,1.0419,1.0573,1.0718,1.1023,1.1569,1.1968,1.2175,1.2224,1.255,1.3064,1.3208,1.3476,1.375,1.4326,1.4205,1.3659,1.4725,1.4998,1.4611,1.5171,1.5404,1.5357,1.4981,1.4738,1.4565,1.4201,1.4029,1.3987,1.374,1.3493,1.3301,1.3408,1.363,1.3881,1.4044,1.4141,1.4146,1.3657,1.3276,1.3073,1.3149,1.2902,1.2393,1.2327,1.2355,1.2542,1.243,1.3108,1.4688,1.4435,1.4524,1.5211,1.5134,1.4991,1.4887,1.4883,1.5266,1.6173,1.6378,1.6501,1.6654,1.6885,1.7003,1.6889,1.7019,1.7083,1.6914,1.694,1.6889,1.6749,1.7203,1.7326,1.662,1.6802,1.6901,1.6751,1.6418,1.6664,1.7546,1.7949,1.8407,1.8702,1.8918,1.9038,1.8711,1.8783,1.866,1.8147,1.7922,1.7679,1.7282,1.6934,1.6595,1.6207,1.5988,1.5736,1.5647,1.5424,1.5198,1.5153,1.5051,1.4729,1.4186,1.3842,1.3364,1.2793,1.2344,1.1801,1.0922,1.0007,0.9285,0.9093,0.951,0.9614,0.9769,0.994,1.0154,1.0411,1.0667,1.0922,1.1326,1.1778,1.1877,1.2067,1.2403,1.255,1.2764,1.3054,1.3328,1.3211,1.3,1.3708,1.4025,1.3989,1.4426,1.4686,1.4709,1.4462,1.4205,1.3883,1.38,1.3743,1.3622,1.34,1.3249,1.3119,1.2995,1.301,1.3216,1.3742,1.4038,1.4122,1.3861,1.3663,1.3589,1.367,1.3703,1.3615,1.3837,1.4081,1.4337,1.4242,1.4629,1.553,1.5448,1.5491,1.5794,1.5836,1.5695,1.5453,1.5379,1.5563,1.6037,1.6123,1.6179,1.6316,1.6596,1.6732,1.6626,1.6773,1.6785,1.6665,1.6639,1.6543,1.6409,1.6639,1.6558,1.61,1.6138,1.6307,1.6308,1.6278,1.6667,1.77,1.8022,1.8303,1.8817,1.8881,1.8616,1.824,1.8108,1.8042,1.7841,1.7571,1.7256,1.6905,1.6479,1.612,1.5812,1.5591,1.5379,1.5142,1.4926,1.4789,1.4569,1.4565,1.4341,1.3658,1.3044,1.2511,1.2187,1.1584,1.0872,0.9946,0.8403,0.7063,0.8725,0.9204,0.9302,0.9413,0.9517,0.9681,0.994,1.0205,1.0146,1.0454,1.1006,1.1368,1.1619,1.1778,1.1819,1.1986,1.2153,1.2184,1.2157,1.2227,1.2677,1.3084,1.3334,1.3525,1.3705,1.3894,1.3752,1.3528,1.3194,1.3456,1.3521,1.3348,1.3254,1.3112,1.2962,1.2576,1.2449,1.2615,1.3319,1.3868,1.4181,1.4214,1.4227,1.4241,1.4369,1.4578,1.4783,1.5074,1.5374,1.5711,1.5782,1.5839,1.5896,1.5938,1.5881,1.5754,1.5826,1.5754,1.5565,1.5536,1.558,1.5726,1.5799,1.5842,1.5856,1.6136,1.6367,1.6394,1.6421,1.6448,1.6378,1.6324,1.6188,1.6093,1.6144,1.6076,1.577,1.5832,1.5965,1.6242,1.6432,1.6928,1.7543,1.8036,1.8303,1.8508,1.8344,1.7935,1.7625,1.7284,1.7242,1.7201,1.7034,1.674,1.6595,1.6044,1.5603,1.5367,1.4994,1.4674,1.4408,1.4269,1.4025,1.3658,1.3693,1.3453,1.2783,1.2015,1.1405,1.109,1.0493,0.9673,0.8403,0.6704,0.5097,0.7883,0.8474,0.8633,0.8942,0.9152,0.8988,0.9099,0.9316,0.904,0.9197,0.9718,1.0557,1.1074,1.1326,1.1217,1.1217,1.1158,1.1226,1.12,1.1225,1.1751,1.2166,1.2421,1.253,1.2735,1.2958,1.2832,1.2831,1.2974,1.3375,1.3623,1.3718,1.362,1.3166,1.2508,1.2009,1.1836,1.1884,1.2318,1.2873,1.348,1.3682,1.3769,1.3769,1.4124,1.4337,1.4438,1.4596,1.4735,1.4887,1.4982,1.4982,1.4966,1.5104,1.5106,1.4956,1.5045,1.5104,1.5104,1.5225,1.5389,1.5522,1.558,1.561,1.561,1.5595,1.5769,1.5996,1.608,1.605,1.6059,1.6001,1.5877,1.5697,1.6157,1.644,1.5802,1.6522,1.6673,1.5338,1.6192,1.6599,1.6013,1.6775,1.747,1.7719,1.7571,1.7271,1.6951,1.6667,1.6355,1.617,1.6139,1.6095,1.5724,1.5379,1.4915,1.4547,1.4154,1.3768,1.3389,1.3006,1.2657,1.2355,1.2332,1.2104,1.1375,1.0612,1.0124,0.9651,0.8933,0.7923,0.6067,0.4882,0.4284,0.7595,0.8209,0.8104,0.8262,0.8586,0.8474,0.8527,0.8738,0.8679,0.8837,0.9099,0.9569,1.0035,1.0387,1.0659,1.0667,1.0557,1.0769,1.0854,1.088,1.1309,1.1678,1.1828,1.19,1.199,1.199,1.2039,1.2039,1.2197,1.2618,1.2977,1.3052,1.2785,1.2403,1.1933,1.1594,1.1494,1.1627,1.1945,1.2318,1.2673,1.3022,1.3344,1.3514,1.3682,1.3782,1.3868,1.3986,1.4149,1.4356,1.4456,1.4519,1.461,1.469,1.4707,1.4645,1.4752,1.4873,1.4951,1.5027,1.5102,1.5209,1.5225,1.5255,1.5239,1.5179,1.5239,1.5374,1.5551,1.5638,1.5593,1.549,1.5345,1.5195,1.5339,1.5293,1.493,1.5618,1.58,1.5197,1.5868,1.6437,1.6261,1.6807,1.721,1.7193,1.6915,1.66,1.6262,1.5908,1.5478,1.4994,1.4755,1.4675,1.4687,1.4365,1.3935,1.3511,1.3062,1.258,1.215,1.1796,1.139,1.099,1.0981,1.0728,1.012,0.9137,0.8443,0.8134,0.7357,0.623,0.5058,0.4122,0.3516,0.729,0.7688,0.7632,0.767,0.7842,0.7783,0.7836,0.8002,0.8117,0.8362,0.8571,0.8751,0.9112,0.9589,1.0061,1.0142,0.9955,1.0291,1.0482,1.0438,1.0744,1.0956,1.1116,1.1099,1.1133,1.1124,1.12,1.12,1.1301,1.1783,1.2166,1.2334,1.2024,1.173,1.1562,1.1435,1.1411,1.1497,1.1751,1.1964,1.2224,1.246,1.2791,1.3104,1.3173,1.3207,1.331,1.3399,1.3568,1.3756,1.3842,1.396,1.4117,1.4181,1.4246,1.4278,1.4383,1.4511,1.4627,1.4641,1.4718,1.4797,1.4752,1.4752,1.4721,1.4686,1.4592,1.4564,1.4766,1.4907,1.5074,1.4897,1.4727,1.4588,1.442,1.4332,1.448,1.4964,1.5283,1.5174,1.5806,1.6294,1.6546,1.6565,1.6462,1.6372,1.6114,1.5828,1.5516,1.5061,1.4468,1.3799,1.3185,1.3042,1.3527,1.3137,1.2609,1.2064,1.1571,1.0956,1.0629,1.0207,0.9783,0.9172,0.9297,0.9037,0.839,0.7571,0.6866,0.6699,0.5964,0.4772,0.3843,0.307,0.2627,0.685,0.696,0.7192,0.7144,0.6961,0.6761,0.681,0.7031,0.721,0.7531,0.7964,0.8317,0.8682,0.8984,0.95,0.9559,0.9341,0.9721,0.9853,0.971,0.9844,1.0035,1.0249,1.0028,1.0072,1.0423,1.036,1.0387,1.0578,1.1023,1.1534,1.1938,1.1486,1.1315,1.1378,1.1465,1.1512,1.145,1.1661,1.193,1.2101,1.1983,1.2089,1.2473,1.2603,1.272,1.2838,1.2908,1.2931,1.2965,1.3082,1.3163,1.3198,1.3412,1.3581,1.3648,1.3754,1.3868,1.3947,1.4065,1.4195,1.4287,1.4227,1.4117,1.4084,1.4019,1.3888,1.3669,1.3702,1.3934,1.4337,1.4246,1.4132,1.4099,1.4006,1.4201,1.4683,1.4972,1.5261,1.5344,1.5831,1.6166,1.5997,1.5374,1.5215,1.5207,1.5083,1.4949,1.479,1.4171,1.3328,1.2435,1.1751,1.1373,1.2006,1.1545,1.0906,1.0351,0.9731,0.8971,0.8561,0.8146,0.7664,0.7292,0.7346,0.7079,0.6602,0.6063,0.5567,0.5093,0.444,0.3458,0.24,0.1958,0.14,0.6014,0.6087,0.6559,0.6572,0.6341,0.6406,0.6442,0.6514,0.6865,0.7175,0.7374,0.7654,0.8008,0.8322,0.8824,0.9074,0.9118,0.9412,0.9555,0.9498,0.9606,0.9707,0.9767,0.9707,0.9638,0.9643,0.9681,0.9777,0.9953,1.0174,1.0311,1.0352,1.0416,1.0497,1.0543,1.0857,1.1135,1.1433,1.1584,1.1695,1.1764,1.1554,1.1527,1.1686,1.2066,1.2246,1.2234,1.2318,1.2401,1.2473,1.2508,1.2579,1.272,1.2943,1.3082,1.3163,1.3267,1.3323,1.3369,1.3467,1.3622,1.3689,1.3689,1.3609,1.3555,1.3488,1.3319,1.3045,1.2931,1.3022,1.3126,1.3365,1.3634,1.3813,1.3534,1.3518,1.4111,1.452,1.47,1.4791,1.5168,1.5365,1.5163,1.4812,1.4575,1.4392,1.4297,1.4201,1.4046,1.3266,1.2083,1.1156,1.025,0.9541,0.9224,0.9372,0.9068,0.8554,0.7982,0.7393,0.6924,0.644,0.5959,0.5684,0.5579,0.5358,0.498,0.4769,0.4278,0.3782,0.3128,0.2077,0.0895,0.0621,-0.017,0.557,0.5563,0.5952,0.5877,0.5578,0.5908,0.5897,0.5788,0.6429,0.6708,0.6812,0.7146,0.7578,0.8016,0.8376,0.8546,0.8683,0.9042,0.9225,0.9253,0.9309,0.9422,0.9408,0.9321,0.9234,0.9159,0.9134,0.9204,0.9347,0.9406,0.9394,0.9357,0.9627,0.9842,1.0004,1.0466,1.0919,1.1222,1.1365,1.1382,1.1318,1.1182,1.1032,1.1011,1.1393,1.1696,1.1748,1.1847,1.192,1.1993,1.1982,1.2102,1.2246,1.2401,1.2484,1.2532,1.2708,1.2743,1.2685,1.2883,1.3045,1.2998,1.3032,1.3045,1.2941,1.2871,1.2661,1.2378,1.2198,1.2138,1.2138,1.233,1.2722,1.318,1.2985,1.2977,1.3435,1.3736,1.3951,1.4127,1.4281,1.4365,1.4283,1.419,1.3924,1.3643,1.3416,1.3296,1.3154,1.2026,1.0527,0.9334,0.8554,0.7882,0.741,0.7191,0.734,0.6924,0.6494,0.591,0.5366,0.4827,0.4446,0.4119,0.3898,0.3677,0.3511,0.335,0.3072,0.2685,0.1922,0.097,0.0057,-0.0575,-0.1258,0.5393,0.5317,0.5517,0.5251,0.4838,0.5213,0.5163,0.4997,0.5742,0.6171,0.628,0.6931,0.7429,0.7886,0.8091,0.8105,0.8057,0.8577,0.8873,0.8857,0.8909,0.8974,0.9084,0.8776,0.8726,0.8932,0.8717,0.8685,0.8778,0.8725,0.8817,0.9138,0.9259,0.9503,0.9768,1.0318,1.0698,1.085,1.098,1.1001,1.0948,1.084,1.0655,1.0414,1.0711,1.1085,1.1459,1.1452,1.1479,1.1505,1.1542,1.1653,1.1737,1.1799,1.1811,1.1847,1.2054,1.2102,1.1982,1.2282,1.2354,1.2198,1.2294,1.2294,1.2174,1.2102,1.1957,1.1641,1.1505,1.1442,1.1308,1.1255,1.1485,1.2025,1.2431,1.2575,1.2749,1.2836,1.3087,1.3501,1.3552,1.3409,1.3362,1.3266,1.3102,1.2793,1.2395,1.2039,1.1849,1.0667,0.8856,0.7101,0.6617,0.6514,0.5823,0.5179,0.5332,0.5328,0.4944,0.4508,0.4064,0.3569,0.3292,0.3016,0.2736,0.2514,0.2345,0.2125,0.1845,0.1402,0.0571,-0.0173,-0.1031,-0.1716,-0.2066,0.4908,0.4684,0.4836,0.4791,0.4629,0.4944,0.4955,0.4819,0.5399,0.5656,0.5746,0.625,0.6746,0.7107,0.739,0.756,0.7757,0.7925,0.7996,0.8182,0.8526,0.8714,0.8722,0.8681,0.8595,0.8482,0.8568,0.8444,0.824,0.8262,0.8421,0.8633,0.8942,0.9311,0.9613,0.9967,1.0257,1.0647,1.0581,1.0565,1.0511,1.0677,1.0573,1.0303,1.0664,1.0856,1.0663,1.0811,1.0888,1.0954,1.0916,1.0954,1.1019,1.1142,1.1207,1.1282,1.1468,1.1542,1.1468,1.1579,1.1653,1.1579,1.1579,1.1542,1.1468,1.1378,1.1201,1.0916,1.0764,1.0649,1.0631,1.0789,1.1098,1.1744,1.164,1.1935,1.2541,1.2789,1.2969,1.2984,1.2793,1.2608,1.251,1.2412,1.2197,1.1832,1.1316,1.083,1.0072,0.9435,0.8103,0.605,0.5773,0.5328,0.4783,0.4294,0.4236,0.4174,0.3846,0.3519,0.3021,0.2629,0.2296,0.1905,0.1625,0.1349,0.1179,0.0952,0.0728,0.0227,-0.0462,-0.1322,-0.2267,-0.2748,-0.2982,0.4404,0.427,0.4403,0.4429,0.4332,0.458,0.4529,0.4417,0.4838,0.5009,0.5186,0.5614,0.6148,0.6548,0.6876,0.7138,0.7335,0.7265,0.7325,0.7536,0.8091,0.8411,0.8544,0.8603,0.8477,0.8233,0.8166,0.8057,0.7848,0.7848,0.8002,0.8215,0.8639,0.8949,0.9302,0.9562,0.9821,1.0035,1.0028,0.998,0.9953,1.0204,1.0278,1.0153,1.0481,1.0552,1.0351,1.0293,1.0311,1.0419,1.039,1.039,1.0428,1.0544,1.0582,1.0687,1.0829,1.0895,1.0878,1.0992,1.0981,1.0905,1.0878,1.0878,1.0833,1.076,1.0735,1.0508,1.0481,1.0394,1.0321,1.0409,1.0708,1.0968,1.1185,1.154,1.2268,1.2375,1.2368,1.2269,1.2058,1.1868,1.1728,1.1628,1.136,1.0947,1.0372,0.9629,0.8744,0.809,0.6529,0.5281,0.4732,0.4288,0.3846,0.3516,0.3239,0.3072,0.285,0.2631,0.2298,0.2017,0.1681,0.1064,0.0673,0.0341,0.0114,-0.0056,-0.0281,-0.0916,-0.1468,-0.242,-0.3261,-0.3459,-0.3747,0.3956,0.402,0.4154,0.4088,0.3883,0.4169,0.4097,0.377,0.4124,0.4426,0.4625,0.5101,0.5624,0.6222,0.6556,0.6688,0.6745,0.6811,0.6942,0.712,0.7632,0.8071,0.8355,0.8432,0.8299,0.7994,0.7732,0.7601,0.7632,0.749,0.7473,0.7901,0.8321,0.858,0.8837,0.9152,0.9316,0.9256,0.9309,0.9295,0.9221,0.9592,0.9766,0.9758,1.0092,1.0281,1.0189,0.99,0.9822,0.9965,0.9986,0.9996,0.9998,0.9988,1.0056,1.0068,1.0167,1.0254,1.0302,1.0518,1.0479,1.0293,1.04,1.0342,1.0309,1.0409,1.045,1.0271,1.0342,1.0357,1.0144,1.0079,1.0032,1.0055,1.0756,1.1369,1.1593,1.1422,1.1416,1.1499,1.1267,1.1074,1.1015,1.0922,1.06,1.0115,0.9585,0.8685,0.757,0.6568,0.532,0.445,0.3793,0.3461,0.3072,0.2959,0.2685,0.2519,0.2296,0.2074,0.1852,0.1514,0.1075,0.0452,-0.0171,-0.052,-0.0813,-0.0925,-0.128,-0.1788,-0.255,-0.3501,-0.396,-0.4125,-0.4442,0.3513,0.3726,0.373,0.3744,0.3789,0.388,0.386,0.3748,0.386,0.3939,0.4122,0.4406,0.4891,0.5226,0.5627,0.6024,0.635,0.6486,0.6683,0.6881,0.7077,0.75,0.7932,0.817,0.8025,0.7683,0.7549,0.7458,0.7343,0.7231,0.7317,0.7628,0.8002,0.8321,0.8527,0.8679,0.8784,0.8784,0.8784,0.8837,0.8837,0.9256,0.9377,0.9261,0.973,0.9872,0.9659,0.9461,0.9512,0.9732,0.9688,0.9612,0.9646,0.973,0.9715,0.9564,0.9664,0.9795,0.9869,1.0143,1.0242,1.0206,1.0273,1.0371,1.0319,1.0054,0.9949,0.9846,0.9779,0.969,0.9531,0.9522,0.9517,0.97,1.0167,1.0578,1.0654,1.0746,1.0764,1.0744,1.0557,1.0403,1.0249,1.0079,0.9769,0.9131,0.8435,0.7629,0.6396,0.5425,0.434,0.3511,0.2905,0.2685,0.2462,0.2348,0.2183,0.202,0.1852,0.1738,0.1515,0.129,0.0741,0.0116,-0.0594,-0.1087,-0.1453,-0.1693,-0.2148,-0.266,-0.325,-0.4028,-0.4461,-0.471,-0.5044,0.3125,0.3351,0.3338,0.336,0.3558,0.3558,0.3558,0.356,0.3558,0.3692,0.3825,0.4156,0.4489,0.4827,0.5226,0.562,0.6017,0.6152,0.6288,0.6482,0.6544,0.6941,0.7442,0.7723,0.7578,0.7365,0.736,0.7188,0.7058,0.7017,0.7138,0.7209,0.7568,0.7783,0.7937,0.8262,0.8474,0.858,0.8626,0.8626,0.8685,0.8844,0.8942,0.8942,0.934,0.9358,0.9104,0.9052,0.9182,0.9416,0.9423,0.9335,0.9343,0.9379,0.9369,0.9282,0.9494,0.9677,0.9767,0.9987,1.0057,1.0031,1.0088,1.003,0.9956,0.9728,0.9682,0.9533,0.9492,0.9377,0.9133,0.9052,0.904,0.9105,0.9285,0.9572,0.9964,1.0152,1.0064,0.9932,0.9725,0.9569,0.942,0.919,0.8652,0.7906,0.7202,0.623,0.5152,0.4281,0.3514,0.2738,0.2237,0.2071,0.2017,0.1961,0.1792,0.1628,0.1413,0.1354,0.1129,0.0902,0.0455,-0.0175,-0.0974,-0.1628,-0.1997,-0.2433,-0.3076,-0.3544,-0.4033,-0.4559,-0.5014,-0.537,-0.5697,0.275,0.2945,0.2954,0.3025,0.3159,0.3159,0.3226,0.3159,0.3159,0.3357,0.3625,0.4023,0.4223,0.4694,0.4752,0.5213,0.555,0.5756,0.5826,0.5954,0.6013,0.6388,0.6963,0.7113,0.7112,0.7096,0.6974,0.6909,0.6866,0.6902,0.6799,0.6812,0.6977,0.7133,0.7402,0.7836,0.8215,0.8415,0.8415,0.8421,0.848,0.848,0.8474,0.8468,0.8672,0.8768,0.8731,0.872,0.882,0.9212,0.912,0.905,0.9058,0.9058,0.9097,0.9159,0.9326,0.9542,0.974,0.9804,0.9888,0.9649,0.9641,0.9564,0.9431,0.9452,0.9369,0.9167,0.9394,0.9191,0.8903,0.8678,0.8502,0.8462,0.829,0.862,0.9242,0.9451,0.9302,0.9047,0.883,0.8613,0.8402,0.8031,0.7492,0.6768,0.6013,0.5144,0.422,0.3511,0.2738,0.2014,0.168,0.1511,0.1569,0.1572,0.1402,0.1236,0.1081,0.0913,0.0628,0.0399,0.0114,-0.0467,-0.1367,-0.2038,-0.2475,-0.3056,-0.3786,-0.44,-0.4838,-0.5394,-0.5925,-0.6129,-0.6409,0.2454,0.2675,0.273,0.2889,0.3025,0.3025,0.3025,0.3025,0.2889,0.2887,0.3021,0.3155,0.3487,0.3887,0.3941,0.4148,0.5077,0.5355,0.5498,0.5547,0.5683,0.5885,0.6276,0.6542,0.6811,0.6823,0.6741,0.68,0.6873,0.6571,0.6384,0.6375,0.6579,0.6815,0.6977,0.7328,0.7628,0.7883,0.7996,0.8002,0.7949,0.8062,0.8002,0.7783,0.7931,0.8178,0.8298,0.8436,0.8508,0.8615,0.8684,0.87,0.8749,0.8799,0.8762,0.8692,0.8825,0.8928,0.8902,0.9285,0.943,0.9107,0.9254,0.9409,0.9198,0.8969,0.8877,0.8713,0.8719,0.8577,0.8311,0.8137,0.7871,0.7664,0.7616,0.767,0.7931,0.8137,0.8243,0.8037,0.7871,0.7759,0.7706,0.7058,0.6406,0.5579,0.4816,0.4055,0.3287,0.2571,0.1902,0.112,0.0616,0.0448,0.073,0.0791,0.0685,0.0513,0.0345,0.0116,-0.0116,-0.0526,-0.0939,-0.1399,-0.1924,-0.2521,-0.3138,-0.3656,-0.4412,-0.4973,-0.5588,-0.6052,-0.6494,-0.6759,-0.7058,0.2465,0.2439,0.2541,0.2688,0.2822,0.2889,0.2889,0.2822,0.2753,0.2686,0.2753,0.2889,0.3203,0.349,0.3753,0.4273,0.4486,0.4869,0.4989,0.5019,0.5107,0.5318,0.548,0.5847,0.6214,0.6392,0.6517,0.6561,0.6502,0.6309,0.6071,0.594,0.6202,0.6313,0.6589,0.6924,0.7345,0.7574,0.7676,0.7681,0.7628,0.7521,0.7473,0.709,0.7133,0.7295,0.7396,0.7503,0.7551,0.7629,0.7745,0.8088,0.841,0.8454,0.842,0.837,0.8473,0.8459,0.8514,0.8588,0.8741,0.8473,0.8691,0.8803,0.8771,0.852,0.8255,0.8139,0.8003,0.785,0.754,0.7289,0.7079,0.6972,0.681,0.6756,0.6804,0.7182,0.7343,0.7128,0.6966,0.6799,0.6475,0.5937,0.5105,0.4281,0.3176,0.2404,0.184,0.1175,0.084,0.0168,-0.0448,-0.0617,-0.0225,-0.0057,-0.0116,-0.0351,-0.0588,-0.0891,-0.1255,-0.1686,-0.2125,-0.2448,-0.2641,-0.3361,-0.3934,-0.4483,-0.5014,-0.5675,-0.6203,-0.6671,-0.699,-0.721,-0.7593,0.2477,0.2153,0.2288,0.2484,0.2606,0.2614,0.2611,0.2601,0.2616,0.2476,0.2603,0.2937,0.2952,0.3215,0.3776,0.4035,0.4153,0.4167,0.4315,0.4525,0.4587,0.4772,0.4931,0.5242,0.5488,0.5885,0.6067,0.61,0.6002,0.5875,0.5775,0.5681,0.5711,0.5948,0.6183,0.6572,0.7038,0.7296,0.728,0.7236,0.7252,0.6977,0.6761,0.649,0.6376,0.6376,0.6426,0.6421,0.6421,0.6367,0.6544,0.7036,0.7515,0.7955,0.8008,0.7978,0.8029,0.7939,0.7763,0.787,0.7882,0.7859,0.7913,0.7978,0.8037,0.7925,0.7682,0.7475,0.7315,0.6993,0.6766,0.6544,0.6376,0.6213,0.6,0.5837,0.5891,0.6322,0.6317,0.6154,0.5991,0.5878,0.5293,0.4646,0.3808,0.2863,0.1748,0.0848,0.0282,-0.0057,-0.0341,-0.0799,-0.1433,-0.1684,-0.1284,-0.1753,-0.1668,-0.1741,-0.1926,-0.2191,-0.2582,-0.2968,-0.3299,-0.3188,-0.3432,-0.411,-0.4684,-0.5088,-0.5672,-0.6346,-0.6745,-0.7134,-0.7396,-0.7727,-0.8052,0.2305,0.1951,0.2153,0.2324,0.2349,0.2329,0.2318,0.2289,0.2127,0.1989,0.2016,0.2207,0.2432,0.2437,0.2234,0.2957,0.3732,0.3767,0.3742,0.4045,0.4146,0.4196,0.4509,0.4665,0.4824,0.5027,0.5289,0.5401,0.5481,0.5468,0.5432,0.5562,0.5532,0.5672,0.5889,0.6164,0.6429,0.6675,0.6656,0.6541,0.641,0.6263,0.605,0.5782,0.5668,0.5559,0.55,0.5496,0.5437,0.5265,0.5614,0.566,0.576,0.6475,0.6918,0.7074,0.7069,0.7009,0.6848,0.6902,0.6848,0.6804,0.6907,0.7069,0.7139,0.709,0.6972,0.6756,0.6485,0.6164,0.5991,0.5882,0.5773,0.5555,0.5395,0.5285,0.5069,0.503,0.5144,0.5053,0.5033,0.4879,0.4207,0.3447,0.2483,0.1572,0.0528,-0.0352,-0.0933,-0.1168,-0.1348,-0.1824,-0.2363,-0.246,-0.2434,-0.3166,-0.362,-0.3648,-0.3732,-0.3898,-0.4181,-0.4382,-0.4529,-0.4351,-0.4324,-0.4717,-0.5232,-0.5789,-0.626,-0.6937,-0.7265,-0.7526,-0.7787,-0.8047,-0.8441,0.2082,0.1776,0.1815,0.1852,0.1835,0.1855,0.1852,0.1901,0.1752,0.1683,0.172,0.1851,0.1885,0.1827,0.1989,0.2512,0.2975,0.3304,0.3193,0.3304,0.3593,0.3791,0.4035,0.4061,0.4151,0.4154,0.4284,0.4461,0.4576,0.4711,0.4851,0.4918,0.4954,0.5044,0.5247,0.559,0.5719,0.5852,0.5887,0.5858,0.5576,0.5386,0.5062,0.4897,0.4732,0.457,0.4457,0.4508,0.434,0.4168,0.4398,0.4281,0.4333,0.4663,0.5382,0.5873,0.5987,0.5878,0.5714,0.5714,0.5664,0.5778,0.5937,0.615,0.6268,0.6322,0.6218,0.5991,0.5719,0.5454,0.5449,0.5344,0.512,0.4901,0.4739,0.4522,0.4373,0.4194,0.4169,0.4131,0.4203,0.3892,0.3128,0.2263,0.1256,0.0242,-0.0733,-0.1459,-0.211,-0.2224,-0.2345,-0.2851,-0.335,-0.3569,-0.3688,-0.4275,-0.4925,-0.5091,-0.5234,-0.5353,-0.5567,-0.5623,-0.566,-0.5697,-0.5694,-0.5632,-0.6187,-0.6789,-0.719,-0.7461,-0.7722,-0.7917,-0.8172,-0.8431,-0.8829,0.1798,0.1482,0.1437,0.1414,0.141,0.1416,0.1414,0.1477,0.1589,0.1517,0.1475,0.1568,0.1483,0.1426,0.1782,0.2117,0.2171,0.2754,0.2718,0.2564,0.299,0.3315,0.3359,0.3377,0.3489,0.3416,0.3286,0.3355,0.3855,0.4004,0.4094,0.4274,0.4271,0.4296,0.4496,0.4892,0.4942,0.4984,0.5035,0.5061,0.4768,0.4343,0.3901,0.3846,0.3627,0.3463,0.3405,0.3516,0.3405,0.3234,0.3234,0.3178,0.2843,0.3012,0.3677,0.445,0.4677,0.4732,0.468,0.4625,0.4736,0.4846,0.4952,0.5226,0.5445,0.5504,0.5449,0.5171,0.4952,0.4791,0.4798,0.472,0.4549,0.4307,0.4101,0.3842,0.3702,0.3579,0.3485,0.3443,0.3394,0.294,0.2249,0.1354,0.0371,-0.0811,-0.1767,-0.2443,-0.3045,-0.3134,-0.3324,-0.3866,-0.4338,-0.4678,-0.4918,-0.5165,-0.5713,-0.6081,-0.6129,-0.627,-0.6415,-0.6613,-0.666,-0.6685,-0.678,-0.6785,-0.7353,-0.7591,-0.7657,-0.7787,-0.8047,-0.8301,-0.8495,-0.8765,-0.9098,0.1511,0.1096,0.1126,0.1277,0.1432,0.1158,0.1153,0.1257,0.1452,0.1375,0.1192,0.1161,0.1083,0.1105,0.1565,0.1779,0.1947,0.2155,0.2345,0.2197,0.241,0.2683,0.2872,0.2681,0.275,0.2737,0.2741,0.3084,0.3409,0.3531,0.373,0.386,0.3919,0.4053,0.4067,0.4156,0.4167,0.4215,0.4039,0.3749,0.3482,0.3297,0.3072,0.2852,0.2687,0.2573,0.2464,0.2637,0.2639,0.2238,0.2298,0.2073,0.1789,0.2352,0.2517,0.285,0.3125,0.3677,0.3852,0.3925,0.3937,0.3999,0.4104,0.4301,0.4504,0.4678,0.4622,0.4629,0.4369,0.4169,0.4147,0.42,0.4014,0.3786,0.3574,0.3432,0.328,0.3095,0.2921,0.2793,0.281,0.2174,0.1494,0.0505,-0.0511,-0.1679,-0.2794,-0.3418,-0.3974,-0.4124,-0.4242,-0.475,-0.5216,-0.5559,-0.5901,-0.623,-0.659,-0.6994,-0.6967,-0.6997,-0.7126,-0.7325,-0.7483,-0.7497,-0.7579,-0.75,-0.7623,-0.7787,-0.7852,-0.8047,-0.8306,-0.8565,-0.8888,-0.9157,-0.9426,0.0809,0.044,0.0609,0.0768,0.0865,0.0712,0.0777,0.1018,0.1132,0.1062,0.0897,0.0975,0.0963,0.0999,0.1416,0.1769,0.1979,0.2047,0.1949,0.1946,0.1947,0.2084,0.214,0.2189,0.2244,0.219,0.2291,0.2487,0.2845,0.3017,0.3155,0.3222,0.3288,0.3215,0.3485,0.3383,0.3372,0.3324,0.3133,0.2832,0.2651,0.2573,0.2464,0.2244,0.1965,0.163,0.1522,0.1885,0.1707,0.1193,0.098,0.087,0.0626,0.0909,0.1146,0.1231,0.1454,0.2124,0.297,0.3076,0.3218,0.3314,0.3394,0.349,0.3653,0.3587,0.3589,0.3544,0.3424,0.336,0.3358,0.3406,0.3287,0.3104,0.2922,0.2759,0.2668,0.2597,0.2455,0.2312,0.2086,0.1421,0.0706,-0.0259,-0.1308,-0.2563,-0.3567,-0.4216,-0.4866,-0.5383,-0.5455,-0.5498,-0.5952,-0.6396,-0.6733,-0.7098,-0.7409,-0.7722,-0.7591,-0.7627,-0.7697,-0.7842,-0.7787,-0.7857,-0.7762,-0.7767,-0.7852,-0.8047,-0.8182,-0.8312,-0.8506,-0.8759,-0.9081,-0.9472,-0.9804,0.037,-0.0,0.0178,0.029,0.0345,0.0468,0.0651,0.0781,0.0948,0.0941,0.0789,0.0916,0.0975,0.103,0.1378,0.1727,0.1979,0.1919,0.1734,0.1668,0.1664,0.1661,0.1776,0.1817,0.187,0.178,0.1926,0.2057,0.2238,0.2409,0.2554,0.2552,0.2621,0.2552,0.2547,0.2584,0.2659,0.2551,0.2422,0.2172,0.1891,0.1781,0.167,0.144,0.1092,0.0747,0.0519,0.0644,0.041,-0.0176,-0.0658,-0.0719,-0.0526,-0.0291,-0.0116,-0.0,0.0171,0.0628,0.1549,0.2034,0.2373,0.2536,0.2738,0.2743,0.2565,0.2519,0.2644,0.2932,0.2749,0.2755,0.2713,0.278,0.2467,0.2282,0.2102,0.1986,0.181,0.1707,0.1541,0.1374,0.106,0.0599,-0.0133,-0.0999,-0.2074,-0.3349,-0.4295,-0.503,-0.5624,-0.6214,-0.628,-0.6152,-0.6338,-0.6841,-0.7312,-0.7722,-0.8117,-0.8182,-0.8052,-0.7917,-0.7852,-0.7722,-0.7657,-0.7727,-0.7867,-0.8052,-0.8117,-0.8317,-0.8517,-0.8576,-0.87,-0.8894,-0.9215,-0.967,-1.011,0.0617,-0.0,-0.0,-0.0,0.0061,0.0655,0.072,0.0617,0.0957,0.1018,0.0927,0.0988,0.0929,0.1057,0.1268,0.1468,0.1495,0.1774,0.1577,0.1431,0.1357,0.1422,0.1472,0.1451,0.149,0.1566,0.1679,0.1705,0.1752,0.1913,0.2068,0.2221,0.222,0.2085,0.2007,0.2047,0.1975,0.1913,0.1824,0.1504,0.1127,0.0835,0.0607,0.0182,-0.0122,-0.0307,-0.0368,-0.0613,-0.0975,-0.1576,-0.198,-0.1977,-0.1453,-0.12,-0.101,-0.0942,-0.0881,-0.0589,-0.0059,0.0954,0.1575,0.1672,0.1754,0.1809,0.15,0.2231,0.2535,0.2304,0.188,0.212,0.2192,0.2202,0.1522,0.1331,0.1145,0.096,0.077,0.0643,0.0522,0.0333,0.0067,-0.0269,-0.1074,-0.1945,-0.2482,-0.3692,-0.4891,-0.5627,-0.602,-0.6544,-0.6675,-0.6675,-0.6675,-0.706,-0.7652,-0.7982,-0.7917,-0.7852,-0.7787,-0.7657,-0.7587,-0.7526,-0.733,-0.7615,-0.7821,-0.8067,-0.8414,-0.8701,-0.886,-0.8814,-0.8899,-0.9215,-0.9658,-1.0238,-1.0611,0.0675,-0.0063,-0.0475,-0.0411,-0.0,0.0247,0.0502,0.0765,0.0982,0.1109,0.1016,0.0762,0.0762,0.0896,0.0717,0.0456,0.0191,0.0905,0.09,0.095,0.1005,0.113,0.1181,0.1288,0.1333,0.1344,0.1397,0.1543,0.161,0.1621,0.1577,0.1661,0.1747,0.1816,0.1737,0.1592,0.1472,0.1243,0.099,0.0554,0.035,-0.006,-0.0367,-0.066,-0.1288,-0.1601,-0.1915,-0.2198,-0.2373,-0.2499,-0.281,-0.2538,-0.2186,-0.1857,-0.1659,-0.1579,-0.1576,-0.1587,-0.136,-0.0248,0.0634,0.0714,0.0784,0.0648,0.0323,0.0649,0.065,0.0586,0.0583,0.0645,0.0456,0.0393,0.0263,0.0196,0.0065,-0.0197,-0.0329,-0.0525,-0.0658,-0.0802,-0.0872,-0.1007,-0.1946,-0.2954,-0.3357,-0.3964,-0.516,-0.6156,-0.6482,-0.6675,-0.6806,-0.6872,-0.6872,-0.6872,-0.7466,-0.7526,-0.7591,-0.7521,-0.7521,-0.7414,-0.7292,-0.7064,-0.7007,-0.7363,-0.788,-0.824,-0.8639,-0.9025,-0.9108,-0.9049,-0.9227,-0.953,-1.0104,-1.0735,-1.1094,0.0184,-0.038,-0.0984,-0.0914,-0.037,-0.0191,0.0065,0.0393,0.0534,0.0667,0.0654,0.0327,0.0261,0.0394,0.0266,-0.0132,-0.0323,0.0193,0.0444,0.056,0.0736,0.0915,0.1025,0.1071,0.1119,0.1198,0.1258,0.1335,0.1351,0.1402,0.137,0.1336,0.1346,0.1413,0.1413,0.1208,0.105,0.0702,0.0255,-0.0317,-0.0537,-0.0987,-0.1265,-0.1491,-0.1959,-0.2227,-0.2498,-0.2783,-0.2972,-0.3039,-0.3128,-0.3077,-0.2775,-0.2485,-0.2224,-0.2139,-0.2189,-0.239,-0.2099,-0.1423,-0.0657,-0.0799,-0.0468,-0.0601,-0.0739,-0.0806,-0.0599,-0.0802,-0.1072,-0.1545,-0.1612,-0.1538,-0.1401,-0.1457,-0.1326,-0.1532,-0.16,-0.1798,-0.1867,-0.1945,-0.208,-0.2281,-0.2948,-0.3887,-0.4359,-0.4694,-0.5355,-0.6218,-0.6613,-0.6806,-0.6872,-0.6876,-0.6876,-0.6942,-0.7073,-0.7143,-0.7148,-0.7199,-0.7148,-0.714,-0.6946,-0.6783,-0.7123,-0.773,-0.8243,-0.8539,-0.9007,-0.9684,-0.9559,-0.9279,-0.9685,-1.0218,-1.0784,-1.1397,-1.1537,-0.0986,-0.1116,-0.1465,-0.137,-0.1059,-0.0652,-0.0524,-0.0601,-0.0403,-0.0269,-0.0201,-0.0334,-0.0401,-0.0402,-0.0403,-0.0595,-0.0583,-0.0064,0.0254,0.0309,0.0662,0.0891,0.0941,0.0932,0.0992,0.1007,0.1083,0.1176,0.1033,0.1239,0.1264,0.1142,0.1146,0.1214,0.1078,0.0741,0.0332,-0.0,-0.0463,-0.0978,-0.1533,-0.1883,-0.1975,-0.2225,-0.2433,-0.2706,-0.2911,-0.3183,-0.3379,-0.352,-0.359,-0.36,-0.3517,-0.3448,-0.323,-0.2961,-0.3023,-0.3089,-0.3033,-0.2443,-0.2336,-0.2211,-0.181,-0.1743,-0.1878,-0.1744,-0.1676,-0.2013,-0.2619,-0.3362,-0.3496,-0.3295,-0.3023,-0.2885,-0.2751,-0.2684,-0.2751,-0.3082,-0.3147,-0.3357,-0.356,-0.3892,-0.4287,-0.4821,-0.5362,-0.5693,-0.5885,-0.628,-0.6749,-0.6876,-0.7007,-0.6876,-0.6815,-0.6867,-0.6871,-0.6779,-0.6766,-0.6824,-0.6858,-0.6864,-0.6953,-0.7065,-0.7455,-0.8211,-0.8746,-0.9187,-0.98,-1.0441,-1.0473,-1.067,-1.0639,-1.1108,-1.1586,-1.1945,-1.2033,-0.1434,-0.1463,-0.1863,-0.1967,-0.181,-0.1666,-0.1535,-0.1276,-0.1211,-0.1076,-0.0941,-0.1143,-0.1076,-0.1008,-0.1073,-0.1126,-0.1103,-0.1096,-0.0763,0.0123,0.0599,0.0842,0.0956,0.0888,0.0886,0.0968,0.1051,0.107,0.1034,0.1117,0.0931,0.0805,0.0809,0.108,0.0876,0.0269,-0.0663,-0.1825,-0.191,-0.1845,-0.2223,-0.2358,-0.2469,-0.2694,-0.2932,-0.3157,-0.336,-0.3627,-0.3828,-0.3964,-0.4095,-0.3961,-0.3894,-0.383,-0.357,-0.3502,-0.3633,-0.4032,-0.4232,-0.4138,-0.3877,-0.3416,-0.3082,-0.2948,-0.2948,-0.3147,-0.3147,-0.3282,-0.3754,-0.4228,-0.4161,-0.403,-0.3892,-0.3887,-0.3818,-0.3687,-0.382,-0.4278,-0.4547,-0.4779,-0.5062,-0.5659,-0.6158,-0.6463,-0.6864,-0.6998,-0.7203,-0.6924,-0.717,-0.7086,-0.7073,-0.6942,-0.6824,-0.6768,-0.6739,-0.6764,-0.6722,-0.6802,-0.6742,-0.6627,-0.6835,-0.7391,-0.8201,-0.9055,-0.9536,-1.0014,-1.074,-1.1471,-1.2019,-1.2303,-1.2093,-1.1906,-1.2154,-1.2312,-1.2333,-0.2045,-0.1935,-0.2215,-0.2378,-0.2351,-0.2154,-0.1951,-0.1748,-0.1681,-0.1547,-0.1479,-0.1681,-0.1748,-0.1614,-0.1678,-0.1738,-0.1638,-0.1424,-0.1221,-0.025,0.0425,0.0608,0.0731,0.0851,0.0857,0.0872,0.0945,0.0957,0.0854,0.0985,0.0597,0.0134,0.0337,0.0405,0.0135,-0.0671,-0.1604,-0.2447,-0.2401,-0.2324,-0.2544,-0.2696,-0.2867,-0.3113,-0.3392,-0.3627,-0.3961,-0.4161,-0.4292,-0.4428,-0.4428,-0.4361,-0.4295,-0.4228,-0.4161,-0.4289,-0.4483,-0.4885,-0.5213,-0.5411,-0.5077,-0.4677,-0.448,-0.435,-0.4281,-0.448,-0.4544,-0.4613,-0.4752,-0.4821,-0.4891,-0.4761,-0.4824,-0.4885,-0.4882,-0.4818,-0.4821,-0.5213,-0.5877,-0.6183,-0.6431,-0.7129,-0.7839,-0.8205,-0.8513,-0.8581,-0.8576,-0.8199,-0.7773,-0.7612,-0.7518,-0.7236,-0.7083,-0.7113,-0.7001,-0.6802,-0.6822,-0.6839,-0.6916,-0.6986,-0.7734,-0.8473,-0.9222,-0.9961,-1.0603,-1.1243,-1.1911,-1.253,-1.2926,-1.3189,-1.3067,-1.2965,-1.2808,-1.2819,-1.2836,-0.2775,-0.2468,-0.2657,-0.2684,-0.2619,-0.222,-0.2018,-0.1951,-0.1951,-0.1884,-0.1884,-0.1884,-0.1951,-0.2085,-0.2153,-0.2016,-0.1804,-0.1373,-0.1038,-0.0704,-0.0063,0.0125,0.0436,0.0684,0.0757,0.0641,0.0648,0.0654,0.0538,0.0603,0.0067,-0.0606,-0.0472,-0.0472,-0.0808,-0.1412,-0.2216,-0.2546,-0.2678,-0.2673,-0.2856,-0.3006,-0.3218,-0.3476,-0.3756,-0.4028,-0.4292,-0.4492,-0.4755,-0.4957,-0.509,-0.5226,-0.5292,-0.5428,-0.5428,-0.5491,-0.555,-0.5815,-0.6079,-0.6207,-0.6338,-0.6137,-0.6272,-0.6009,-0.5745,-0.5675,-0.5609,-0.5543,-0.5543,-0.5613,-0.5617,-0.5752,-0.5818,-0.5881,-0.6009,-0.5947,-0.5822,-0.6269,-0.6979,-0.7382,-0.75,-0.8142,-0.9066,-0.9627,-0.989,-1.0242,-1.0236,-1.0015,-0.9479,-0.8564,-0.8322,-0.7829,-0.7631,-0.755,-0.7453,-0.746,-0.75,-0.7735,-0.781,-0.8032,-0.8811,-0.9652,-1.0307,-1.11,-1.1806,-1.2437,-1.2927,-1.3322,-1.375,-1.3837,-1.3897,-1.3667,-1.3383,-1.3393,-1.3465,-0.322,-0.2858,-0.3013,-0.3023,-0.2889,-0.2824,-0.2624,-0.2288,-0.2288,-0.2221,-0.2153,-0.2153,-0.2085,-0.2018,-0.2153,-0.2018,-0.181,-0.1536,-0.1066,-0.0724,-0.0581,-0.0324,0.0065,0.0516,0.0652,0.0461,0.0333,0.02,0.0067,0.0135,-0.027,-0.0944,-0.1012,-0.1146,-0.1549,-0.2021,-0.229,-0.2557,-0.2691,-0.2958,-0.3159,-0.3362,-0.3563,-0.3828,-0.3964,-0.4292,-0.4625,-0.4758,-0.509,-0.5418,-0.5484,-0.5554,-0.576,-0.576,-0.5826,-0.628,-0.6478,-0.6613,-0.6872,-0.7073,-0.7265,-0.733,-0.7526,-0.726,-0.6863,-0.6601,-0.6605,-0.6474,-0.6338,-0.6338,-0.6408,-0.6478,-0.6544,-0.6671,-0.6798,-0.6736,-0.6696,-0.7132,-0.787,-0.8572,-0.8692,-0.9362,-1.0314,-1.074,-1.1108,-1.1663,-1.185,-1.1554,-1.1069,-1.0101,-0.9338,-0.8826,-0.8596,-0.8615,-0.8533,-0.8558,-0.8577,-0.8592,-0.8809,-0.9238,-1.005,-1.0844,-1.1461,-1.2182,-1.287,-1.3381,-1.3765,-1.4065,-1.4289,-1.4505,-1.4514,-1.4258,-1.4,-1.3935,-1.379,-0.3572,-0.3355,-0.3424,-0.3291,-0.3092,-0.3159,-0.296,-0.2624,-0.2555,-0.2421,-0.2221,-0.2221,-0.2153,-0.2085,-0.2085,-0.1951,-0.1681,-0.1544,-0.1208,-0.1002,-0.0992,-0.0664,-0.02,0.0066,-0.0,-0.0067,-0.0337,-0.0538,-0.0606,-0.0876,-0.1213,-0.1348,-0.1348,-0.1616,-0.1952,-0.2087,-0.2288,-0.249,-0.2758,-0.3161,-0.3362,-0.3565,-0.3763,-0.4028,-0.4161,-0.4625,-0.5156,-0.5292,-0.5756,-0.6276,-0.6408,-0.6544,-0.6679,-0.6745,-0.6872,-0.726,-0.733,-0.7396,-0.7591,-0.7722,-0.7852,-0.7987,-0.8252,-0.8117,-0.7852,-0.7587,-0.7461,-0.733,-0.7129,-0.7064,-0.7134,-0.7199,-0.726,-0.7321,-0.7386,-0.7521,-0.7749,-0.7994,-0.8711,-0.9493,-1.0153,-1.0707,-1.1319,-1.1726,-1.2164,-1.2465,-1.2613,-1.2492,-1.2056,-1.1357,-1.0629,-1.0111,-0.9896,-0.9752,-0.9686,-0.9704,-0.9732,-0.9889,-1.0205,-1.0718,-1.1367,-1.1972,-1.2573,-1.3223,-1.3867,-1.4129,-1.4201,-1.4497,-1.4649,-1.4792,-1.4721,-1.4361,-1.4072,-1.4072,-1.3855,-0.3949,-0.3825,-0.3758,-0.3493,-0.3226,-0.3159,-0.3092,-0.2956,-0.2753,-0.2487,-0.2221,-0.2221,-0.2153,-0.2018,-0.2018,-0.1816,-0.1614,-0.1479,-0.1344,-0.1076,-0.1074,-0.0875,-0.074,-0.0607,-0.0604,-0.094,-0.121,-0.1211,-0.148,-0.1548,-0.1548,-0.1816,-0.1681,-0.1817,-0.2018,-0.2154,-0.2423,-0.276,-0.296,-0.3226,-0.3429,-0.3694,-0.3894,-0.4161,-0.4561,-0.509,-0.5815,-0.6354,-0.6832,-0.7428,-0.7761,-0.7836,-0.7977,-0.8043,-0.8163,-0.827,-0.8306,-0.8336,-0.838,-0.8414,-0.8382,-0.8447,-0.8517,-0.8576,-0.8371,-0.8042,-0.7852,-0.7815,-0.7636,-0.7698,-0.7722,-0.7826,-0.794,-0.8007,-0.8098,-0.828,-0.8517,-0.9015,-0.9738,-1.0503,-1.0979,-1.1535,-1.1833,-1.226,-1.267,-1.31,-1.3215,-1.3179,-1.2942,-1.2451,-1.1886,-1.1255,-1.0994,-1.0864,-1.0833,-1.0783,-1.0953,-1.1218,-1.1514,-1.1944,-1.2456,-1.3092,-1.3695,-1.4065,-1.4346,-1.4418,-1.4569,-1.4713,-1.4713,-1.4569,-1.4425,-1.4289,-1.4145,-1.4145,-1.3928,-0.4017,-0.3892,-0.3696,-0.3429,-0.3159,-0.3092,-0.2956,-0.2753,-0.2555,-0.2354,-0.2221,-0.2154,-0.2018,-0.1816,-0.2018,-0.1883,-0.1479,-0.1412,-0.1344,-0.1211,-0.1145,-0.1146,-0.1012,-0.1012,-0.1145,-0.1481,-0.1681,-0.1748,-0.1748,-0.1748,-0.1681,-0.1681,-0.1748,-0.2018,-0.2287,-0.2423,-0.2624,-0.3096,-0.3161,-0.336,-0.3629,-0.3828,-0.4025,-0.4428,-0.496,-0.5561,-0.6254,-0.6877,-0.7588,-0.8358,-0.8559,-0.877,-0.9108,-0.9103,-0.9332,-0.9593,-0.9462,-0.9315,-0.9185,-0.9094,-0.8961,-0.8776,-0.877,-0.8829,-0.8635,-0.8306,-0.8108,-0.8164,-0.8193,-0.8263,-0.8361,-0.8518,-0.859,-0.8694,-0.8849,-0.9081,-0.9382,-1.0067,-1.0864,-1.1315,-1.1729,-1.2063,-1.2372,-1.276,-1.3193,-1.3484,-1.3557,-1.3615,-1.3665,-1.3381,-1.2885,-1.2312,-1.2004,-1.1832,-1.1873,-1.1911,-1.2077,-1.2251,-1.2526,-1.3039,-1.355,-1.3912,-1.4353,-1.4425,-1.4641,-1.4641,-1.4641,-1.4713,-1.4641,-1.4425,-1.4281,-1.4145,-1.4065,-1.3992,-1.3848,-0.4092,-0.4022,-0.3744,-0.3496,-0.3228,-0.3092,-0.3023,-0.2822,-0.2622,-0.2421,-0.2221,-0.2221,-0.2018,-0.1681,-0.1951,-0.1816,-0.1344,-0.1344,-0.1277,-0.1144,-0.1212,-0.1347,-0.1348,-0.1415,-0.1548,-0.1816,-0.1951,-0.1951,-0.1951,-0.1951,-0.1951,-0.1951,-0.2153,-0.2354,-0.2691,-0.2758,-0.2963,-0.3563,-0.35,-0.3701,-0.3969,-0.4225,-0.4492,-0.496,-0.5624,-0.6308,-0.7074,-0.7788,-0.8685,-0.9378,-0.9758,-0.9854,-1.0068,-1.0166,-1.0436,-1.0542,-1.0398,-1.0131,-0.9995,-0.9718,-0.9462,-0.9255,-0.8969,-0.8975,-0.9156,-0.8838,-0.8573,-0.855,-0.8555,-0.8617,-0.884,-0.8992,-0.9085,-0.9173,-0.9567,-0.9896,-1.0305,-1.0852,-1.1452,-1.1771,-1.2218,-1.2592,-1.2949,-1.334,-1.3682,-1.385,-1.3988,-1.39,-1.403,-1.4274,-1.3784,-1.3408,-1.3106,-1.2913,-1.2919,-1.3018,-1.3169,-1.3404,-1.3565,-1.3958,-1.4385,-1.4649,-1.4856,-1.4832,-1.4697,-1.4569,-1.4641,-1.472,-1.4457,-1.4145,-1.4072,-1.4072,-1.3992,-1.392,-1.3775,-0.4212,-0.4027,-0.3855,-0.3558,-0.3228,-0.3159,-0.3092,-0.2956,-0.2753,-0.2487,-0.2154,-0.2288,-0.2018,-0.1816,-0.1748,-0.1547,-0.1412,-0.1277,-0.1143,-0.1277,-0.148,-0.1615,-0.1749,-0.1817,-0.1951,-0.2017,-0.2151,-0.2287,-0.2354,-0.2354,-0.2421,-0.249,-0.2626,-0.2758,-0.3094,-0.324,-0.3457,-0.3946,-0.4152,-0.4473,-0.4718,-0.4954,-0.5219,-0.5749,-0.6506,-0.7446,-0.824,-0.9015,-0.9822,-1.041,-1.0855,-1.0979,-1.1057,-1.1184,-1.1447,-1.1497,-1.1262,-1.0925,-1.061,-1.0257,-1.0001,-0.97,-0.9397,-0.9331,-0.96,-0.9553,-0.9287,-0.9236,-0.9242,-0.9162,-0.9395,-0.9589,-0.9664,-0.9909,-1.0337,-1.0754,-1.123,-1.1696,-1.2038,-1.2452,-1.2753,-1.3207,-1.3469,-1.3881,-1.4134,-1.4301,-1.4313,-1.4194,-1.4229,-1.4673,-1.4641,-1.4466,-1.4213,-1.4132,-1.3905,-1.4033,-1.4116,-1.4271,-1.4498,-1.4848,-1.5201,-1.5356,-1.5235,-1.488,-1.4792,-1.479,-1.4718,-1.4699,-1.4329,-1.4011,-1.4137,-1.4225,-1.392,-1.3848,-1.3783,-0.413,-0.3862,-0.3818,-0.3558,-0.3226,-0.3092,-0.2956,-0.2753,-0.2555,-0.2288,-0.2085,-0.2153,-0.2018,-0.1614,-0.1614,-0.1479,-0.1344,-0.121,-0.1344,-0.1547,-0.1614,-0.1816,-0.2018,-0.222,-0.2221,-0.2354,-0.2554,-0.2755,-0.269,-0.2757,-0.2891,-0.296,-0.323,-0.3368,-0.3645,-0.3813,-0.4082,-0.4582,-0.5044,-0.5477,-0.577,-0.5978,-0.6013,-0.6581,-0.7412,-0.8297,-0.9129,-0.9863,-1.0597,-1.1269,-1.1706,-1.1794,-1.19,-1.2047,-1.2255,-1.2308,-1.1998,-1.1676,-1.132,-1.0956,-1.0704,-1.0442,-1.0257,-1.0374,-1.0491,-1.0633,-1.0511,-1.0554,-1.0496,-1.0231,-1.0331,-1.0451,-1.056,-1.0994,-1.1429,-1.173,-1.2084,-1.2497,-1.2903,-1.3207,-1.3448,-1.3689,-1.3953,-1.4319,-1.4712,-1.4926,-1.5091,-1.5028,-1.4751,-1.5096,-1.5468,-1.5396,-1.527,-1.4848,-1.4497,-1.4773,-1.4883,-1.5104,-1.5365,-1.5626,-1.5881,-1.598,-1.5798,-1.5201,-1.5216,-1.5284,-1.5119,-1.47,-1.461,-1.4385,-1.4446,-1.4423,-1.4079,-1.3965,-1.4003]},{"header":{"parameterUnit":"m.s-1","parameterCategory":1,"la1":31.0,"la2":29.5877,"lo1":-88.7671,"lo2":-86.6584,"dy":0.0162,"dx":0.0185,"nx":115,"ny":88,"refTime":"2023-08-16T12:00:00:Z","depth":0,"parameterNumber":3,"parameterNumberName":"V-component_of_WINDS"},"data":[0.0,0.0,0.0,0.0,0.0,0.0,0.0,0.0,0.0,0.0,0.0,0.0,0.0,0.0,0.0,0.0,0.0,0.0,0.0,0.0,0.0,0.0,0.0,0.0,0.0,0.0,0.0,0.0,0.0,0.0,0.0,0.0,0.0,0.0,0.0,0.0,0.0,0.0,0.0,0.0,0.0,0.0,0.0,0.0,0.0,0.0,0.0,0.0,0.0,0.0,0.0,0.0,0.0,0.0,0.0,0.0,0.0,0.0,0.0,0.0,0.0,0.0,0.0,0.0,0.0,0.0,0.0,0.0,0.0,0.0,0.0,0.0,0.0,0.0,0.0,0.0,0.0,0.0,0.0,0.0,0.0,0.0,0.0,0.0,0.0,0.0,0.0,0.0,0.0,0.0,0.0,0.0,0.0,0.0,0.0,0.0,0.0,0.0,0.0,0.0,0.0,0.0,0.0,0.0,0.0,0.0,0.0,0.0,0.0,0.0,0.0,0.0,0.0,0.0,0.0,0.0,0.0,0.0,0.0,0.0,0.0,0.0,0.0,0.0,0.0,0.0,0.0,0.0,0.0,0.0,0.0,0.0,0.0,0.0,0.0,0.0,0.0,0.0,0.0,0.0,0.0,0.0,0.0,0.0,0.0,0.0,0.0,0.0,0.0,0.0,0.0,0.0,0.0,0.0,0.0,0.0,0.0,0.0,0.0,0.0,0.0,0.0,0.0,0.0,0.0,0.0,0.0,0.0,0.0,0.0,0.0,0.0,0.0,0.0,0.0,0.0,0.0,0.0,0.0,0.0,0.0,0.0,0.0,0.0,0.0,0.0,0.0,0.0,0.0,0.0,0.0,0.0,0.0,0.0,0.0,0.0,0.0,0.0,0.0,0.0,0.0,0.0,0.0,0.0,0.0,0.0,0.0,0.0,0.0,0.0,0.0,0.0,0.0,0.0,0.0,0.0,0.0,0.0,0.0,0.0,0.0,0.0,0.0,0.0,0.0,0.0,0.0,0.0,0.0,0.0,0.0,0.0,0.0,0.0,0.0,0.0,0.0,0.0,0.0,0.0,0.0,0.0,0.0,0.0,0.0,0.0,0.0,0.0,0.0,0.0,0.0,0.0,0.0,0.0,0.0,0.0,0.0,0.0,0.0,0.0,0.0,0.0,0.0,0.0,0.0,0.0,0.0,0.0,0.0,0.0,0.0,0.0,0.0,0.0,0.0,0.0,0.0,0.0,0.0,0.0,0.0,0.0,0.0,0.0,0.0,0.0,0.0,0.0,0.0,0.0,0.0,0.0,0.0,0.0,0.0,0.0,0.0,0.0,0.0,0.0,0.0,0.0,0.0,0.0,0.0,0.0,0.0,0.0,0.0,0.0,0.0,0.0,0.0,0.0,0.0,0.0,0.0,0.0,0.0,0.0,0.0,0.0,0.0,0.0,0.0,0.0,0.0,0.0,0.0,0.0,0.0,0.0,0.0,0.0,0.0,0.0,0.0,0.0,0.0,0.0,0.0,0.0,0.0,0.0,0.0,0.0,0.0,0.0,0.0,0.0,0.0,0.0,0.0,0.0,0.0,0.0,0.0,0.0,0.0,0.0,0.0,0.0,0.0,0.0,0.0,0.0,0.0,0.0,0.0,0.0,0.0,0.0,0.0,0.0,0.0,0.0,0.0,0.0,0.0,0.0,0.0,0.0,0.0,0.0,0.0,0.0,0.0,0.0,0.0,0.0,0.0,0.0,0.0,0.0,0.0,0.0,0.0,0.0,0.0,0.0,0.0,0.0,0.0,0.0,0.0,0.0,0.0,0.0,0.0,0.0,0.0,0.0,0.0,0.0,0.0,0.0,0.0,0.0,0.0,0.0,0.0,0.0,0.0,0.0,0.0,0.0,0.0,0.0,0.0,0.0,0.0,0.0,0.0,0.0,0.0,0.0,0.0,0.0,0.0,0.0,0.0,0.0,0.0,0.0,0.0,0.0,0.0,0.0,0.0,0.0,0.0,0.0,0.0,0.0,0.0,0.0,0.0,0.0,0.0,0.0,0.0,0.0,0.0,0.0,0.0,0.0,0.0,0.0,0.0,0.0,0.0,0.0,0.0,0.0,0.0,0.0,0.0,0.0,0.0,0.0,0.0,0.0,0.0,0.0,0.0,0.0,0.0,0.0,0.0,0.0,0.0,0.0,0.0,0.0,0.0,0.0,0.0,0.0,0.0,0.0,0.0,0.0,0.0,0.0,0.0,0.0,0.0,0.0,0.0,0.0,0.0,0.0,0.0,0.0,0.0,0.0,0.0,0.0,0.0,0.0,0.0,0.0,0.0,0.0,0.0,0.0,0.0,0.0,0.0,0.0,0.0,0.0,0.0,0.0,0.0,0.0,0.0,0.0,0.0,0.0,0.0,0.0,0.0,0.0,0.0,0.0,0.0,0.0,0.0,0.0,0.0,0.0,0.0,0.0,0.0,0.0,0.0,0.0,0.0,0.0,0.0,0.0,0.0,0.0,0.0,0.0,0.0,0.0,0.0,0.0,0.0,0.0,0.0,0.0,0.0,0.0,0.0,0.0,0.0,0.0,0.0,0.0,0.0,0.0,0.0,0.0,0.0,0.0,0.0,0.0,0.0,0.0,0.0,0.0,0.0,0.0,0.0,0.0,0.0,0.0,0.0,0.0,0.0,0.0,0.0,0.0,0.0,0.0,0.0,0.0,0.0,0.0,0.0,0.0,0.0,0.0,0.0,0.0,0.0,0.0,0.0,0.0,0.0,0.0,0.0,0.0,0.0,0.0,0.0,0.0,0.0,0.0,0.0,0.0,0.0,0.0,0.0,0.0,0.0,0.0,0.0,0.0,0.0,0.0,0.0,0.0,0.0,0.0,0.0,0.0,0.0,0.0,0.0,0.0,0.0,0.0,0.0,0.0,0.0,0.0,0.0,0.0,0.0,0.0,0.0,0.0,0.0,0.0,0.0,0.0,0.0,0.0,0.0,0.0,0.0,0.0,0.0,0.0,0.0,0.0,0.0,0.0,0.0,0.0,0.0,0.0,0.0,0.0,0.0,0.0,0.0,0.0,0.0,0.0,0.0,0.0,0.0,0.0,0.0,0.0,0.0,0.0,0.0,0.0,0.0,0.0,0.0,0.0,0.0,0.0,0.0,0.0,0.0,0.0,0.0,0.0,0.0,0.0,0.0,0.0,0.0,0.0,0.0,0.0,0.0,0.0,0.0,0.0,0.0,0.0,0.0,0.0,0.0,0.0,0.0,0.0,0.0,0.0,0.0,0.0,0.0,0.0,0.0,0.0,0.0,0.0,0.0,0.0,0.0,0.0,0.0,0.0,0.0,0.0,0.0,0.0,0.0,0.0,0.0,0.0,0.0,0.0,0.0,0.0,0.0,0.0,0.0,0.0,0.0,0.0,0.0,0.0,0.0,0.0,0.0,0.0,0.0,0.0,0.0,0.0,0.0,0.0,0.0,0.0,0.0,0.0,0.0,0.0,0.0,0.0,0.0,0.0,0.0,0.0,0.0,0.0,0.0,0.0,0.0,0.0,0.0,0.0,0.0,0.0,0.0,0.0,0.0,0.0,0.0,0.0,0.0,0.0,0.0,0.0,0.0,0.0,0.0,0.0,0.0,0.0,0.0,0.0,0.0,0.0,0.0,0.0,0.0,0.0,0.0,0.0,0.0,0.0,0.0,0.0,0.0,0.0,0.0,0.0,0.0,0.0,0.0,0.0,0.0,0.0,0.0,0.0,0.0,0.0,0.0,0.0,0.0,0.0,0.0,0.0,0.0,0.0,0.0,0.0,0.0,0.0,0.0,0.0,0.0,0.0,0.0,0.0,0.0,0.0,0.0,0.0,0.0,0.0,0.0,0.0,0.0,0.0,0.0,0.0,0.0,0.0,0.0,0.0,0.0,0.0,0.0,0.0,0.0,0.0,0.0,0.0,0.0,0.0,0.0,0.0,0.0,0.0,0.0,0.0,0.0,0.0,0.0,0.0,0.0,0.0,0.0,0.0,0.0,0.0,0.0,0.0,0.0,0.0,0.0,0.0,0.0,0.0,0.0,0.0,0.0,0.0,0.0,0.0,0.0,0.0,0.0,0.0,0.0,0.0,0.0,0.0,0.0,0.0,0.0,0.0,0.0,0.0,0.0,0.0,0.0,0.0,0.0,0.0,0.0,0.0,0.0,0.0,0.0,0.0,0.0,0.0,0.0,0.0,0.0,0.0,0.0,0.0,0.0,0.0,0.0,0.0,0.0,0.0,0.0,0.0,0.0,0.0,0.1759,0.0,0.0,0.0,0.0,0.0,0.0,0.0,0.0,0.0,0.0,0.0,0.0,0.0,0.0,0.0,0.0,0.0,0.0,0.0,0.0,0.0,0.0,0.0,0.0,0.0,0.0,0.0,0.0,0.0,0.0,0.0,0.0,0.0,0.0,0.0,0.0,0.0,0.0,0.0,0.0,0.0,0.0,0.0,0.0,0.0,0.0,0.0,0.0,0.0,0.0,0.0,0.0,0.0,0.0,0.0,0.0,0.0,0.0,0.0,0.0,0.0,0.0,0.0,0.0,0.0,0.0,0.0,0.0,0.0,0.0,0.0,0.0,0.0,0.0,0.0,0.0,0.0,0.0,0.0,0.0,0.0,0.0,0.0,0.0,0.0,0.0,0.0,0.0,0.0,0.0,0.0,0.0,0.0,0.0,0.0,0.0,0.0,0.0,0.0,0.0,0.0,0.0,0.0,0.0,0.0,0.0,0.0,0.0,0.0,0.0,0.0424,0.0779,0.0895,0.1052,0.1314,0.0,0.0,0.0,0.0,0.0,0.0,0.0,0.0,0.0,0.0,0.0,0.0,0.0,0.0,0.0,0.0,0.0,0.0,0.0,0.0,0.0,0.0,0.0,0.0,0.0,0.0,0.0,0.0,0.0,0.0,0.0,0.0,0.0,0.0,0.0,0.0,0.0,0.0,0.0,0.0,0.0,0.0,0.0,0.0,0.0,0.0,0.0,0.0,0.0,0.0,0.0,0.0,0.0,0.0,0.0,0.0,0.0,0.0,0.0,0.0,0.0,0.0,0.0,0.0,0.0,0.0,0.0,0.0,0.0,0.0,0.0,0.0,0.0,0.0,0.0,0.0,0.0,0.0,0.0,0.0,0.0,0.0,0.0,0.0,0.0,0.0,0.0,0.0,0.0,0.0,0.0,0.0,0.0,0.0,0.0,0.0,0.0,0.0,0.0,0.0,0.0,0.0,0.0,0.0,0.0,0.0,0.0,0.0,0.0,0.0,0.0,0.0,0.0507,0.0761,0.1194,0.0,0.0,0.0,0.0,0.0,0.0,0.0,0.0,0.0,0.0,0.0,0.0,0.0,0.0,0.0,0.0,0.0,0.0,0.0,0.0,0.0,0.0,0.0,0.0,0.0,0.0,0.0,0.0,0.0,0.0,0.0,0.0,0.0,0.0,0.0,0.0,0.0,0.0,0.0,0.0,0.0,0.0,0.0,0.0,0.0,0.0,0.0,0.0,0.0,0.0,0.0,0.0,0.0,0.0,0.0,0.0,0.0,0.0,0.0,0.0,0.0,0.0,0.0,0.0,0.0,0.0,0.0,0.0,0.0,0.0,0.0,0.0,0.0,0.0,0.0,0.0,0.0,0.0,0.0,0.0,0.0,0.0,0.0,0.0,0.0,0.0,0.0,0.0,0.0,0.0,0.0,0.0,0.0,0.0,0.0,0.0,0.0,0.0,0.0,0.0,0.0,0.0,0.0,0.0,0.0,0.0,0.0,0.0,0.0,0.0,-0.0393,-0.0297,0.0546,0.0,0.176,0.0,0.0,0.0,0.0,0.0,0.0,0.0,0.0,0.0,0.0,0.0,0.0,0.0,0.0,0.0,0.0,0.0,0.0,0.0,0.0,0.0,0.0,0.0,0.0,0.0,0.0,0.0,0.0,0.0,0.0,0.0,0.0,0.0,0.0,0.0,0.0,0.0,0.0,0.0,0.0,0.0,0.0,0.0,0.0,0.0,0.0,0.0,0.0,0.0,0.0,0.0,0.0,0.0,0.0,0.0,0.0,0.0,0.0,0.0,0.0,0.0,0.0,0.0,0.0,0.0,0.0,0.0,0.0,0.0,0.0,0.0,0.0,0.0,0.0,0.0,0.0,0.0,0.0,0.0,0.0,0.0,0.0,0.0,0.0,0.0,0.0,0.0,0.0,0.0,0.0,0.0,0.0,0.0,0.0,0.0,0.0,0.0,0.0,0.0,0.0,0.0,0.0,0.0,0.0,0.0,0.0,0.0,0.0,0.0,0.0,-0.0719,-0.0577,-0.0176,0.0294,0.0,0.0,0.0,0.0,0.0,0.0,0.0,0.0,0.0,0.0,0.0,0.0,0.0,0.0,0.0,0.0,0.0,0.0,0.0,0.0,0.0,0.0,0.0,0.0,0.0,0.0,0.0,0.0,0.0,0.0,0.0,0.0,0.0,0.0,0.0,0.0,0.0,0.0,0.0,0.0,0.0,0.0,0.0,0.0,0.0,0.0,0.0,0.0,0.0,0.0,0.0,0.0,0.0,0.0,0.0,0.0,0.0,0.0,0.0,0.0,0.0,0.0,0.0,0.0,0.0,0.0,0.0,0.0,0.0,0.0,0.0,0.0,0.0,0.0,0.0,0.0,0.0,0.0,0.0,0.0,0.0,0.0,0.0,0.0,0.0,0.0,0.0,0.0,0.0,0.0,0.0,0.0,0.0,0.0,0.0,0.0,0.0,0.0,0.0,0.0,0.0,0.0,0.0,0.0,0.0,0.0,0.0,0.0,0.0,0.0,-0.1283,-0.0905,-0.0599,-0.0641,-0.0359,0.0346,0.0,0.0,0.0,0.0,0.0,0.0,0.0,0.0,0.0,0.0,0.0,0.0,0.0,0.0,0.0,0.0,0.0,0.0,0.0,0.0,0.0,0.0,0.0,0.0,0.0,0.0,0.0,0.0,0.0,0.0,0.0,0.0,0.0,0.0,0.0,0.0,0.0,0.0,0.0,0.0,0.0,0.0,0.0,0.0,0.0,0.0,0.0,0.0,0.0,0.0,0.0,0.0,0.0,0.0,0.0,0.0,0.0,0.0,0.0,0.0,0.0,0.0,0.0,0.0,0.0,0.0,0.0,0.0,0.0,0.0,0.0,0.0,0.0,0.0,0.0,0.0,0.0,0.0,0.0,0.0,0.0,0.0,0.0,0.0,0.0,0.0,0.0,0.0,0.0,0.0,0.0,0.0,0.0,0.0,0.0,0.0,0.0,0.0,0.0,0.0,0.0,0.0,0.0,0.0,0.0,0.0,0.0,0.0,-0.1968,-0.1523,-0.0953,-0.0274,-0.054,-0.0233,0.0,0.0,0.0,0.0,0.0,0.0,0.0,0.0,0.0,0.0,0.0,0.0,0.0,0.0,0.0,0.0,0.0,0.0,0.0,0.0,0.0,0.0,0.0,0.0,0.0,0.0,0.0,0.0,0.0,0.0,0.0,0.0,0.0,0.0,0.0,0.0,0.0,0.0,0.0,0.0,0.0,0.0,0.0,0.0,0.0,0.0,0.0,0.0,0.0,0.0,0.0,0.0,0.0,0.0,0.0,0.0,0.0,0.0,0.0,0.0,0.0,0.0,0.0,0.0,0.0,0.0,0.0,0.0,0.0,0.0,0.0,0.0,0.0,0.0,0.0,0.0,0.0,0.0,0.0,0.0,0.0,0.0,0.0,0.0,0.0,0.0,0.0,0.0,0.0,0.0,0.0,0.0,0.0,0.0,0.0,0.0,0.0,0.0,0.0,0.0,0.0,0.0,0.0,0.0,0.0,0.0,0.0,0.0,0.0,-0.1751,-0.1477,-0.1195,-0.0865,-0.0955,-0.0742,0.0,0.0,0.0,0.0,0.0,0.0,0.0,0.0,0.0,0.0,0.0,0.0,0.0,0.0,0.0,0.0,0.0,0.0,0.0,0.0,0.0,0.0,0.0,0.0,0.0,0.0,0.0,0.0,0.0,0.0,0.0,0.0,0.0,0.0,0.0,0.0,0.0,0.0,0.0,0.0,0.0,0.0,0.0,0.0,0.0,0.0,0.0,0.0,0.0,0.0,0.0,0.0,0.0,0.0,0.0,0.0,0.0,0.0,0.0,0.0,0.0,0.0,0.0,0.0,0.0,0.0,0.0,0.0,0.0,0.0,0.0,0.0,0.0,0.0,0.0,0.0,0.0,0.0,0.0,0.0,0.0,0.0,0.0,0.0,0.0,0.0,0.0,0.0,0.0,0.0,0.0,0.0,0.0,0.0,0.0,0.0,0.0,0.0,0.0,0.0,0.0,0.0,0.0,0.0,0.0,0.0,0.0,0.0,0.0,-0.1597,0.0,-0.1444,-0.1239,-0.1133,-0.0923,0.0,0.0,0.0,0.0,0.0,0.0,0.0,0.0,0.0,0.0,0.0,0.0,0.0,0.0,0.0,0.0,0.0,0.0,0.0,0.0,0.0,0.0,0.0,0.0,0.0,0.0,0.0,0.0,0.0,0.0,0.0,0.0,0.0,0.0,0.0,0.0,0.0,0.0,0.0,0.0,0.0,0.0,0.0,0.0,0.0,0.0,0.0,0.0,0.0,0.0,0.0,0.0,0.0,0.0,0.0,0.0,0.0,0.0,0.0,0.0,0.0,0.0,0.0,0.0,0.0,0.0,0.0,0.0,0.0,0.0,0.0,0.0,0.0,0.0,0.0,0.0,0.0,0.0,0.0,0.0,0.0,0.0,0.0,0.0,0.0,0.0,0.0,0.0,0.0,0.0,0.0,0.0,0.0,0.0,0.0,0.0,0.0,0.0,0.0,0.0,0.0,0.0,0.0,0.0,0.0,0.0,0.0,0.0,-0.189,-0.1561,-0.1821,-0.1775,-0.1309,-0.1102,-0.0787,0.0,0.0,0.0,0.0,0.0,0.0,0.0,0.0,0.0,0.0,0.0,0.0,0.0,0.0,0.0,0.0,0.0,0.0,0.0,0.0,0.0,0.0,0.0,0.0,0.0,0.0,0.0,0.0,0.0,0.0,0.0,0.0,0.0,0.0,0.0,0.0,0.0,0.0,0.0,0.0,0.0,0.0,0.0,0.0,0.0,0.0,0.0,0.0,0.0,0.0,0.0,0.0,0.0,0.0,0.0,0.0,0.0,0.0,0.0,0.0,0.0,0.0,0.0,0.0,0.0,0.0,0.0,0.0,0.0,0.0,0.0,0.0,0.0,0.0,0.0,0.0,0.0,0.0,0.0,0.0,0.0,0.0,0.0,0.0,0.0,0.0,0.0,0.0,0.0,0.0,0.0,0.0,0.0,0.0,0.0,0.0,0.0,0.0,0.0,0.0,0.0,0.0,0.0,0.0,0.0,0.0,0.0,0.0,0.0,-0.2906,-0.3278,-0.2838,-0.1593,-0.1787,-0.1316,0.0,0.0,0.0,0.0,0.0,0.0,0.0,0.0,0.0,0.0,0.0,0.0,0.0,0.0,0.0,0.0,0.0,0.0,0.0,0.0,0.0,0.0,0.0,0.0,0.0,0.0,0.0,0.0,0.0,0.0,0.0,0.0,0.0,0.0,0.0,0.0,0.0,0.0,0.0,0.0,0.0,0.0,0.0,0.0,0.0,0.0,0.0,0.0,0.0,0.0,0.0,0.0,0.0,0.0,0.0,0.0,0.0,0.0,0.0,0.0,0.0,0.0,0.0,0.0,0.0,0.0,0.0,0.0,0.0,0.0,0.0,0.0,0.0,0.0,0.0,0.0,0.0,0.0,0.0,0.0,0.0,0.0,0.0,0.0,0.0,0.0,0.0,0.0,0.0,0.0,0.0,0.0,0.0,0.0,0.0,0.0,0.0,0.0,0.0,0.0,0.0,0.0,0.0,0.0,0.0,0.0,0.0,0.0,0.0,-0.3445,-0.3601,-0.3069,-0.1805,-0.1894,-0.1502,-0.0549,0.0,0.0,0.0,0.0,0.0,0.0,0.0,0.0,0.0,0.0,0.0,0.0,0.0,0.0,0.0,0.0,0.0,0.0,0.0,0.0,0.0,0.0,0.0,0.0,0.0,0.0,0.0,0.0,0.0,0.0,0.0,0.0,0.0,0.0,0.0,0.0,0.0,0.0,0.0,0.0,0.0,0.0,0.0,0.0,0.0,0.0,0.0,0.0,0.0,0.0,0.0,0.0,0.0,0.0,0.0,0.0,0.0,0.0,0.0,0.0,0.0,0.0,0.0,0.0,0.0,0.0,0.0,0.0,0.0,0.0,0.0,0.0,0.0,0.0,0.0,0.0,0.0,0.0,0.0,0.0,0.0,0.0,0.0,0.0,0.0,0.0,0.0,0.0,0.0,0.0,0.0,0.0,0.0,0.0,0.0,0.0,0.0,0.0,0.0,0.0,0.0,0.0,0.0,0.0,0.0,0.0,0.0,0.0,-0.3235,-0.2899,-0.2506,-0.198,-0.1561,-0.1377,0.0,0.0,0.0,0.0,0.0,0.0,0.0,0.0,0.0,0.0,0.0,0.0,0.0,0.0,0.0,0.0,0.0,0.0,0.0,0.0,0.0,0.0,0.0,0.0,0.0,0.0,0.0,0.0,0.0,0.0,0.0,0.0,0.0,0.0,0.0,0.0,0.0,0.0,0.0,0.0,0.0,0.0,0.0,0.0,0.0,0.0,0.0,0.0,0.0,0.0,0.0,0.0,0.0,0.0,0.0,0.0,0.0,0.0,0.0,0.0,0.0,0.0,0.0,0.0,0.0,0.0,0.0,0.0,0.0,0.0,0.0,0.0,0.0,0.0,0.0,0.0,0.0,0.0,0.0,0.0,0.0,0.0,0.0,0.0,0.0,0.0,0.0,0.0,0.0,0.0,0.0,0.0,0.0,0.0,0.0,0.0,0.0,0.0,0.0,0.0,0.0,0.0,0.0,0.0,0.0,0.0,0.0,0.0,0.0,-0.2208,-0.2133,-0.2012,-0.173,-0.2142,-0.169,0.0,0.0,0.0,0.0,0.0,0.0,0.0,0.0,0.0,0.0,0.0,0.0,0.0,0.0,0.0,0.0,0.0,0.0,0.0,0.0,0.0,0.0,0.0,0.0,0.0,0.0,0.0,0.0,0.0,0.0,0.0,0.0,0.0,0.0,0.0,0.0,0.0,0.0,0.0,0.0,0.0,0.0,0.0,0.0,0.0,0.0,0.0,0.0,0.0,0.0,0.0,0.0,0.0,0.0,0.0,0.0,0.0,0.0,0.0,0.0,0.0,0.0,0.0,0.0,0.0,0.0,0.0,0.0,0.0,0.0,0.0,0.0,0.0,0.0,0.0,0.0,0.0,0.0,0.0,0.0,0.0,0.0,0.0,0.0,0.0,0.0,0.0,0.0,0.0,0.0,0.0,0.0,0.0,0.0,0.0,0.0,0.0,0.0,0.0,0.0,0.0,0.0,0.0,0.0,0.0,0.0,0.0,0.0,-0.3101,-0.1923,-0.1145,-0.0668,-0.0515,-0.168,-0.172,0.0,0.0,0.0,0.0,0.0,0.0,0.0,0.0,0.0,0.0,0.0,0.0,0.0,0.0,0.0,0.0,0.0,0.0,0.0,0.0,0.0,0.0,0.0,0.0,0.0,0.0,0.0,0.0,0.0,0.0,0.0,0.0,0.0,0.0,0.0,0.0,0.0,0.0,0.0,0.0,0.0,0.0,0.0,0.0,0.0,0.0,0.0,0.0,0.0,0.0,0.0,0.0,0.0,0.0,0.0,0.0,0.0,0.0,0.0,0.0,0.0,0.0,0.0,0.0,0.0,0.0,0.0,0.0,0.0,0.0,0.0,0.0,0.0,0.0,0.0,0.0,0.0,0.0,0.0,0.0,0.0,0.0,0.0,0.0,0.0,0.0,0.0,0.0,0.0,0.0,0.0,0.0,0.0,0.0,0.0,0.0,0.0,0.0,0.0,0.0,0.0,0.0,0.0,0.0,0.0,0.0,0.0,0.0,-0.2192,-0.2057,-0.0222,0.0808,0.0882,-0.0827,-0.1513,0.0,0.0,0.0,0.0,0.0,0.0,0.0,0.0,0.0,0.0,0.0,0.0,0.0,0.0,0.0,0.0,0.0,0.0,0.0,0.0,0.0,0.0,0.0,0.0,0.0,0.0,0.0,0.0,0.0,0.0,0.0,0.0,0.0,0.0,0.0,0.0,0.0,0.0,0.0,0.0,0.0,0.0,0.0,0.0,0.0,0.0,0.0,0.0,0.0,0.0,0.0,0.0,0.0,0.0,0.0,0.0,0.0,0.0,0.0,0.0,0.0,0.0,0.0,0.0,0.0,0.0,0.0,0.0,0.0,0.0,0.0,0.0,0.0,0.0,0.0,0.0,0.0,0.0,0.0,0.0,0.0,0.0,0.0,0.0,0.0,0.0,0.0,0.0,0.0,0.0,0.0,0.0,0.0,0.0,0.0,0.0,0.0,0.0,0.0,0.0,0.0,0.0,0.0,0.0,0.0,0.0,0.0,0.0,-0.2909,-0.1209,-0.019,0.043,0.0696,-0.1229,-0.1466,0.0,0.0,0.0,0.0,0.0,0.0,0.0,0.0,0.0,0.0,0.0,0.0,0.0,0.0,0.0,0.0,0.0,0.0,0.0,0.0,0.0,0.0,0.0,0.0,0.0,0.0,0.0,0.0,0.0,0.0,0.0,0.0,0.0,0.0,0.0,0.0,0.0,0.0,0.0,0.0,0.0,0.0,0.0,0.0,0.0,0.0,0.0,0.0,-0.6082,0.0,0.0,0.0,0.0,0.0,0.0,0.0,0.0,0.0,0.0,0.0,0.0,0.0,0.0,0.0,0.0,0.0,0.0,0.0,0.0,0.0,0.0,0.0,0.0,0.0,0.0,0.0,0.0,0.0,0.0,0.0,0.0,0.0,0.0,0.0,0.0,0.0,0.0,0.0,0.0,0.0,0.0,0.0,0.0,0.0,0.0,0.0,0.0,0.0,0.0,0.0,0.0,0.0,0.0,0.0,0.0,0.0,0.0,0.0,-0.2906,-0.1854,-0.0529,0.0288,0.0472,-0.0451,-0.0788,0.0,0.0,0.0,0.0,0.0,0.0,0.0,0.0,0.0,0.0,0.0,0.0,0.0,0.0,0.0,0.0,0.0,0.0,0.0,0.0,0.0,0.0,0.0,0.0,0.0,0.0,0.0,0.0,0.0,0.0,0.0,0.0,0.0,0.0,0.0,0.0,0.0,0.0,0.0,0.0,0.0,0.0,0.0,0.0,0.0,0.0,0.0,0.0,0.0,0.0,0.0,0.0,0.0,0.0,0.0,0.0,0.0,0.0,0.0,0.0,0.0,0.0,0.0,0.0,0.0,0.0,0.0,0.0,0.0,0.0,0.0,0.0,0.0,0.0,0.0,0.0,0.0,0.0,0.0,0.0,0.0,0.0,0.0,0.0,0.0,0.0,0.0,0.0,0.0,0.0,0.0,0.0,0.0,0.0,0.0,0.0,0.0,0.0,0.0,0.0,0.0,0.0,0.0,0.0,0.0,0.0,0.0,-0.3622,-0.2551,-0.2401,-0.0737,0.0214,0.0434,0.0232,-0.0358,-0.1378,0.0,0.0,0.0,0.0,0.0,0.0,0.0,0.0,0.0,0.0,0.0,0.0,0.0,0.0,0.0,0.0,0.0,0.0,0.0,0.0,0.0,0.0,0.0,0.0,0.0,0.0,0.0,0.0,0.0,0.0,0.0,0.0,0.0,0.0,0.0,0.0,0.0,0.0,-0.6798,-0.7695,0.0,0.0,0.0,0.0,0.0,0.0,0.0,0.0,-0.6118,0.0,0.0,0.0,0.0,0.0,0.0,0.0,0.0,0.0,0.0,0.0,0.0,0.0,0.0,0.0,0.0,0.0,0.0,0.0,0.0,0.0,0.0,0.0,0.0,0.0,0.0,0.0,0.0,0.0,0.0,0.0,0.0,0.0,0.0,0.0,0.0,0.0,0.0,0.0,0.0,0.0,0.0,0.0,0.0,0.0,0.0,0.0,0.0,0.0,0.0,0.0,0.0,0.0,0.0,0.0,0.0,-0.4242,-0.3522,-0.2266,-0.046,-0.0212,0.0083,0.0512,-0.0998,-0.1776,-0.1659,0.0,0.0,0.0,0.0,0.0,0.0,0.0,0.0,0.0,0.0,0.0,0.0,0.0,0.0,0.0,0.0,0.0,0.0,0.0,0.0,0.0,0.0,0.0,0.0,0.0,0.0,0.0,0.0,0.0,0.0,0.0,0.0,0.0,0.0,0.0,0.0,0.0,0.0,0.0,-0.8879,-1.0071,0.0,0.0,0.0,0.0,0.0,0.0,0.0,0.0,-0.6895,0.0,0.0,0.0,0.0,0.0,0.0,0.0,0.0,0.0,0.0,0.0,0.0,0.0,0.0,0.0,0.0,0.0,0.0,0.0,0.0,0.0,0.0,0.0,0.0,0.0,0.0,0.0,0.0,0.0,0.0,0.0,0.0,0.0,0.0,0.0,0.0,0.0,0.0,0.0,0.0,0.0,0.0,0.0,0.0,0.0,0.0,0.0,0.0,0.0,0.0,0.0,0.0,0.0,0.0,0.0,-0.5151,-0.3282,-0.1433,0.0294,0.0129,0.0127,0.0354,-0.0682,-0.1222,0.0,0.0,0.0,0.0,0.0,0.0,0.0,0.0,0.0,0.0,0.0,0.0,0.0,0.0,0.0,0.0,0.0,0.0,0.0,0.0,0.0,0.0,0.0,0.0,0.0,0.0,0.0,0.0,0.0,0.0,0.0,0.0,0.0,0.0,0.0,0.0,0.0,0.0,0.0,0.0,-0.8377,-0.914,-0.9765,0.0,0.0,0.0,0.0,0.0,0.0,-0.8048,-0.8015,0.0,0.0,0.0,0.0,0.0,0.0,0.0,0.0,0.0,0.0,0.0,0.0,0.0,0.0,0.0,0.0,0.0,0.0,0.0,0.0,0.0,0.0,0.0,0.0,0.0,0.0,0.0,0.0,0.0,0.0,0.0,0.0,0.0,0.0,0.0,0.0,0.0,0.0,0.0,0.0,0.0,0.0,0.0,0.0,0.0,0.0,0.0,0.0,0.0,0.0,0.0,0.0,0.0,0.0,0.0,-0.5644,-0.2897,-0.0749,0.0546,0.0393,0.0299,0.0276,-0.0525,-0.0814,0.0,0.0,0.0,0.0,0.0,0.0,0.0,0.0,0.0,0.0,0.0,0.0,0.0,0.0,0.0,0.0,0.0,0.0,0.0,0.0,0.0,0.0,0.0,0.0,0.0,0.0,0.0,0.0,0.0,0.0,0.0,0.0,0.0,0.0,0.0,0.0,0.0,0.0,0.0,0.0,0.0,-0.8354,-0.8216,-0.9527,0.0,0.0,0.0,0.0,-0.8379,-0.88,0.0,0.0,0.0,0.0,0.0,0.0,0.0,0.0,0.0,0.0,0.0,0.0,0.0,0.0,0.0,0.0,0.0,0.0,0.0,0.0,0.0,0.0,0.0,0.0,0.0,0.0,0.0,0.0,0.0,0.0,0.0,0.0,0.0,0.0,0.0,0.0,0.0,0.0,0.0,0.0,0.0,0.0,0.0,0.0,0.0,0.0,0.0,0.0,0.0,0.0,0.0,0.0,0.0,0.0,0.0,0.0,-0.3306,-0.2226,-0.0909,0.0586,0.0635,0.0663,0.0708,-0.1924,-0.2283,0.0,0.0,0.0,0.0,0.0,0.0,0.0,0.0,0.0,0.0,0.0,0.0,0.0,0.0,0.0,0.0,0.0,0.0,0.0,0.0,0.0,0.0,0.0,0.0,0.0,0.0,0.0,0.0,0.0,0.0,0.0,0.0,0.0,0.0,0.0,0.0,0.0,0.0,0.0,0.0,0.0,-0.9942,-1.0361,-1.1455,-1.2285,0.0,0.0,-1.0374,-0.8169,-0.8897,0.0,0.0,0.0,0.0,0.0,0.0,0.0,0.0,0.0,0.0,0.0,0.0,0.0,0.0,0.0,0.0,0.0,0.0,0.0,0.0,0.0,0.0,0.0,0.0,0.0,0.0,0.0,0.0,0.0,0.0,0.0,0.0,0.0,0.0,0.0,0.0,0.0,0.0,0.0,0.0,0.0,0.0,0.0,0.0,0.0,0.0,0.0,0.0,0.0,0.0,0.0,0.0,0.0,0.0,0.0,-0.3584,-0.2361,-0.145,-0.0517,0.0389,0.0574,0.0651,0.0679,-0.1533,-0.1821,0.0,0.0,0.0,0.0,0.0,0.0,0.0,0.0,0.0,0.0,0.0,0.0,0.0,0.0,0.0,0.0,0.0,0.0,0.0,0.0,0.0,0.0,0.0,0.0,0.0,0.0,0.0,0.0,0.0,0.0,0.0,0.0,0.0,0.0,0.0,0.0,0.0,0.0,0.0,0.0,0.0,0.0,-1.019,-1.1508,0.0,0.0,0.0,-1.1676,-1.0267,0.0,0.0,0.0,0.0,0.0,0.0,0.0,0.0,0.0,0.0,0.0,0.0,0.0,0.0,0.0,0.0,0.0,0.0,0.0,0.0,0.0,0.0,0.0,0.0,0.0,0.0,0.0,0.0,0.0,0.0,0.0,0.0,0.0,0.0,0.0,0.0,0.0,0.0,0.0,0.0,0.0,0.0,0.0,0.0,0.0,0.0,0.0,0.0,0.0,0.0,0.0,0.0,0.0,0.0,0.0,0.0,0.0,-0.2017,-0.0957,-0.0221,0.0152,0.0406,0.0568,0.0671,-0.0581,0.0,0.0,0.0,0.0,0.0,0.0,0.0,0.0,0.0,0.0,0.0,0.0,0.0,0.0,0.0,0.0,0.0,0.0,0.0,0.0,0.0,0.0,0.0,0.0,0.0,0.0,0.0,-0.334,0.0,0.0,0.0,0.0,0.0,0.0,0.0,0.0,0.0,0.0,0.0,0.0,0.0,0.0,-0.8569,-0.977,-1.1462,-1.2314,0.0,0.0,-1.268,-1.1471,-1.1104,-1.0861,0.0,0.0,0.0,0.0,0.0,0.0,0.0,0.0,0.0,0.0,0.0,0.0,0.0,0.0,0.0,0.0,0.0,0.0,0.0,0.0,0.0,0.0,0.0,0.0,0.0,0.0,0.0,0.0,0.0,0.0,0.0,0.0,0.0,0.0,0.0,0.0,0.0,0.0,0.0,0.0,0.0,0.0,0.0,0.0,0.0,0.0,0.0,0.0,0.0,0.0,0.0,0.0,0.0,0.0,0.0,-0.237,-0.1082,-0.0267,0.0,0.021,0.0576,0.1059,0.065,-0.1232,0.0,0.0,0.0,0.0,0.0,0.0,0.0,0.0,0.0,0.0,0.0,0.0,0.0,0.0,0.0,0.0,0.0,0.0,0.0,0.0,0.0,0.0,0.0,0.0,0.0,0.0,0.0,0.0,0.0,0.0,0.0,0.0,0.0,0.0,0.0,0.0,0.0,0.0,0.0,0.0,0.0,-0.9281,-0.9762,-1.1881,-1.2785,0.0,0.0,-1.2781,-1.026,-1.1219,-1.1721,-1.0054,0.0,0.0,0.0,0.0,0.0,0.0,0.0,0.0,0.0,0.0,0.0,0.0,0.0,0.0,0.0,0.0,0.0,0.0,0.0,0.0,0.0,0.0,0.0,0.0,0.0,0.0,0.0,0.0,0.0,0.0,0.0,0.0,0.0,0.0,0.0,0.0,0.0,0.0,0.0,0.0,0.0,0.0,0.0,0.0,0.0,0.0,0.0,0.0,0.0,0.0,0.0,0.0,0.0,-0.3526,-0.2892,-0.1634,-0.0815,-0.0386,-0.0159,0.008,0.0236,-0.0516,-0.1577,0.0,0.0,0.0,0.0,0.0,0.0,0.0,0.0,0.0,0.0,0.0,0.0,0.0,0.0,0.0,0.0,0.0,0.0,0.0,0.0,0.0,0.0,0.0,0.0,0.0,0.0,0.0,0.0,-0.427,-0.4533,-0.5062,0.0,0.0,0.0,0.0,0.0,0.0,0.0,0.0,0.0,0.0,-1.0441,-1.0141,-1.153,0.0,0.0,-1.2129,-1.2107,-1.1099,-1.0985,-1.1076,-1.1199,-1.1013,0.0,0.0,0.0,0.0,0.0,0.0,0.0,0.0,0.0,0.0,0.0,0.0,0.0,0.0,0.0,0.0,0.0,0.0,0.0,0.0,0.0,0.0,0.0,0.0,0.0,0.0,0.0,0.0,0.0,0.0,0.0,0.0,0.0,0.0,0.0,0.0,0.0,0.0,0.0,0.0,0.0,0.0,0.0,0.0,0.0,0.0,0.0,0.0,0.0,0.0,0.0,0.0,-0.385,-0.3432,-0.2213,-0.1322,-0.0818,-0.0596,-0.0481,-0.0562,-0.1229,-0.1797,0.0,0.0,0.0,0.0,0.0,0.0,0.0,0.0,0.0,0.0,0.0,0.0,0.0,0.0,0.0,0.0,0.0,0.0,0.0,0.0,0.0,0.0,0.0,0.0,0.0,0.0,0.0,0.0,-0.4579,-0.4526,-0.4546,0.0,0.0,0.0,0.0,0.0,0.0,0.0,0.0,0.0,0.0,-1.0945,-1.0321,-1.135,-1.2192,-1.2189,-1.2282,-1.2295,-1.2209,-1.1484,-1.1171,-1.1858,0.0,0.0,0.0,0.0,0.0,0.0,0.0,0.0,0.0,0.0,0.0,0.0,0.0,0.0,0.0,0.0,0.0,0.0,0.0,0.0,0.0,0.0,0.0,0.0,0.0,0.0,0.0,0.0,0.0,0.0,-0.3305,0.0,0.0,0.0,0.0,0.0,0.0,0.0,0.0,0.0,0.0,0.0,0.0,0.0,0.0,0.0,0.0,0.0,0.0,0.0,0.0,0.0,0.0,-0.4132,-0.396,-0.2677,-0.1756,-0.1283,-0.1156,-0.1091,-0.1095,-0.0927,-0.1794,-0.3821,0.0,0.0,0.0,0.0,0.0,0.0,0.0,0.0,0.0,0.0,0.0,0.0,0.0,0.0,0.0,0.0,0.0,0.0,0.0,0.0,0.0,0.0,0.0,0.0,0.0,0.0,-0.5415,-0.524,-0.4828,0.0,0.0,0.0,0.0,0.0,0.0,0.0,0.0,0.0,0.0,-1.0554,-1.0478,-1.0135,-1.1514,-1.2457,-1.2152,-1.3017,-1.3636,-1.332,-1.2909,-1.2358,0.0,0.0,0.0,0.0,0.0,0.0,0.0,0.0,0.0,0.0,0.0,0.0,0.0,0.0,0.0,0.0,0.0,0.0,0.0,0.0,0.0,0.0,0.0,0.0,0.0,0.0,0.0,-0.5794,-0.6118,0.0,0.0,0.0,0.0,0.0,0.0,0.0,0.0,0.0,0.0,0.0,-0.8937,-1.0104,0.0,0.0,0.0,0.0,0.0,0.0,0.0,0.0,0.0,0.0,0.0,0.0,-0.4303,-0.398,-0.3068,-0.233,-0.1844,-0.1706,-0.1619,-0.158,-0.1317,-0.1999,-0.3679,0.0,0.0,0.0,0.0,0.0,0.0,0.0,0.0,0.0,0.0,0.0,0.0,0.0,0.0,0.0,0.0,0.0,0.0,0.0,0.0,0.0,0.0,0.0,0.0,0.0,-0.5802,0.0,0.0,0.0,0.0,0.0,0.0,0.0,0.0,0.0,0.0,0.0,-1.0738,-1.0942,-1.2531,-1.3246,-1.2164,-1.2633,-1.2917,0.0,0.0,0.0,0.0,0.0,0.0,0.0,0.0,0.0,0.0,0.0,0.0,0.0,0.0,-1.5793,-1.468,-1.3919,-1.3502,-1.368,0.0,0.0,0.0,0.0,0.0,0.0,0.0,0.0,0.0,0.0,0.0,0.0,0.0,0.0,-0.7761,0.0,-0.7662,0.0,0.0,0.0,0.0,0.0,0.0,0.0,0.0,-0.9177,-0.9761,-0.9909,-1.0778,-1.1141,0.0,-1.1075,-1.1467,0.0,0.0,0.0,0.0,0.0,0.0,0.0,0.0,-0.4781,-0.4609,-0.3759,-0.3118,-0.2751,-0.245,-0.2262,-0.219,-0.1941,-0.2286,-0.3225,-0.3734,-0.4726,0.0,0.0,0.0,0.0,0.0,0.0,0.0,0.0,0.0,0.0,0.0,0.0,0.0,0.0,0.0,0.0,0.0,0.0,0.0,0.0,0.0,0.0,0.0,-0.6376,0.0,0.0,0.0,0.0,0.0,0.0,0.0,0.0,0.0,-1.0179,-1.1214,-1.1927,-1.188,-1.3252,-1.3864,-1.2868,0.0,0.0,0.0,0.0,0.0,0.0,0.0,-1.3709,-1.4514,-1.4284,-1.45,-1.5873,-1.6598,-1.684,-1.6338,0.0,0.0,-1.6015,-1.5445,-1.5186,-1.5683,-1.4804,-1.4455,-1.6053,-1.5966,-1.5987,0.0,0.0,0.0,0.0,0.0,0.0,0.0,0.0,-0.9218,-0.9216,0.0,-0.8577,0.0,0.0,0.0,0.0,0.0,-0.791,0.0,0.0,-0.9105,-0.9174,-1.0353,-1.0378,-1.0614,-1.1199,-1.197,-1.255,-1.2761,-1.0061,0.0,0.0,0.0,0.0,0.0,0.0,-0.5566,-0.5751,-0.4688,-0.4089,-0.3909,-0.3337,-0.2987,-0.2896,-0.2788,-0.268,-0.2708,-0.3799,-0.4524,-0.4713,-0.5683,0.0,0.0,0.0,0.0,0.0,0.0,0.0,0.0,0.0,0.0,0.0,0.0,0.0,0.0,0.0,0.0,0.0,0.0,0.0,0.0,-0.6291,0.0,0.0,0.0,0.0,0.0,0.0,0.0,0.0,0.0,0.0,-1.2936,-1.2429,-1.2283,-1.3006,0.0,0.0,0.0,0.0,-1.3014,-1.4112,-1.4877,-1.5506,-1.6111,-1.499,-1.4197,-1.4511,0.0,0.0,-1.5244,-1.6775,-1.7738,-1.7926,-1.7911,-1.7273,-1.519,-1.5747,-1.6666,-1.7402,-1.7493,-1.7874,-1.8471,-1.8067,-1.7834,-1.7101,0.0,0.0,0.0,0.0,-1.1309,-1.1243,-1.1324,-1.1518,-1.1656,-1.1782,-1.1554,0.0,0.0,0.0,0.0,0.0,0.0,-1.0401,-1.0359,-1.0778,-1.081,-1.0563,-1.0697,-1.0578,-1.0246,-1.0751,-1.0925,-1.0716,-0.9848,-0.9728,-1.0362,0.0,0.0,0.0,0.0,-0.6195,-0.5795,-0.5235,-0.4848,-0.4619,-0.416,-0.3785,-0.3476,-0.3288,-0.3171,-0.3112,-0.3511,-0.4096,-0.4894,-0.5233,0.0,0.0,0.0,0.0,0.0,0.0,0.0,0.0,0.0,0.0,0.0,0.0,0.0,0.0,0.0,0.0,0.0,0.0,0.0,-0.6913,-0.7292,-0.7962,0.0,0.0,0.0,0.0,0.0,0.0,0.0,0.0,0.0,-1.4072,-1.3993,-1.395,0.0,0.0,-1.4932,-1.4337,-1.4621,-1.4793,-1.4558,-1.4994,0.0,-1.5483,-1.5501,-1.5538,-1.5696,-1.4896,-1.4798,-1.6451,-1.6498,-1.6694,-1.7768,-1.7709,-1.7246,-1.6994,-1.7243,-1.77,-1.8051,-1.8247,-1.8458,-1.8734,-1.8358,-1.7962,-1.9144,-1.6591,-1.5937,-1.5292,-1.4718,-1.4229,-1.4069,-1.412,-1.3796,-1.3757,-1.3897,-1.3305,-1.3051,-1.308,-1.2758,0.0,0.0,0.0,-1.1529,-1.1147,-1.1688,-1.1595,-1.1046,-1.1057,-1.0802,-1.0303,-1.0467,-1.039,-1.0029,-1.0164,-1.0584,-1.1274,0.0,0.0,-0.8172,-0.7292,-0.6729,-0.6484,-0.5944,-0.562,-0.552,-0.5066,-0.47,-0.4439,-0.4154,-0.3979,-0.3858,-0.3729,-0.402,-0.4792,-0.5187,-0.5603,0.0,0.0,0.0,0.0,0.0,0.0,0.0,0.0,0.0,0.0,0.0,-0.5192,0.0,0.0,0.0,0.0,-0.6738,-0.7725,-0.831,-0.8902,0.0,0.0,0.0,0.0,0.0,0.0,0.0,-1.5683,-1.4994,-1.4452,-1.4836,-1.5057,-1.4722,-1.3583,-1.436,-1.4942,-1.4694,0.0,-1.5149,-1.5083,-1.5298,-1.5454,-1.5416,-1.5544,-1.5788,-1.6008,-1.596,-1.6121,-1.7049,-1.7071,-1.7249,-1.8042,-1.818,-1.8179,-1.8421,-1.8691,-1.8816,-1.8701,-1.8858,-1.9138,-1.9529,-1.8951,-1.8395,-2.0935,-1.9965,-1.9193,-1.8762,-1.8554,-1.7766,-1.7318,-1.7107,-1.6001,-1.558,-1.5595,-1.431,-1.3896,-1.4091,-1.3336,0.0,-1.306,-1.246,-1.2249,-1.227,-1.209,-1.1861,-1.1689,-1.1431,-1.1212,-1.1086,-1.0975,-1.0791,-1.0532,-1.0787,-1.105,-1.11,-0.9253,-0.8296,-0.8237,-0.7636,-0.7416,-0.7664,-0.6936,-0.6537,-0.6573,-0.6027,-0.5733,-0.562,-0.527,-0.4994,-0.48,-0.4374,-0.4284,-0.4549,-0.5257,-0.5591,-0.5383,0.0,0.0,0.0,0.0,0.0,0.0,0.0,0.0,0.0,0.0,0.0,0.0,0.0,0.0,0.0,-0.6821,0.0,-0.9503,-1.0535,0.0,0.0,0.0,-1.225,-1.0916,-1.2535,-1.3734,-1.367,0.0,0.0,-1.5275,-1.5578,-1.4889,-1.2392,-1.2884,-1.3619,-1.3974,-1.4274,-1.4673,-1.5631,-1.5646,-1.5571,-1.5799,-1.5579,-1.5562,-1.5955,-1.6477,-1.6972,-1.7437,-1.804,-1.8641,-1.8779,-1.9124,-1.942,-1.956,-1.9814,-1.9986,-1.9425,-1.9576,-1.9988,-2.051,-1.9763,-1.909,-2.2418,-2.1817,-2.1395,-2.0322,-1.8961,-1.8546,-1.819,-1.7882,-1.7407,-1.7178,-1.7146,-1.6669,-1.6055,-1.5334,-1.4864,-1.4297,-1.3669,-1.3323,-1.3132,-1.3091,-1.2951,-1.2707,-1.2378,-1.2246,-1.1988,-1.1627,-1.1571,-1.1439,-1.1235,-1.0915,-1.1136,-1.1692,-1.0735,-1.0432,-1.0701,-0.9924,-0.9355,-0.9041,-0.8694,-0.8115,-0.7259,-0.7133,-0.6972,-0.6797,-0.6198,-0.5697,-0.5486,-0.5015,-0.4619,-0.4251,-0.4492,-0.4658,-0.4742,-0.616,0.0,0.0,0.0,0.0,0.0,0.0,0.0,0.0,0.0,-0.678,-0.8062,0.0,-0.9328,0.0,-0.8275,-0.815,-0.8658,-0.9409,0.0,0.0,-1.2076,-1.2977,-1.3723,-1.4078,-1.4438,-1.4962,-1.4902,-1.4874,-1.4909,-1.504,-1.4676,-1.3407,-1.4299,-1.522,-1.5406,-1.5376,-1.5484,-1.5814,-1.5802,-1.5905,-1.6402,-1.6453,-1.6391,-1.6753,-1.6572,-1.6615,-1.7446,-1.7814,-1.8218,-1.8812,-1.9191,-1.945,-1.9654,-2.003,-2.0296,-2.0226,-2.0377,-2.067,-2.1118,-2.0192,-1.9276,-2.3045,-2.2738,-2.2517,-2.1762,-2.0682,-2.0003,-1.9578,-1.9406,-1.8936,-1.8734,-1.8703,-1.8051,-1.7394,-1.667,-1.6322,-1.5665,-1.4837,-1.4904,-1.4679,-1.4222,-1.4341,-1.4185,-1.3825,-1.3421,-1.3023,-1.2658,-1.2448,-1.2224,-1.1977,-1.1782,-1.1877,-1.2248,-1.1714,-1.1725,-1.2271,-1.1526,-1.0944,-1.0576,-1.0098,-0.9379,-0.8333,-0.8244,-0.8236,-0.8212,-0.7323,-0.7018,-0.7326,-0.6419,-0.5944,-0.5996,-0.5724,-0.5535,-0.5465,-0.6907,-0.7694,0.0,0.0,0.0,0.0,0.0,0.0,0.0,0.0,0.0,0.0,0.0,-1.0687,-1.0661,-0.954,-0.9096,-0.9716,-1.0447,-1.1085,-1.1597,-1.2329,-1.3058,-1.3799,-1.3528,-1.3725,-1.4874,-1.4586,-1.442,-1.4642,-1.4976,-1.4841,-1.3959,-1.4661,-1.5349,-1.5427,-1.5402,-1.5554,-1.5994,-1.5897,-1.5863,-1.6507,-1.6731,-1.7004,-1.7479,-1.7449,-1.7562,-1.8152,-1.8446,-1.8724,-1.9132,-1.9413,-1.9654,-1.9874,-2.0292,-2.063,-2.0794,-2.099,-2.1183,-2.1308,-2.028,-1.9284,-2.3193,-2.3077,-2.2927,-2.2825,-2.2651,-2.1505,-2.1103,-2.1101,-2.046,-2.0217,-2.0166,-1.9134,-1.8468,-1.8051,-1.7769,-1.7043,-1.6042,-1.6488,-1.6159,-1.5182,-1.5716,-1.5805,-1.5354,-1.4704,-1.4264,-1.4001,-1.3503,-1.3163,-1.2918,-1.2998,-1.2973,-1.2914,-1.2565,-1.2785,-1.345,-1.296,-1.2457,-1.206,-1.1271,-1.0452,-0.97,-0.9663,-0.9742,-0.9925,-0.8973,-0.8803,-0.9581,-0.8296,-0.7873,-0.8512,-0.7797,-0.7191,-0.6895,-0.8225,-0.9053,0.0,-1.0515,0.0,0.0,0.0,0.0,0.0,0.0,0.0,0.0,-1.0182,-1.1332,-1.1463,-1.0626,-1.0423,-1.1265,-1.2045,-1.2285,-1.1757,-1.2365,-1.2745,-1.2548,-1.2234,-1.2605,-1.4052,-1.3981,-1.3994,-1.4502,-1.5049,-1.5085,-1.4541,-1.4696,-1.5049,-1.5127,-1.5127,-1.532,-1.6102,-1.609,-1.6181,-1.6518,-1.6915,-1.7454,-1.8129,-1.8545,-1.8945,-1.9006,-1.9347,-1.956,-1.945,-1.9639,-1.9945,-2.0189,-2.063,-2.0974,-2.1167,-2.1419,-2.1542,-2.1336,-2.0499,-1.9542,-2.3378,-2.3077,-2.2849,-2.2634,-2.2439,-2.2051,-2.1907,-2.1948,-2.1757,-2.1608,-2.1431,-2.1073,-2.0334,-1.9421,-1.9137,-1.8047,-1.6323,-1.6818,-1.6156,-1.469,-1.591,-1.6089,-1.5441,-1.5719,-1.5823,-1.5702,-1.5073,-1.4734,-1.4612,-1.3946,-1.3971,-1.4589,-1.4237,-1.4439,-1.5167,0.0,0.0,0.0,-1.2119,-1.1682,-1.1659,-1.2208,-1.2509,-1.2556,-1.1974,0.0,-1.0951,-1.0256,-0.9788,-0.9681,-0.8769,0.0,0.0,0.0,0.0,0.0,0.0,0.0,0.0,0.0,0.0,0.0,-1.2758,-1.2199,-1.0498,-1.1148,-1.1572,-1.1295,-1.1132,-1.0888,-1.0578,-1.1111,-1.1511,-1.1545,-1.1852,-1.2075,-1.219,-1.2539,-1.2935,-1.3217,-1.3621,-1.4088,-1.4634,-1.4927,-1.521,-1.5372,-1.5332,-1.5531,-1.607,-1.547,-1.5396,-1.623,-1.6735,-1.7206,-1.7598,-1.785,-1.8163,-1.8616,-1.8874,-1.9101,-1.9124,-1.9435,-1.9654,-1.953,-1.9854,-2.022,-2.0361,-2.0794,-2.1183,-2.1324,-2.157,-2.1768,-2.1675,-2.1142,-2.0693,-2.3499,0.0,-2.3133,-2.2975,0.0,-2.2686,-2.259,-2.2616,-2.2364,-2.2169,-2.2089,-2.1895,-2.1444,-2.0817,-2.0571,-1.9609,-1.8207,-1.8724,-1.8236,-1.7013,-1.791,-1.8086,-1.7508,-1.7493,-1.7346,-1.7106,-1.6661,-1.6146,-1.5623,-1.5286,-1.5179,-1.5226,-1.5002,-1.5032,-1.53,-1.5136,-1.4558,-1.3605,-1.3031,-1.2574,-1.2271,-1.2584,-1.2922,-1.3193,-1.2502,0.0,0.0,0.0,0.0,0.0,0.0,0.0,0.0,0.0,0.0,-0.9802,-1.0668,-1.1319,-1.1562,-1.1495,-1.1828,-1.2678,-1.2657,-1.2371,-1.1761,-1.15,-1.1284,-1.1118,-1.1113,-1.0981,-1.0757,-1.1035,-1.1292,-1.149,-1.1686,-1.1949,-1.2373,-1.2531,-1.298,-1.3788,-1.4038,-1.4404,-1.5246,-1.5471,-1.5544,-1.5611,-1.5573,-1.5695,-1.5978,-1.5695,-1.5736,-1.6705,-1.7323,-1.7774,-1.8002,-1.8422,-1.8731,-1.8959,-1.9347,-1.9566,-1.9603,-1.9818,-1.9975,-1.9995,-2.0239,-2.0512,-2.0761,-2.1135,-2.1419,-2.1556,-2.1781,-2.1998,-2.2051,-2.1562,-2.1224,-2.3682,-2.3544,-2.3458,-2.3412,-2.3336,-2.3217,-2.3168,-2.3119,0.0,0.0,0.0,-2.2281,-2.2108,-2.1911,-2.1702,-2.1054,-2.0138,-2.0655,-2.0336,-1.9325,-2.0004,-2.0081,-1.9656,-1.9228,-1.8831,-1.8475,-1.8149,-1.7565,-1.6713,-1.6814,-1.6532,-1.5935,-1.5698,-1.5431,-1.5074,-1.4662,-1.4337,-1.4132,-1.3933,-1.3517,-1.2822,-1.2822,-1.3119,-1.3703,-1.2896,-1.2748,-1.34,-1.2403,-1.1858,-1.2055,-1.1536,-1.1248,-1.1303,-1.1595,-1.2075,-1.2737,-1.3359,-1.3473,-1.2971,-1.2794,-1.262,-1.2404,-1.1987,-1.1961,-1.2504,-1.1597,-1.1019,-1.1062,-1.1019,-1.1078,-1.1228,-1.1341,-1.1452,-1.1586,-1.1827,-1.2204,-1.2666,-1.2582,-1.3026,-1.4225,-1.4165,-1.4429,-1.5332,-1.5703,-1.5892,-1.5583,-1.5802,-1.6008,-1.6049,-1.61,-1.6391,-1.73,-1.7841,-1.8121,-1.8305,-1.8731,-1.9199,-1.9369,-1.9803,-2.01,-2.017,-2.0289,-2.0426,-2.0494,-2.0628,-2.0876,-2.1167,-2.1466,-2.1711,-2.1797,-2.2027,-2.232,-2.2478,-2.2142,-2.1899,-2.3939,-2.3753,-2.3689,-2.362,-2.3539,-2.3471,-2.3383,-2.3241,-2.2952,-2.2747,-2.2659,-2.2632,-2.2409,-2.2068,-2.1982,-2.1358,-2.0386,-2.0845,-2.0287,-1.8974,-2.0082,-2.0269,-1.9656,-2.0042,-2.0258,-2.0195,-1.9524,-1.912,-1.8982,-1.8424,-1.8038,-1.7823,-1.7197,-1.6442,-1.5712,-1.5492,-1.5271,-1.5016,-1.4864,-1.4772,-1.4713,-1.5168,-1.5476,-1.5649,-1.5328,-1.4974,-1.451,-1.418,-1.4026,-1.399,-1.3272,-1.2994,-1.3168,-1.2659,-1.2134,-1.1619,-1.1718,-1.1712,-1.1527,-1.1786,-1.2089,-1.2354,-1.2342,-1.221,-1.1934,-1.1605,-1.1361,-1.1285,-1.1372,-1.1522,-1.1734,-1.1697,-1.1771,-1.2002,-1.2441,-1.2704,-1.2638,-1.301,-1.3264,-1.3265,-1.3118,-1.3374,-1.4209,-1.4796,-1.5377,-1.5693,-1.6373,-1.6918,-1.7221,-1.7287,-1.7477,-1.8147,-1.8397,-1.863,-1.9026,-1.931,-1.9603,-1.9925,-2.01,-2.0323,-2.0392,-2.0561,-2.0728,-2.0761,-2.1004,-2.1231,-2.1433,-2.1727,-2.2024,-2.2271,-2.25,-2.279,-2.3159,-2.3293,-2.3422,-2.3999,-2.3837,-2.3795,-2.3732,-2.3703,-2.3634,-2.3522,-2.3407,-2.3289,-2.3095,-2.2868,-2.2816,-2.2694,-2.249,-2.2409,-2.2107,-2.1618,-2.1749,-2.1454,-2.0804,-2.121,-2.1189,-2.0837,-2.0989,-2.1071,-2.1007,-2.075,-2.0382,-2.0012,-1.9617,-1.9178,-1.8663,-1.7782,-1.7111,-1.6717,-1.6192,-1.5853,-1.5681,-1.5196,-1.4923,-1.4817,-1.5061,-1.5241,-1.5359,-1.5182,-1.4888,-1.441,-1.4142,-1.3898,-1.3606,-1.3223,-1.3,-1.3031,-1.2734,-1.2433,-1.2174,-1.2151,-1.2207,-1.2292,-1.2509,-1.2716,-1.2814,-1.2768,-1.2697,-1.252,-1.2113,-1.1825,-1.1805,-1.1799,-1.1918,-1.2052,-1.2089,-1.2186,-1.2365,-1.271,-1.2878,-1.2922,-1.3185,-1.3442,-1.3563,-1.3659,-1.3986,-1.4852,-1.5257,-1.5771,-1.643,-1.7151,-1.7666,-1.8082,-1.8187,-1.8279,-1.8475,-1.8679,-1.8997,-1.9362,-1.9726,-1.9995,-2.0239,-2.041,-2.0595,-2.0745,-2.0925,-2.1023,-2.1199,-2.1391,-2.1565,-2.1751,-2.2034,-2.2341,-2.2563,-2.2857,-2.3183,-2.3574,-2.4063,-2.4429,-2.4135,-2.3978,-2.3919,-2.3896,-2.3855,-2.381,-2.3703,-2.3611,-2.3616,-2.3481,-2.3206,-2.3052,-2.2927,-2.2868,-2.2825,-2.2781,-2.2737,-2.2676,-2.2624,-2.252,-2.2292,-2.2101,-2.1974,-2.1857,-2.1721,-2.1601,-2.1691,-2.144,-2.0912,-2.0721,-2.014,-1.9241,-1.8327,-1.7801,-1.7597,-1.6764,-1.6297,-1.6219,-1.5594,-1.5134,-1.4814,-1.4783,-1.4797,-1.4811,-1.4686,-1.4452,-1.4214,-1.3934,-1.3602,-1.3242,-1.3126,-1.3057,-1.2988,-1.2906,-1.2975,-1.316,-1.3104,-1.316,-1.3353,-1.3446,-1.3425,-1.3254,-1.3198,-1.3176,-1.3129,-1.272,-1.2389,-1.2354,-1.2318,-1.2282,-1.2342,-1.2413,-1.2591,-1.2743,-1.2899,-1.3076,-1.3232,-1.3522,-1.3817,-1.4182,-1.441,-1.4911,-1.5453,-1.5957,-1.6625,-1.7411,-1.7948,-1.833,-1.8655,-1.8945,-1.8983,-1.902,-1.9169,-1.9427,-1.9603,-2.008,-2.0426,-2.0579,-2.0828,-2.1055,-2.1261,-2.1355,-2.1493,-2.1751,-2.1913,-2.2061,-2.2254,-2.2479,-2.275,-2.2992,-2.3293,-2.3645,-2.4063,-2.4591,-2.5053,-2.4444,-2.4266,-2.421,-2.4077,-2.3998,-2.4039,-2.4018,-2.3955,-2.4019,-2.3959,-2.3753,-2.3435,-2.3217,-2.3095,-2.3126,-2.3126,-2.3133,-2.3144,-2.3091,-2.3014,-2.2816,-2.2642,-2.2525,-2.2375,-2.2281,-2.222,-2.2226,-2.2113,-2.1916,-2.172,-2.1078,-2.0054,-1.9361,-1.863,-1.7946,-1.7151,-1.6747,-1.6738,-1.6421,-1.6039,-1.5507,-1.5329,-1.5225,-1.5225,-1.4949,-1.4718,-1.4564,-1.4406,-1.4292,-1.4189,-1.4032,-1.4032,-1.4078,-1.3901,-1.3842,-1.3946,-1.3907,-1.3901,-1.3901,-1.3769,-1.3615,-1.3493,-1.3425,-1.3391,-1.3391,-1.3378,-1.3173,-1.2896,-1.2791,-1.2766,-1.266,-1.2671,-1.2857,-1.3288,-1.3378,-1.3372,-1.3556,-1.4426,-1.4816,-1.3993,-1.4968,-1.5277,-1.4932,-1.6059,-1.747,-1.8349,-1.8679,-1.893,-1.9244,-1.9515,-1.9752,-1.9879,-1.9929,-1.9965,-2.0308,-2.0595,-2.0909,-2.1166,-2.1385,-2.1612,-2.1849,-2.2079,-2.2258,-2.2405,-2.2596,-2.2763,-2.294,-2.3152,-2.3285,-2.359,-2.3892,-2.4205,-2.4796,-2.5116,-2.5264,-2.4841,-2.5077,-2.4577,-2.4339,-2.4247,-2.4266,-2.4247,-2.4172,-2.4173,-2.4115,-2.4018,-2.3834,-2.3642,-2.3468,-2.3389,-2.3407,-2.3435,-2.336,-2.3277,-2.32,-2.306,-2.2919,-2.2842,-2.2738,-2.2669,-2.2669,-2.2643,-2.2643,-2.2581,-2.2303,-2.1597,-2.0586,-1.9876,-1.9099,-1.8287,-1.7434,-1.696,-1.6917,-1.667,-1.6421,-1.6148,-1.5868,-1.5624,-1.5477,-1.5329,-1.5239,-1.5134,-1.4998,-1.4845,-1.4672,-1.4519,-1.4456,-1.442,-1.431,-1.4264,-1.4328,-1.4246,-1.4176,-1.4065,-1.4013,-1.396,-1.3815,-1.3769,-1.3735,-1.3782,-1.3848,-1.3782,-1.3602,-1.3399,-1.3297,-1.3259,-1.323,-1.3398,-1.3802,-1.3933,-1.4013,-1.423,-1.4951,-1.5325,-1.5131,-1.573,-1.6294,-1.6332,-1.7329,-1.8295,-1.8763,-1.9119,-1.9522,-1.9728,-2.0089,-2.0447,-2.0732,-2.0879,-2.0959,-2.0975,-2.1197,-2.1458,-2.1728,-2.1955,-2.2235,-2.2495,-2.266,-2.2845,-2.3041,-2.3153,-2.3271,-2.3414,-2.3648,-2.3842,-2.4135,-2.4444,-2.4755,-2.5141,-2.5311,-2.5422,-2.5217,-2.5344,-2.4769,-2.4512,-2.4498,-2.4497,-2.4479,-2.4446,-2.4614,-2.4635,-2.4543,-2.4541,-2.4534,-2.4499,-2.414,-2.3894,-2.3739,-2.3809,-2.3682,-2.3445,-2.3307,-2.323,-2.3175,-2.314,-2.308,-2.3063,-2.3091,-2.3091,-2.3042,-2.2755,-2.2175,-2.1363,-2.0617,-1.9815,-1.896,-1.8211,-1.7741,-1.7452,-1.7258,-1.7087,-1.6902,-1.646,-1.608,-1.5826,-1.5769,-1.574,-1.5653,-1.5551,-1.5404,-1.521,-1.5106,-1.497,-1.4876,-1.4814,-1.4752,-1.4721,-1.47,-1.4574,-1.4374,-1.4388,-1.4337,-1.4227,-1.4246,-1.4246,-1.4278,-1.4369,-1.4465,-1.4438,-1.4259,-1.4084,-1.3934,-1.3952,-1.416,-1.4525,-1.461,-1.4777,-1.5258,-1.5768,-1.6246,-1.656,-1.7173,-1.7627,-1.8216,-1.8724,-1.9022,-1.9254,-1.9723,-2.0078,-2.0221,-2.0635,-2.115,-2.1453,-2.1836,-2.1922,-2.1648,-2.1864,-2.2173,-2.2452,-2.271,-2.297,-2.3188,-2.3334,-2.3473,-2.3739,-2.3753,-2.3853,-2.4026,-2.4195,-2.4343,-2.4572,-2.4841,-2.5137,-2.5335,-2.546,-2.5529,-2.5563,-2.4885,-2.4676,-2.4711,-2.4682,-2.4798,-2.4764,-2.4723,-2.5565,-2.5839,-2.5647,-2.5597,-2.5949,-2.6466,-2.5578,-2.4741,-2.4176,-2.4678,-2.4541,-2.3883,-2.3765,-2.3642,-2.3571,-2.3624,-2.3584,-2.341,-2.3544,-2.3468,-2.3211,-2.3111,-2.2883,-2.2453,-2.1831,-2.1059,-2.011,-1.9858,-1.9446,-1.8593,-1.8392,-1.8196,-1.7941,-1.7193,-1.6639,-1.6328,-1.6203,-1.6136,-1.6067,-1.6011,-1.5968,-1.594,-1.587,-1.5827,-1.5799,-1.5566,-1.5418,-1.5359,-1.5343,-1.5267,-1.5088,-1.4951,-1.4828,-1.4794,-1.4797,-1.4876,-1.4907,-1.4968,-1.509,-1.5315,-1.5285,-1.5074,-1.4718,-1.4752,-1.5023,-1.532,-1.5352,-1.5703,-1.6451,-1.6848,-1.7556,-1.8205,-1.8867,-1.9351,-1.9843,-1.959,-1.9739,-2.0089,-2.0571,-2.0765,-2.0734,-2.1209,-2.1749,-2.2204,-2.2574,-2.281,-2.2461,-2.2658,-2.2994,-2.3249,-2.3494,-2.3836,-2.4008,-2.4172,-2.4309,-2.4423,-2.4407,-2.4485,-2.4639,-2.4777,-2.4853,-2.5034,-2.5178,-2.541,-2.5512,-2.5589,-2.5645,-2.5792,-2.5113,-2.6062,-2.5878,-2.4969,-2.5456,-2.5367,-2.4965,-2.6307,-2.6547,-2.6148,-2.6474,-2.6818,-2.7009,-2.7157,-2.6353,-2.5052,-2.5173,-2.5056,-2.4743,-2.4702,-2.4641,-2.4638,-2.4641,-2.4312,-2.3868,-2.381,-2.375,-2.3592,-2.354,-2.316,-2.2584,-2.221,-2.1522,-2.0691,-2.0418,-2.0089,-1.9605,-1.9471,-1.9084,-1.8466,-1.8136,-1.7666,-1.6924,-1.6607,-1.6474,-1.6459,-1.6421,-1.6382,-1.6328,-1.6301,-1.6246,-1.6136,-1.5983,-1.587,-1.5827,-1.5741,-1.5668,-1.5654,-1.5492,-1.533,-1.527,-1.527,-1.5315,-1.5389,-1.5448,-1.5594,-1.5824,-1.5968,-1.5868,-1.5782,-1.558,-1.5684,-1.6173,-1.6129,-1.6472,-1.7425,-1.7772,-1.8154,-1.9103,-1.9947,-2.0483,-2.0585,-2.0575,-2.0623,-2.0941,-2.1195,-2.1354,-2.1526,-2.1969,-2.2487,-2.2874,-2.3294,-2.3614,-2.3719,-2.364,-2.3779,-2.3989,-2.4206,-2.4372,-2.455,-2.4681,-2.4822,-2.4866,-2.491,-2.4939,-2.5037,-2.5118,-2.5226,-2.5305,-2.5473,-2.5678,-2.5629,-2.5891,-2.5898,-2.6491,-2.6173,-2.7128,-2.6785,-2.569,-2.6378,-2.606,-2.5323,-2.7039,-2.7414,-2.6824,-2.7384,-2.7794,-2.7955,-2.8278,-2.7737,-2.6525,-2.626,-2.6051,-2.5772,-2.5752,-2.5711,-2.5674,-2.5436,-2.5031,-2.4496,-2.4109,-2.3978,-2.3881,-2.3878,-2.3547,-2.3014,-2.2818,-2.2236,-2.1454,-2.1341,-2.1201,-2.0776,-2.0609,-2.022,-1.9604,-1.9367,-1.8822,-1.7969,-1.7543,-1.7178,-1.6857,-1.6763,-1.6712,-1.6659,-1.6644,-1.6581,-1.6474,-1.6382,-1.6344,-1.6332,-1.612,-1.6093,-1.6163,-1.5981,-1.5824,-1.5838,-1.5809,-1.5824,-1.5909,-1.5966,-1.6133,-1.6351,-1.6485,-1.6554,-1.6554,-1.6363,-1.6357,-1.6719,-1.6846,-1.7221,-1.8073,-1.8311,-1.9027,-2.0175,-2.0876,-2.1197,-2.1275,-2.1337,-2.1442,-2.1622,-2.1786,-2.202,-2.2332,-2.2738,-2.3234,-2.3697,-2.3989,-2.4259,-2.4428,-2.4473,-2.4388,-2.455,-2.4667,-2.4854,-2.4977,-2.5126,-2.5216,-2.5292,-2.5327,-2.536,-2.5383,-2.5444,-2.5479,-2.5543,-2.5866,-2.6154,-2.6211,-2.6341,-2.6181,-2.7742,-2.7677,-2.7738,-2.7332,-2.6754,-2.7459,-2.6872,-2.6009,-2.7911,-2.842,-2.7755,-2.8324,-2.8985,-2.943,-2.8929,-2.8499,-2.833,-2.8054,-2.7511,-2.6859,-2.6821,-2.682,-2.6762,-2.6041,-2.5522,-2.5223,-2.4615,-2.4191,-2.4116,-2.4135,-2.406,-2.3961,-2.381,-2.3229,-2.2332,-2.2772,-2.2682,-2.2001,-2.1784,-2.1707,-2.1603,-2.0824,-2.0039,-1.9281,-1.9028,-1.8358,-1.7149,-1.7059,-1.7018,-1.6977,-1.6952,-1.6876,-1.6841,-1.6773,-1.6789,-1.6763,-1.6591,-1.6581,-1.6644,-1.6448,-1.6394,-1.6485,-1.6463,-1.6463,-1.6528,-1.6581,-1.6686,-1.686,-1.6977,-1.7043,-1.7085,-1.7167,-1.7108,-1.6781,-1.7427,-1.7876,-1.8207,-1.8764,-1.9866,-2.1295,-2.1794,-2.1882,-2.1911,-2.1969,-2.2022,-2.2158,-2.2361,-2.2643,-2.3007,-2.3407,-2.4004,-2.4561,-2.4695,-2.4743,-2.4975,-2.5176,-2.5084,-2.5065,-2.5143,-2.5245,-2.5301,-2.5395,-2.5432,-2.5486,-2.5498,-2.5521,-2.5517,-2.5576,-2.5578,-2.5684,-2.6146,-2.6425,-2.6249,-2.6174,-2.6247,-2.8942,-2.799,-2.8519,-2.8249,-2.7662,-2.8401,-2.8102,-2.7332,-2.9133,-2.9442,-2.8887,-2.9402,-2.9813,-2.9889,-2.9639,-2.9496,-2.9465,-2.9319,-2.8834,-2.807,-2.7886,-2.7848,-2.7661,-2.6916,-2.5875,-2.4986,-2.506,-2.4875,-2.445,-2.4339,-2.4284,-2.421,-2.4077,-2.379,-2.3353,-2.348,-2.3312,-2.2964,-2.2952,-2.2658,-2.2036,-2.1651,-2.1092,-2.0331,-2.0056,-1.9484,-1.8562,-1.7816,-1.7425,-1.7361,-1.7384,-1.7361,-1.7296,-1.724,-1.7175,-1.7126,-1.7002,-1.6952,-1.7002,-1.6926,-1.6876,-1.6926,-1.6926,-1.6952,-1.7002,-1.7109,-1.7248,-1.7384,-1.7479,-1.7549,-1.7606,-1.7693,-1.7846,-1.7827,-1.7755,-1.8379,-1.9591,-2.0567,-2.1373,-2.1933,-2.2271,-2.2398,-2.2453,-2.2508,-2.2581,-2.273,-2.2947,-2.3224,-2.3584,-2.3951,-2.4393,-2.4961,-2.5006,-2.5065,-2.5194,-2.5322,-2.5312,-2.5283,-2.5354,-2.5441,-2.5525,-2.5549,-2.56,-2.5632,-2.5652,-2.5746,-2.5715,-2.5666,-2.5654,-2.5956,-2.6441,-2.6314,-2.5917,-2.6145,-2.6689,-2.9912,-2.9004,-2.9458,-2.9197,-2.856,-2.9332,-2.9004,-2.829,-2.9706,-2.9935,-2.941,-2.9927,-3.0221,-3.0157,-3.0083,-3.0022,-2.9975,-2.9972,-2.9655,-2.9139,-2.8929,-2.8858,-2.8615,-2.7494,-2.6284,-2.5152,-2.5132,-2.4983,-2.4517,-2.4517,-2.4446,-2.4375,-2.4228,-2.4095,-2.3919,-2.3816,-2.371,-2.3642,-2.3624,-2.3368,-2.2891,-2.2652,-2.2167,-2.1406,-2.1138,-2.0599,-1.9779,-1.8858,-1.8133,-1.7777,-1.7726,-1.7726,-1.7704,-1.7635,-1.7612,-1.7526,-1.7415,-1.7351,-1.7408,-1.7337,-1.732,-1.7368,-1.7408,-1.7408,-1.7505,-1.7733,-1.8044,-1.82,-1.862,-1.8847,-1.891,-1.8973,-1.912,-1.9287,-1.8708,-1.911,-2.0723,-2.1542,-2.2085,-2.2363,-2.2677,-2.2799,-2.2893,-2.2944,-2.3035,-2.3212,-2.3432,-2.3684,-2.4025,-2.4355,-2.4799,-2.5115,-2.5224,-2.5283,-2.5354,-2.5422,-2.5459,-2.5479,-2.5505,-2.5568,-2.562,-2.5624,-2.5648,-2.5661,-2.5694,-2.6072,-2.6113,-2.582,-2.5741,-2.6234,-2.6893,-2.6981,-2.705,-2.7675,-2.7992,-3.0565,-3.0537,-3.0519,-3.0036,-2.9492,-3.0143,-2.962,-2.864,-2.9814,-3.0066,-2.9621,-3.0078,-3.0343,-3.0245,-3.0195,-3.0166,-3.0113,-3.0098,-3.0068,-2.9946,-2.978,-2.9603,-2.9138,-2.8016,-2.6934,-2.5945,-2.529,-2.486,-2.4769,-2.469,-2.4634,-2.45,-2.4339,-2.4229,-2.4115,-2.3998,-2.3955,-2.3958,-2.3937,-2.3901,-2.3866,-2.3741,-2.3289,-2.2443,-2.2273,-2.1799,-2.089,-2.0074,-1.9173,-1.8258,-1.8202,-1.8219,-1.8129,-1.8112,-1.8141,-1.7978,-1.7788,-1.776,-1.7755,-1.7855,-1.7878,-1.8008,-1.8104,-1.7912,-1.8314,-1.8683,-1.895,-1.9115,-1.9762,-2.0326,-2.0346,-2.0552,-2.0684,-2.0846,-2.0228,-2.0406,-2.1241,-2.171,-2.2285,-2.2813,-2.3102,-2.3217,-2.3223,-2.3289,-2.3394,-2.3544,-2.3723,-2.4025,-2.4379,-2.4728,-2.5027,-2.5236,-2.5382,-2.543,-2.5479,-2.5473,-2.5543,-2.5579,-2.56,-2.5639,-2.5675,-2.5678,-2.5915,-2.5894,-2.6171,-2.6479,-2.6609,-2.6488,-2.6649,-2.7285,-2.7754,-2.8005,-2.818,-2.8452,-2.8444,-3.0246,-2.9807,-3.0377,-3.0494,-3.0311,-3.0496,-3.0341,-2.9981,-3.0341,-3.043,-3.0287,-3.0385,-3.0449,-3.0414,-3.0362,-3.0286,-3.0199,-3.019,-3.0147,-3.0102,-3.0057,-2.9531,-2.9094,-2.8968,-2.8217,-2.7015,-2.6545,-2.6226,-2.5609,-2.5011,-2.4701,-2.4566,-2.4446,-2.4339,-2.4247,-2.4173,-2.4135,-2.4135,-2.4135,-2.4115,-2.4115,-2.3958,-2.3806,-2.3662,-2.3346,-2.2841,-2.2082,-2.1251,-2.0283,-1.9307,-1.922,-1.9279,-1.9241,-1.9199,-1.8965,-1.8471,-1.8176,-1.804,-1.8177,-1.8584,-1.8864,-1.8994,-1.9423,-1.9923,-1.9928,-1.9625,-1.9526,-1.9534,-1.9829,-2.009,-2.0209,-2.0773,-2.1375,-2.1914,-2.168,-2.1569,-2.1966,-2.2529,-2.3082,-2.3307,-2.3435,-2.3504,-2.3571,-2.3602,-2.3732,-2.3943,-2.4155,-2.4381,-2.4733,-2.4984,-2.5255,-2.5383,-2.5499,-2.5543,-2.5565,-2.5556,-2.5591,-2.5663,-2.5675,-2.5664,-2.5697,-2.569,-2.6122,-2.6484,-2.722,-2.7654,-2.7716,-2.7683,-2.8082,-2.8273,-2.8526,-2.8664,-2.8164,-2.8144,-2.8245,-3.0367,-2.9989,-3.0482,-3.0676,-3.0634,-3.0634,-3.0634,-3.0653,-3.0634,-3.0618,-3.0602,-3.0539,-3.0492,-3.0479,-3.0414,-3.0323,-3.0247,-3.024,-3.0232,-3.0171,-3.0138,-2.9768,-2.9304,-2.9332,-2.8785,-2.7972,-2.7468,-2.6827,-2.6114,-2.5518,-2.5098,-2.4732,-2.4564,-2.4497,-2.4426,-2.4339,-2.4266,-2.4229,-2.4192,-2.4192,-2.4191,-2.4134,-2.4077,-2.4077,-2.3862,-2.3456,-2.2674,-2.2126,-2.1373,-2.0542,-2.0324,-2.0365,-2.0383,-2.0344,-2.0091,-1.957,-1.9251,-1.9094,-1.9377,-1.9922,-2.0171,-2.0118,-2.057,-2.0793,-2.0872,-2.0742,-2.0764,-2.0918,-2.1194,-2.1437,-2.1648,-2.2126,-2.2658,-2.3115,-2.3127,-2.2968,-2.2779,-2.3209,-2.3566,-2.3685,-2.3771,-2.3834,-2.3915,-2.3941,-2.4099,-2.4334,-2.4511,-2.4755,-2.5042,-2.5245,-2.5403,-2.5517,-2.5566,-2.56,-2.5624,-2.5628,-2.5621,-2.5691,-2.5879,-2.5843,-2.5854,-2.5844,-2.609,-2.6757,-2.7893,-2.8665,-2.8563,-2.8529,-2.8663,-2.8865,-2.9156,-2.9197,-2.8805,-2.8284,-2.8319,-3.0658,-3.0581,-3.0678,-3.0711,-3.0697,-3.0697,-3.069,-3.0697,-3.0697,-3.0656,-3.0626,-3.0557,-3.053,-3.05,-3.0432,-3.0337,-3.0316,-3.0318,-3.0324,-3.0279,-3.0228,-3.0051,-2.9863,-2.9345,-2.9064,-2.8726,-2.7972,-2.7203,-2.6548,-2.6216,-2.5597,-2.4986,-2.4738,-2.4673,-2.4594,-2.4479,-2.4375,-2.4266,-2.4266,-2.4284,-2.4284,-2.4284,-2.4266,-2.4248,-2.4154,-2.3766,-2.3197,-2.2866,-2.2535,-2.1572,-2.1484,-2.145,-2.1468,-2.1468,-2.1303,-2.1064,-2.0583,-2.0463,-2.0888,-2.1267,-2.1572,-2.1295,-2.1277,-2.1355,-2.1691,-2.2001,-2.2206,-2.2269,-2.3252,-2.3333,-2.3654,-2.4007,-2.4008,-2.4063,-2.4247,-2.4173,-2.3921,-2.384,-2.3919,-2.4037,-2.4097,-2.4155,-2.4229,-2.4355,-2.4505,-2.4614,-2.4809,-2.5004,-2.5216,-2.5383,-2.5517,-2.5585,-2.5629,-2.5619,-2.5655,-2.5694,-2.5684,-2.5732,-2.6052,-2.6156,-2.6164,-2.6149,-2.6133,-2.6754,-2.8463,-2.9148,-2.9016,-2.9078,-2.9248,-2.9439,-2.9706,-2.9829,-2.9787,-2.9148,-2.8907,-3.0331,-2.9822,-3.0444,-3.0704,-3.0711,-3.0711,-3.0711,-3.0711,-3.0704,-3.0685,-3.0672,-3.0658,-3.0603,-3.0554,-3.0449,-3.0481,-3.034,-3.0371,-3.0405,-3.0297,-3.0292,-3.0273,-3.0174,-2.9818,-2.9798,-2.9555,-2.8912,-2.8055,-2.7312,-2.6603,-2.5844,-2.5102,-2.4988,-2.4783,-2.4738,-2.4738,-2.4566,-2.4444,-2.4428,-2.4446,-2.4464,-2.4447,-2.4446,-2.4497,-2.4408,-2.4264,-2.41,-2.3989,-2.386,-2.351,-2.2922,-2.2518,-2.2499,-2.248,-2.2243,-2.1787,-2.1438,-2.129,-2.1491,-2.2008,-2.235,-2.2399,-2.2761,-2.3288,-2.3351,-2.2917,-2.2827,-2.2848,-2.3013,-2.3566,-2.4137,-2.4319,-2.4407,-2.4493,-2.4528,-2.4512,-2.4408,-2.4319,-2.4284,-2.4373,-2.4407,-2.4422,-2.4439,-2.4613,-2.4771,-2.491,-2.5069,-2.5243,-2.5394,-2.5535,-2.5593,-2.5659,-2.5657,-2.568,-2.5732,-2.5886,-2.6143,-2.6147,-2.6384,-2.664,-2.666,-2.6772,-2.6878,-2.7855,-2.9351,-2.9561,-2.9246,-2.9776,-2.997,-3.012,-3.0151,-3.0081,-2.9909,-2.9569,-2.9399,-3.0467,-3.0155,-3.0578,-3.0722,-3.071,-3.0704,-3.0704,-3.071,-3.0697,-3.0703,-3.0697,-3.0704,-3.0477,-3.0052,-3.002,-2.9931,-3.0018,-3.0314,-3.0216,-2.9993,-3.0117,-3.016,-2.9932,-3.0081,-3.0207,-3.007,-2.9704,-2.8994,-2.8165,-2.7328,-2.6561,-2.5729,-2.5587,-2.5319,-2.5026,-2.5179,-2.4998,-2.4582,-2.453,-2.4549,-2.4566,-2.4599,-2.4634,-2.4726,-2.4673,-2.4626,-2.4575,-2.4543,-2.4508,-2.4381,-2.4016,-2.3656,-2.3585,-2.3548,-2.329,-2.2997,-2.2813,-2.2777,-2.2923,-2.3125,-2.338,-2.3437,-2.3878,-2.4024,-2.4098,-2.3732,-2.3639,-2.3638,-2.3746,-2.3982,-2.447,-2.4607,-2.4689,-2.4719,-2.4764,-2.4779,-2.4746,-2.4639,-2.4591,-2.4654,-2.47,-2.4727,-2.4814,-2.4968,-2.5091,-2.5245,-2.5408,-2.5551,-2.552,-2.5637,-2.565,-2.5683,-2.568,-2.5715,-2.58,-2.6113,-2.6699,-2.6795,-2.6927,-2.7212,-2.7374,-2.7566,-2.777,-2.8704,-2.9452,-2.9497,-2.9386,-2.9999,-3.037,-3.0253,-3.015,-3.009,-2.9977,-2.9744,-2.9628,-3.0623,-3.0784,-3.0794,-3.07,-3.0553,-3.065,-3.0611,-3.0495,-3.067,-3.0603,-3.0514,-3.0503,-2.9972,-2.9356,-2.9171,-2.9175,-2.9553,-3.0123,-3.0221,-2.9834,-3.024,-3.0132,-2.9869,-3.0113,-3.0348,-3.0273,-3.0157,-2.9652,-2.8855,-2.8243,-2.7466,-2.6727,-2.6581,-2.6288,-2.5753,-2.5878,-2.5816,-2.5032,-2.4976,-2.4826,-2.4679,-2.4738,-2.4798,-2.487,-2.4879,-2.4879,-2.4847,-2.4828,-2.4828,-2.4842,-2.4856,-2.4742,-2.458,-2.4482,-2.4465,-2.4372,-2.417,-2.4076,-2.4072,-2.4222,-2.4259,-2.4369,-2.4352,-2.4372,-2.4373,-2.4389,-2.4364,-2.4449,-2.4498,-2.4591,-2.4817,-2.4856,-2.4879,-2.4921,-2.4993,-2.5032,-2.5019,-2.4893,-2.4874,-2.4915,-2.4955,-2.4962,-2.5172,-2.5379,-2.5479,-2.5622,-2.58,-2.5904,-2.5877,-2.5918,-2.6052,-2.616,-2.625,-2.6587,-2.6727,-2.6739,-2.7273,-2.7484,-2.755,-2.7844,-2.8104,-2.8243,-2.8403,-2.8533,-2.8997,-2.9244,-2.9573,-3.0001,-3.0234,-3.018,-3.0113,-3.0003,-2.994,-2.9876,-2.979,-3.0127,-3.0798,-3.0784,-3.038,-2.9849,-3.0438,-3.0302,-2.9913,-3.0414,-3.0345,-2.9756,-2.9703,-2.9274,-2.8568,-2.8389,-2.8735,-2.9334,-3.0136,-3.0474,-3.0219,-3.0461,-3.0336,-3.0173,-3.0307,-3.046,-3.0447,-3.0383,-2.9867,-2.9217,-2.8802,-2.8272,-2.7649,-2.7496,-2.7268,-2.7122,-2.7241,-2.6778,-2.5811,-2.5735,-2.5523,-2.5012,-2.4888,-2.4961,-2.5044,-2.505,-2.5075,-2.5068,-2.5049,-2.5041,-2.5038,-2.5063,-2.5012,-2.4949,-2.4814,-2.4734,-2.467,-2.4651,-2.4648,-2.4693,-2.4678,-2.4693,-2.4746,-2.4697,-2.4651,-2.4692,-2.4726,-2.4719,-2.4779,-2.4851,-2.4953,-2.4955,-2.4981,-2.5006,-2.5056,-2.5111,-2.5134,-2.5198,-2.5286,-2.5283,-2.5401,-2.5305,-2.5395,-2.5831,-2.618,-2.6387,-2.6653,-2.6909,-2.6853,-2.6722,-2.6752,-2.6841,-2.693,-2.7006,-2.7429,-2.7823,-2.7789,-2.797,-2.8183,-2.8349,-2.8642,-2.8839,-2.8888,-2.9004,-2.911,-2.9371,-2.9785,-3.0056,-3.0132,-3.0098,-3.0049,-2.9972,-2.9907,-2.9841,-2.9771,-2.9682,-2.9771,-3.0123,-2.9671,-2.9238,-2.8965,-2.9277,-2.9238,-2.9,-2.9714,-2.964,-2.9168,-2.9219,-2.8766,-2.787,-2.7585,-2.8012,-2.891,-3.0171,-3.0379,-3.0171,-3.0354,-3.033,-3.0141,-3.0335,-3.05,-3.0519,-3.0482,-3.0298,-2.9728,-2.9331,-2.8991,-2.8623,-2.8459,-2.8245,-2.7969,-2.8102,-2.7497,-2.667,-2.6282,-2.5888,-2.5151,-2.5072,-2.516,-2.5192,-2.5224,-2.5274,-2.5274,-2.5245,-2.5255,-2.5244,-2.5265,-2.5245,-2.5216,-2.5157,-2.5053,-2.4943,-2.4936,-2.4962,-2.5,-2.5,-2.5031,-2.5025,-2.4968,-2.4896,-2.4907,-2.4893,-2.494,-2.4955,-2.5019,-2.5118,-2.5099,-2.5141,-2.5168,-2.5212,-2.5262,-2.5322,-2.5447,-2.5754,-2.5956,-2.6081,-2.6168,-2.6434,-2.6928,-2.723,-2.7393,-2.7675,-2.7979,-2.7833,-2.7576,-2.7488,-2.7498,-2.7705,-2.7787,-2.8055,-2.8493,-2.8608,-2.8662,-2.8871,-2.8945,-2.924,-2.932,-2.9269,-2.9461,-2.9653,-2.9992,-3.0023,-3.0073,-3.0003,-2.995,-2.9924,-2.9857,-2.9806,-2.9717,-2.9645,-2.9569,-2.9398,-2.9514,-2.8616,-2.8148,-2.807,-2.8187,-2.8148,-2.8184,-2.9097,-2.8945,-2.8145,-2.8727,-2.8301,-2.7209,-2.7188,-2.7673,-2.8374,-2.9971,-3.0308,-3.0067,-3.0361,-3.0268,-3.0067,-3.0222,-3.0622,-3.0571,-3.0625,-3.0637,-3.0303,-2.9909,-2.9601,-2.9477,-2.9458,-2.9178,-2.8792,-2.8846,-2.8025,-2.7223,-2.6518,-2.6036,-2.5416,-2.5274,-2.5346,-2.5354,-2.5406,-2.5449,-2.5437,-2.5422,-2.5437,-2.542,-2.542,-2.5427,-2.5447,-2.5447,-2.536,-2.5236,-2.5234,-2.5224,-2.5253,-2.5264,-2.5243,-2.5222,-2.5182,-2.5126,-2.508,-2.5087,-2.5099,-2.5138,-2.5182,-2.5233,-2.5271,-2.5465,-2.5476,-2.5399,-2.5532,-2.571,-2.5928,-2.63,-2.6924,-2.7067,-2.7152,-2.7401,-2.78,-2.819,-2.8357,-2.8602,-2.8891,-2.8646,-2.8372,-2.8048,-2.8085,-2.841,-2.8599,-2.8723,-2.9,-2.9294,-2.9391,-2.9557,-2.9467,-2.9497,-2.9546,-2.9522,-2.9732,-2.9846,-2.9665,-2.9684,-2.9769,-2.9891,-2.9874,-2.9841,-2.9771,-2.9681,-2.9626,-2.9589,-2.9528,-2.8828,-2.953,-2.865,-2.7861,-2.7326,-2.7925,-2.7808,-2.7413,-2.8909,-2.8619,-2.7298,-2.7984,-2.7557,-2.6637,-2.7553,-2.8088,-2.8743,-2.9883,-3.0653,-3.0468,-3.0628,-3.0664,-3.0529,-3.0645,-3.0658,-3.0522,-3.0561,-3.0626,-3.0513,-3.0401,-3.0377,-3.0341,-3.0275,-3.0277,-2.9881,-2.9573,-2.8742,-2.7788,-2.7024,-2.6257,-2.5584,-2.5471,-2.5479,-2.5525,-2.5562,-2.5554,-2.5585,-2.5626,-2.5646,-2.5586,-2.562,-2.5619,-2.5582,-2.5595,-2.556,-2.5505,-2.5453,-2.536,-2.5393,-2.55,-2.5578,-2.5608,-2.5551,-2.5361,-2.5543,-2.5552,-2.5562,-2.5283,-2.5428,-2.56,-2.5821,-2.6149,-2.608,-2.6114,-2.6262,-2.6517,-2.6713,-2.7168,-2.7796,-2.8359,-2.8534,-2.8413,-2.8515,-2.8921,-2.9292,-2.9562,-2.9693,-2.9431,-2.9203,-2.8887,-2.881,-2.9166,-2.9206,-2.9282,-2.9334,-2.9625,-2.9727,-2.9996,-2.9882,-2.9715,-2.9684,-2.9655,-2.9737,-2.9794,-2.9572,-2.9531,-2.9742,-2.9841,-2.9823,-2.9771,-2.97,-2.9626,-2.9531,-2.949,-2.9446,-2.8504,-2.8786,-2.7923,-2.7059,-2.6431,-2.7198,-2.7372,-2.7442,-2.8806,-2.8633,-2.7407,-2.7913,-2.7581,-2.6935,-2.8187,-2.893,-2.921,-3.0224,-3.0759,-3.072,-3.0739,-3.0769,-3.0609,-3.0351,-3.019,-3.037,-2.9951,-2.9936,-3.0237,-3.0633,-3.0658,-3.0651,-3.0644,-3.0593,-3.0583,-3.028,-2.9594,-2.8616,-2.7498,-2.6391,-2.5762,-2.5554,-2.5585,-2.5644,-2.5687,-2.573,-2.5814,-2.6143,-2.6038,-2.6027,-2.6408,-2.6568,-2.6086,-2.6039,-2.6244,-2.5634,-2.5603,-2.5556,-2.557,-2.599,-2.6209,-2.6512,-2.6679,-2.6963,-2.6842,-2.6792,-2.6812,-2.6916,-2.6912,-2.6881,-2.6861,-2.7249,-2.7263,-2.7246,-2.7226,-2.74,-2.7704,-2.826,-2.8782,-2.9382,-2.9829,-2.9575,-2.9406,-2.9667,-2.9952,-3.0047,-3.0141,-2.9998,-2.988,-2.9771,-2.9798,-3.0028,-2.9922,-2.977,-2.9755,-2.9851,-2.9715,-2.9857,-2.9891,-2.9761,-2.9763,-2.9786,-2.9841,-2.9842,-2.9746,-2.9765,-2.9823,-2.9771,-2.9755,-2.9719,-2.9664,-2.957,-2.9472,-2.937,-2.9302,-2.8298,-2.8184,-2.7128,-2.6541,-2.6384,-2.6832,-2.7141,-2.7528,-2.8949,-2.8754,-2.7821,-2.7993,-2.7913,-2.7754,-2.8697,-2.9285,-2.921,-3.0291,-3.0537,-3.056,-3.0482,-3.0423,-3.0123,-2.971,-2.9511,-3.0182,-2.939,-2.942,-3.0112,-3.0608,-3.0734,-3.0714,-3.0728,-3.0714,-3.0656,-3.03,-2.9647,-2.844,-2.7687,-2.6846,-2.6221,-2.6287,-2.6353,-2.6367,-2.6325,-2.6337,-2.644,-2.6848,-2.6833,-2.6855,-2.7414,-2.7471,-2.6792,-2.6678,-2.664,-2.6211,-2.6132,-2.6145,-2.6263,-2.6582,-2.7123,-2.7599,-2.7795,-2.7853,-2.791,-2.809,-2.8098,-2.7893,-2.7912,-2.797,-2.817,-2.8223,-2.8193,-2.8209,-2.8281,-2.8407,-2.8575,-2.8954,-2.9413,-2.9968,-3.0353,-3.0521,-3.0429,-3.053,-3.0613,-3.0579,-3.0559,-3.0466,-3.0343,-3.0207,-3.0194,-3.024,-3.0142,-2.9931,-2.988,-2.9857,-2.9773,-2.9755,-2.979,-2.9806,-2.9823,-2.9857,-2.9874,-2.9876,-2.988,-2.979,-2.9773,-2.9738,-2.9701,-2.9664,-2.9608,-2.955,-2.9451,-2.9326,-2.9156,-2.8294,-2.8144,-2.6523,-2.6699,-2.7949,-2.7297,-2.7491,-2.8274,-2.9242,-2.9142,-2.8305,-2.8303,-2.8364,-2.8476,-2.9035,-2.924,-2.8535,-3.0084,-3.0095,-2.979,-2.9598,-2.9595,-2.9318,-2.8889,-2.8437,-2.8688,-2.8466,-2.8915,-2.9714,-3.0193,-3.0535,-3.0799,-3.0779,-3.0789,-3.0618,-3.0224,-2.9152,-2.8236,-2.7831,-2.7557,-2.7184,-2.7331,-2.7825,-2.7851,-2.7968,-2.8104,-2.8083,-2.8079,-2.7913,-2.7748,-2.831,-2.8271,-2.7716,-2.7474,-2.7227,-2.6976,-2.69,-2.6986,-2.7226,-2.7327,-2.7729,-2.8349,-2.8677,-2.8556,-2.8613,-2.835,-2.8265,-2.8481,-2.8688,-2.8535,-2.8647,-2.8783,-2.9042,-2.9032,-2.9138,-2.934,-2.9404,-2.9446,-2.9917,-3.0506,-3.0742,-3.078,-3.0743,-3.07,-3.0681,-3.0618,-3.0449,-3.0362,-3.0266,-3.0138,-3.0109,-3.0109,-3.0109,-2.9981,-2.9855,-2.9789,-2.9806,-2.9823,-2.9841,-2.9874,-2.9872,-2.9907,-2.9956,-2.9986,-2.9973,-2.9847,-2.9832,-3.0096,-3.0151,-2.9757,-2.9569,-2.9451,-2.9289,-2.9112,-2.8957,-2.8136,-2.8926,-2.7222,-2.6891,-2.7559,-2.828,-2.8785,-2.9209,-3.0003,-2.9901,-2.9103,-2.9111,-2.9092,-2.9322,-2.9855,-2.984,-2.9199,-2.9635,-2.9459,-2.9008,-2.8771,-2.8767,-2.8472,-2.8095,-2.7741,-2.7975,-2.7816,-2.8259,-2.9487,-2.9682,-3.0095,-3.0423,-3.0771,-3.0786,-3.0595,-3.0368,-2.9318,-2.8469,-2.8362,-2.8237,-2.6755,-2.7539,-2.8044,-2.7512,-2.8095,-2.8197,-2.8275,-2.8725,-2.8554,-2.8563,-2.9181,-2.901,-2.8569,-2.8338,-2.8135,-2.7807,-2.7748,-2.7943,-2.8307,-2.8436,-2.9036,-2.9757,-2.9931,-2.9719,-2.9588,-2.9739,-2.9778,-2.9818,-2.9682,-2.9544,-2.986,-3.0036,-3.0116,-2.9941,-2.9922,-3.0116,-3.0154,-3.0093,-3.0169,-3.0634,-3.073,-3.0765,-3.072,-3.0678,-3.0656,-3.0623,-3.0425,-3.0259,-3.0171,-3.0109,-3.0079,-3.0064,-3.0064,-3.0064,-2.9943,-2.9907,-2.9891,-2.9888,-2.9888,-3.0016,-3.0086,-3.0,-3.0053,-3.0089,-3.02,-3.0225,-3.0377,-3.0713,-3.0505,-2.983,-2.9488,-2.933,-2.9138,-2.9099,-2.9089,-2.8085,-2.906,-2.8166,-2.7915,-2.8259,-2.9179,-2.9726,-3.0056,-3.0581,-3.0579,-2.9973,-2.9959,-2.994,-3.0134,-3.0448,-3.0293,-2.9627,-2.9531,-2.904,-2.853,-2.8096,-2.7954,-2.7618,-2.7264,-2.6988,-2.7435,-2.7432,-2.78,-2.9461,-2.9185,-2.989,-3.0596,-3.083,-3.0827,-3.0827,-3.0738,-3.0079,-2.923,-2.9257,-2.9041,-2.7358,-2.8264,-2.8976,-2.8457,-2.8918,-2.9114,-2.9288,-2.9576,-2.9519,-2.9531,-2.9758,-2.9901,-2.9499,-2.9132,-2.9075,-2.8788,-2.8608,-2.8768,-2.9104,-2.9634,-3.009,-3.0517,-3.0621,-3.0619,-3.0772,-3.0771,-3.0502,-3.0614,-3.0684,-3.0762,-3.0758,-3.0625,-3.0554,-3.0336,-3.0381,-3.0508,-3.0524,-3.0494,-3.0529,-3.07,-3.0711,-3.0697,-3.062,-3.0554,-3.053,-3.05,-3.0371,-3.0226,-3.0142,-3.0079,-3.0064,-3.0083,-3.0083,-3.0068,-3.0038,-3.0041,-3.006,-2.9988,-3.006,-3.0323,-3.0388,-3.0285,-3.0548,-3.1004,-3.1033,-3.0791,-3.0902,-3.1187,-3.0551,-2.9656,-2.9588,-2.9677,-3.0037,-3.0081,-2.986,-2.8244,-2.8416,-2.9162,-2.989,-3.0333,-2.9876,-3.0034,-3.0619,-3.0818,-3.0819,-3.0644,-3.0662,-3.0661,-3.0681,-3.0759,-3.0287,-2.9682,-2.9492,-2.9081,-2.8338,-2.759,-2.7212,-2.6956,-2.6702,-2.6739,-2.7149,-2.7557,-2.8354,-2.9591,-2.9877,-3.0482,-3.078,-3.0897,-3.0894,-3.088,-3.0889,-3.0408,-2.9805,-3.0309,-2.9867,-2.9257,-2.9725,-3.0131,-2.9937,-3.0077,-3.0172,-3.0231,-3.0282,-3.0241,-3.0304,-3.0335,-3.0413,-3.0285,-2.9683,-2.9492,-2.9402,-2.9376,-2.9389,-2.9473,-3.0194,-3.0536,-3.0662,-3.0689,-3.0693,-3.0704,-3.0712,-3.0696,-3.0715,-3.0709,-3.0695,-3.068,-3.0703,-3.0691,-3.0665,-3.0678,-3.0684,-3.0678,-3.0607,-3.0581,-3.0656,-3.0653,-3.0593,-3.0501,-3.0441,-3.041,-3.0349,-3.0273,-3.0194,-3.0132,-3.0083,-3.0053,-3.0083,-3.0117,-3.0346,-3.0365,-3.0266,-3.0208,-3.0156,-3.0308,-3.0647,-3.0727,-3.0601,-3.1051,-3.1748,-3.1808,-3.152,-3.156,-3.1663,-3.1076,-3.0554,-3.0254,-3.0314,-3.0782,-3.0917,-3.0547,-2.8558,-2.9123,-2.9414,-3.0014,-3.0689,-3.0521,-3.0567,-3.0774,-3.0816,-3.0801,-3.0786,-3.0799,-3.0801,-3.0784,-3.0723,-3.035,-2.9726,-2.955,-2.9131,-2.83,-2.7474,-2.7546,-2.7386,-2.7114,-2.7056,-2.7717,-2.832,-2.8828,-2.9611,-3.0116,-3.0474,-3.0732,-3.0907,-3.0919,-3.0886,-3.08,-3.0403,-2.9847,-3.0154,-3.0158,-2.9056,-2.9966,-3.0525,-3.0036,-3.0445,-3.0678,-3.0676,-3.0645,-3.0621,-3.0623,-3.0586,-3.0604,-3.0613,-3.0109,-3.0161,-3.0149,-3.0133,-3.0122,-3.0114,-3.0403,-3.0477,-3.0571,-3.0607,-3.062,-3.062,-3.0581,-3.0581,-3.0586,-3.0571,-3.0568,-3.0577,-3.0615,-3.0593,-3.0554,-3.0543,-3.0579,-3.0563,-3.0443,-3.0424,-3.0606,-3.0659,-3.0912,-3.0956,-3.0734,-3.0647,-3.0617,-3.0589,-3.0293,-3.0155,-3.0095,-3.0038,-3.0068,-3.0156,-3.0528,-3.0715,-3.0829,-3.0958,-3.1001,-3.1054,-3.1178,-3.1153,-3.1086,-3.1428,-3.2107,-3.2192,-3.2251,-3.2098,-3.1948,-3.1934,-3.1637,-3.13,-3.1016,-3.1255,-3.1256,-3.0912,-2.9245,-2.9526,-2.9801,-3.0219,-3.073,-3.0804,-3.0798,-3.079,-3.0794,-3.0801,-3.0785,-3.0794,-3.079,-3.0798,-3.0735,-3.0615,-2.9994,-2.9653,-2.9447,-2.8612,-2.7848,-2.7884,-2.7901,-2.7858,-2.8053,-2.8541,-2.8852,-2.9242,-3.0105,-3.0081,-3.0404,-3.08,-3.0916,-3.0915,-3.0898,-3.0754,-3.0602,-3.0253,-3.0511,-3.038,-2.9833,-3.0055,-3.0471,-3.025,-3.0358,-3.0645,-3.0604,-3.0577,-3.054,-3.054,-3.054,-3.055,-3.0559,-3.0568,-3.0577,-3.052,-3.0453,-3.0411,-3.0337,-3.0302,-3.034,-3.0384,-3.0434,-3.0472,-3.0462,-3.0434,-3.0404,-3.0414,-3.0432,-3.0441,-3.0449,-3.049,-3.046,-3.0411,-3.0392,-3.0422,-3.0441,-3.0337,-3.0593,-3.0732,-3.092,-3.1188,-3.144,-3.1164,-3.096,-3.0941,-3.0923,-3.06,-3.0328,-3.0248,-3.0151,-3.014,-3.0377,-3.0811,-3.1257,-3.166,-3.1756,-3.1832,-3.1855,-3.184,-3.1908,-3.1902,-3.2161,-3.2328,-3.2391,-3.2422,-3.2287,-3.222,-3.2399,-3.2441,-3.2343,-3.2089,-3.19,-3.1727,-3.1572,-3.0205,-2.9702,-3.0372,-3.0684,-3.0709,-3.0779,-3.0793,-3.0798,-3.0798,-3.0802,-3.0802,-3.0802,-3.0798,-3.0789,-3.0784,-3.0754,-3.0591,-2.9949,-2.9728,-2.9347,-2.8711,-2.8632,-2.8551,-2.8507,-2.8896,-2.9368,-2.9719,-2.9993,-3.0796,-3.0697,-3.0762,-3.0873,-3.0914,-3.0895,-3.0868,-3.0807,-3.0721,-3.0637,-3.0606,-3.0547,-3.0354,-3.0516,-3.0613,-3.0506,-3.0591,-3.0595,-3.054,-3.0511,-3.0451,-3.0439,-3.0417,-3.0414,-3.0402,-3.0398,-3.0398,-3.0367,-3.0316,-3.0267,-3.0215,-3.0169,-3.0142,-3.0163,-3.0155,-3.0209,-3.026,-3.0253,-3.0266,-3.0278,-3.0278,-3.0285,-3.0304,-3.0299,-3.0286,-3.0254,-3.0209,-3.0241,-3.0305,-3.0475,-3.0841,-3.1048,-3.1241,-3.1484,-3.188,-3.1736,-3.1368,-3.1522,-3.1504,-3.1288,-3.1005,-3.0622,-3.0526,-3.0273,-3.0606,-3.1149,-3.1654,-3.2314,-3.2485,-3.253,-3.2533,-3.2519,-3.26,-3.2585,-3.2691,-3.2699,-3.2658,-3.2611,-3.2609,-3.2766,-3.2991,-3.2997,-3.2739,-3.2793,-3.2509,-3.2737,-3.2708,-3.0003,-3.0374,-3.0594,-3.0691,-3.0704,-3.073,-3.0767,-3.0794,-3.0794,-3.0799,-3.0784,-3.0784,-3.0789,-3.0793,-3.0784,-3.0793,-3.0689,-3.0586,-3.0528,-3.0147,-2.9584,-2.9744,-2.9707,-2.9585,-2.9876,-3.0211,-3.0525,-3.0566,-3.0801,-3.0898,-3.0917,-3.0903,-3.0901,-3.0877,-3.084,-3.0832,-3.0813,-3.0773,-3.0761,-3.0717,-3.0697,-3.0695,-3.0673,-3.0621,-3.0623,-3.054,-3.0491,-3.0471,-3.0417,-3.034,-3.0328,-3.0336,-3.0337,-3.0337,-3.0324,-3.0194,-3.0152,-3.0142,-3.0064,-3.0038,-2.9972,-2.9956,-2.9907,-2.9953,-3.0026,-3.0085,-3.0104,-3.0133,-3.0142,-3.0142,-3.0147,-3.0152,-3.0138,-3.009,-3.0041,-3.0075,-3.0204,-3.0586,-3.0989,-3.1713,-3.1883,-3.212,-3.2463,-3.2098,-3.1808,-3.2045,-3.2122,-3.196,-3.1697,-3.1321,-3.0783,-3.0527,-3.0998,-3.16,-3.2411,-3.3091,-3.3167,-3.3223,-3.3166,-3.3029,-3.2873,-3.2887,-3.305,-3.302,-3.2883,-3.2911,-3.3028,-3.3135,-3.306,-3.2965,-3.2791,-3.2988,-3.3183,-3.3232,-3.3292,-3.018,-3.0637,-3.0649,-3.0664,-3.0704,-3.0697,-3.0737,-3.0767,-3.0753,-3.0764,-3.0799,-3.0799,-3.0784,-3.0789,-3.0789,-3.0798,-3.0794,-3.0742,-3.0738,-3.0609,-3.0316,-3.0442,-3.0507,-3.043,-3.043,-3.0742,-3.0857,-3.0796,-3.0853,-3.0866,-3.0875,-3.0869,-3.0869,-3.0837,-3.0817,-3.0808,-3.0794,-3.0778,-3.0755,-3.0717,-3.0695,-3.0692,-3.0649,-3.0595,-3.0577,-3.0491,-3.0406,-3.0402,-3.0318,-3.0174,-3.0147,-3.0138,-3.0128,-3.0113,-3.0064,-2.9953,-2.9956,-2.994,-2.9891,-2.9857,-2.9823,-2.9808,-2.9756,-2.9773,-2.9823,-2.9872,-2.9924,-2.9956,-2.9984,-3.0,-3.0003,-2.9988,-2.9953,-2.9918,-2.9902,-2.9888,-3.0234,-3.0634,-3.1412,-3.2306,-3.2698,-3.2953,-3.2871,-3.2438,-3.2318,-3.2684,-3.2858,-3.2757,-3.2462,-3.2072,-3.1312,-3.0661,-3.1387,-3.2147,-3.2962,-3.3567,-3.366,-3.3655,-3.3642,-3.3483,-3.3247,-3.3117,-3.3186,-3.3143,-3.3069,-3.3086,-3.3055,-3.2948,-3.2902,-3.2838,-3.287,-3.3028,-3.3152,-3.3152,-3.3244,-3.0507,-3.0602,-3.061,-3.0661,-3.069,-3.0697,-3.0704,-3.0698,-3.0697,-3.0739,-3.0799,-3.0799,-3.0784,-3.0793,-3.0793,-3.0786,-3.0798,-3.0785,-3.0791,-3.0801,-3.0743,-3.0827,-3.085,-3.0892,-3.0736,-3.0767,-3.0796,-3.0816,-3.0804,-3.082,-3.082,-3.0786,-3.0794,-3.0806,-3.0793,-3.0804,-3.0784,-3.0775,-3.0737,-3.069,-3.0688,-3.0637,-3.0613,-3.0577,-3.052,-3.0417,-3.0267,-3.0218,-3.0194,-3.0073,-3.0009,-3.003,-3.0033,-3.0015,-2.9942,-3.0075,-3.0207,-3.0057,-2.9963,-2.9832,-2.9719,-2.9701,-2.9701,-2.9664,-2.9682,-2.9753,-2.9823,-3.0217,-3.0343,-3.0589,-3.0684,-3.0536,-3.0426,-3.0146,-2.996,-3.0113,-3.0452,-3.1184,-3.2355,-3.3059,-3.3295,-3.3499,-3.3416,-3.3012,-3.2794,-3.3255,-3.3335,-3.3245,-3.3065,-3.2648,-3.2005,-3.1134,-3.1703,-3.2469,-3.3096,-3.3687,-3.3961,-3.4018,-3.3919,-3.3729,-3.3314,-3.3237,-3.3268,-3.3135,-3.2993,-3.2961,-3.2916,-3.2852,-3.2852,-3.2916,-3.2979,-3.306,-3.3122,-3.3122,-3.3214,-3.0006,-3.0593,-3.0657,-3.0688,-3.0697,-3.0704,-3.0698,-3.0697,-3.0753,-3.0769,-3.0799,-3.0804,-3.0793,-3.0786,-3.0793,-3.0782,-3.0785,-3.0788,-3.0791,-3.0816,-3.0858,-3.0877,-3.0901,-3.0901,-3.0858,-3.0824,-3.0794,-3.079,-3.079,-3.079,-3.0794,-3.0794,-3.079,-3.0793,-3.0774,-3.0784,-3.0767,-3.0743,-3.0717,-3.0676,-3.0665,-3.0621,-3.0576,-3.054,-3.0458,-3.0374,-3.0398,-3.0704,-3.0717,-3.0658,-3.0603,-3.0584,-3.0505,-3.0486,-3.0764,-3.1134,-3.0949,-3.0708,-3.0278,-2.9979,-2.9774,-2.9626,-2.9607,-2.9569,-2.9626,-2.97,-2.9998,-3.0468,-3.0844,-3.1109,-3.1204,-3.0979,-3.0716,-3.0321,-3.0114,-3.0411,-3.0688,-3.1927,-3.3189,-3.3574,-3.3825,-3.3831,-3.3762,-3.3679,-3.3491,-3.3375,-3.3345,-3.328,-3.3196,-3.2911,-3.271,-3.2074,-3.2107,-3.2732,-3.3298,-3.3637,-3.3868,-3.3889,-3.3726,-3.353,-3.3327,-3.3178,-3.3011,-3.2979,-3.2884,-3.2884,-3.2884,-3.2852,-3.2884,-3.2979,-3.3042,-3.3122,-3.3135,-3.3165,-3.3226,-2.9582,-3.0044,-3.0494,-3.068,-3.071,-3.0704,-3.0691,-3.071,-3.0748,-3.0764,-3.0799,-3.0799,-3.0793,-3.0794,-3.0798,-3.0786,-3.0791,-3.0791,-3.0794,-3.0819,-3.0836,-3.0849,-3.0869,-3.0866,-3.082,-3.0786,-3.0798,-3.0798,-3.0798,-3.0798,-3.0798,-3.0798,-3.0784,-3.0769,-3.0761,-3.0755,-3.0776,-3.0673,-3.0719,-3.0696,-3.0662,-3.0549,-3.0511,-3.0458,-3.0343,-3.0327,-3.0639,-3.0949,-3.1054,-3.1158,-3.1185,-3.0785,-3.0757,-3.0828,-3.1191,-3.1506,-3.1533,-3.1414,-3.0761,-3.0358,-3.0008,-2.9807,-2.9568,-2.9587,-3.0185,-3.032,-3.0396,-3.0829,-3.0847,-3.1073,-3.0828,-3.0601,-3.0186,-2.9771,-3.0344,-3.0916,-3.1481,-3.2432,-3.3259,-3.3707,-3.3797,-3.368,-3.3733,-3.4084,-3.3864,-3.3436,-3.3358,-3.3352,-3.3255,-3.3024,-3.2871,-3.2773,-3.2643,-3.2783,-3.3221,-3.3476,-3.3647,-3.3597,-3.3574,-3.3286,-3.3082,-3.2902,-3.2787,-3.2927,-3.3009,-3.2916,-3.2884,-3.3062,-3.3051,-3.3122,-3.3152,-3.3152,-3.3165,-3.3196,-3.3256,-2.9505,-2.959,-3.0303,-3.0634,-3.071,-3.0697,-3.0704,-3.0698,-3.0697,-3.0739,-3.0804,-3.0794,-3.0793,-3.0786,-3.079,-3.0801,-3.0788,-3.0794,-3.0799,-3.0794,-3.0804,-3.0817,-3.081,-3.0806,-3.0798,-3.0774,-3.0765,-3.0774,-3.0769,-3.0769,-3.0764,-3.0778,-3.0787,-3.0755,-3.0723,-3.0826,-3.094,-3.1019,-3.1012,-3.0849,-3.0655,-3.0419,-3.0375,-3.0279,-3.0285,-3.043,-3.0751,-3.1184,-3.139,-3.157,-3.175,-3.1439,-3.1225,-3.1366,-3.1666,-3.2022,-3.2478,-3.1954,-3.1256,-3.1106,-3.0553,-3.0076,-2.9804,-3.0049,-3.0681,-3.1003,-3.1104,-3.118,-3.1199,-3.1182,-3.097,-3.0644,-3.019,-3.0049,-3.0895,-3.1455,-3.2158,-3.2801,-3.3301,-3.3753,-3.3661,-3.3528,-3.376,-3.4142,-3.4122,-3.3692,-3.3517,-3.344,-3.3319,-3.2955,-3.2692,-3.2684,-3.2688,-3.2893,-3.316,-3.3466,-3.3664,-3.362,-3.3544,-3.3155,-3.2973,-3.331,-3.343,-3.3226,-3.3223,-3.3416,-3.3448,-3.3605,-3.3553,-3.3412,-3.3507,-3.3512,-3.3196,-3.3226,-3.3274,-3.0345,-3.0361,-3.0543,-3.0634,-3.069,-3.0704,-3.0698,-3.0697,-3.0753,-3.0794,-3.0789,-3.0784,-3.0793,-3.0798,-3.0798,-3.0785,-3.0791,-3.0796,-3.0791,-3.0801,-3.0798,-3.0786,-3.0793,-3.0779,-3.0799,-3.0769,-3.0734,-3.0716,-3.0742,-3.0736,-3.0724,-3.0737,-3.0729,-3.0754,-3.0801,-3.1056,-3.1534,-3.1603,-3.1849,-3.1877,-3.113,-3.0752,-3.0228,-3.0309,-3.0579,-3.0695,-3.1069,-3.2011,-3.2372,-3.2496,-3.2383,-3.2184,-3.2041,-3.2007,-3.2346,-3.2702,-3.3191,-3.2746,-3.2189,-3.2046,-3.1533,-3.0983,-3.088,-3.1006,-3.1584,-3.2011,-3.2112,-3.2242,-3.2302,-3.2449,-3.2273,-3.1927,-3.1561,-3.1703,-3.2274,-3.2228,-3.2535,-3.2985,-3.3395,-3.3528,-3.3495,-3.346,-3.3478,-3.3939,-3.4451,-3.4124,-3.4095,-3.3952,-3.3327,-3.2935,-3.2611,-3.2645,-3.2747,-3.277,-3.2948,-3.3573,-3.3824,-3.3725,-3.3715,-3.3702,-3.3863,-3.427,-3.4268,-3.3746,-3.3975,-3.4329,-3.436,-3.401,-3.4006,-3.389,-3.4033,-3.3979,-3.3574,-3.3304,-3.3394]}]]